[[{"header":{"parameterUnit":"m.s-1","parameterCategory":1,"la1":31.0,"la2":29.5877,"lo1":-88.7671,"lo2":-86.6584,"dy":0.0162,"dx":0.0185,"nx":115,"ny":88,"refTime":"2025-05-20T12:00:00:Z","depth":0,"parameterNumber":2,"parameterNumberName":"U-component_of_WINDS"},"data":[0.0,0.0,0.0,0.0,0.0,0.0,0.0,0.0,0.0,0.0,0.0,0.0,0.0,0.0,0.0,0.0,0.0,0.0,0.0,0.0,0.0,0.0,0.0,0.0,0.0,0.0,0.0,0.0,0.0,0.0,0.0,0.0,0.0,0.0,0.0,0.0,0.0,0.0,0.0,0.0,0.0,-1.2342,-1.1462,-1.0608,-1.0252,-1.019,-1.0402,0.0,0.0,0.0,0.0,0.0,0.0,0.0,0.0,0.0,0.0,0.0,0.0,0.0,0.0,0.0,0.0,0.0,0.0,0.0,0.0,0.0,0.0,0.0,0.0,0.0,0.0,0.0,0.0,0.0,0.0,0.0,0.0,0.0,0.0,0.0,0.0,0.0,0.0,0.0,0.0,0.0,0.0,0.0,0.0,0.0,0.0,0.0,0.0,0.0,0.0,0.0,0.0,0.0,0.0,0.0,0.0,0.0,0.0,0.0,0.0,0.0,0.0,0.0,0.0,0.0,0.0,0.0,0.0,0.0,0.0,0.0,0.0,0.0,0.0,0.0,0.0,0.0,0.0,0.0,0.0,0.0,0.0,0.0,0.0,0.0,0.0,0.0,0.0,0.0,0.0,0.0,0.0,0.0,0.0,0.0,0.0,0.0,0.0,0.0,0.0,0.0,0.0,0.0,0.0,0.0,0.0,0.0,0.0,0.0,0.0,-1.2237,-1.1161,-1.0456,-1.042,-1.0992,0.0,0.0,0.0,0.0,0.0,0.0,0.0,0.0,0.0,0.0,0.0,0.0,0.0,0.0,0.0,0.0,0.0,0.0,0.0,0.0,0.0,0.0,0.0,0.0,0.0,0.0,0.0,0.0,0.0,0.0,0.0,0.0,0.0,0.0,0.0,0.0,0.0,0.0,0.0,0.0,0.0,0.0,0.0,0.0,0.0,0.0,0.0,0.0,0.0,0.0,0.0,0.0,0.0,0.0,0.0,0.0,0.0,0.0,0.0,0.0,0.0,0.0,0.0,0.0,0.0,0.0,0.0,0.0,0.0,0.0,0.0,0.0,0.0,0.0,0.0,0.0,0.0,0.0,0.0,0.0,0.0,0.0,0.0,0.0,0.0,0.0,0.0,0.0,0.0,0.0,0.0,0.0,0.0,0.0,0.0,0.0,0.0,0.0,0.0,0.0,0.0,0.0,0.0,0.0,0.0,0.0,0.0,0.0,0.0,0.0,-1.25,-1.0443,-1.064,-1.0858,-1.0936,0.0,0.0,0.0,0.0,0.0,0.0,0.0,0.0,0.0,0.0,0.0,0.0,0.0,0.0,0.0,0.0,0.0,0.0,0.0,0.0,0.0,0.0,0.0,0.0,0.0,0.0,0.0,0.0,0.0,0.0,0.0,0.0,0.0,0.0,0.0,0.0,0.0,0.0,0.0,0.0,0.0,0.0,0.0,0.0,0.0,0.0,0.0,0.0,0.0,0.0,0.0,0.0,0.0,0.0,0.0,0.0,0.0,0.0,0.0,0.0,0.0,0.0,0.0,0.0,0.0,0.0,0.0,0.0,0.0,0.0,0.0,0.0,0.0,0.0,0.0,0.0,0.0,0.0,0.0,0.0,0.0,0.0,0.0,0.0,0.0,0.0,0.0,0.0,0.0,0.0,0.0,0.0,0.0,0.0,0.0,0.0,0.0,0.0,0.0,0.0,0.0,0.0,0.0,0.0,0.0,0.0,0.0,0.0,0.0,0.0,-1.2709,-1.1494,-1.1554,-1.1529,-1.1329,-1.1201,0.0,0.0,0.0,0.0,0.0,0.0,0.0,0.0,0.0,0.0,0.0,0.0,0.0,0.0,0.0,0.0,0.0,0.0,0.0,0.0,0.0,0.0,0.0,0.0,0.0,0.0,0.0,0.0,0.0,0.0,0.0,0.0,0.0,0.0,0.0,0.0,0.0,0.0,0.0,0.0,0.0,0.0,0.0,0.0,0.0,0.0,0.0,0.0,0.0,0.0,0.0,0.0,0.0,0.0,0.0,0.0,0.0,0.0,0.0,0.0,0.0,0.0,0.0,0.0,0.0,0.0,0.0,0.0,0.0,0.0,0.0,0.0,0.0,0.0,0.0,0.0,0.0,0.0,0.0,0.0,0.0,0.0,0.0,0.0,0.0,0.0,0.0,0.0,0.0,0.0,0.0,0.0,0.0,0.0,0.0,0.0,0.0,0.0,0.0,0.0,0.0,0.0,0.0,0.0,0.0,0.0,0.0,0.0,0.0,-1.2862,-1.3049,-1.2567,-1.2247,-1.2059,-1.2542,0.0,0.0,0.0,0.0,0.0,0.0,0.0,0.0,0.0,0.0,0.0,0.0,0.0,0.0,0.0,0.0,0.0,0.0,0.0,0.0,0.0,0.0,0.0,0.0,0.0,0.0,0.0,0.0,0.0,0.0,0.0,0.0,0.0,0.0,0.0,0.0,0.0,0.0,0.0,0.0,0.0,0.0,0.0,0.0,0.0,0.0,0.0,0.0,0.0,0.0,0.0,0.0,0.0,0.0,0.0,0.0,0.0,0.0,0.0,0.0,0.0,0.0,0.0,0.0,0.0,0.0,0.0,0.0,0.0,0.0,0.0,0.0,0.0,0.0,0.0,0.0,0.0,0.0,0.0,0.0,0.0,0.0,0.0,0.0,0.0,0.0,0.0,0.0,0.0,0.0,0.0,0.0,0.0,0.0,0.0,0.0,0.0,0.0,0.0,0.0,0.0,0.0,0.0,0.0,0.0,0.0,0.0,0.0,0.0,-1.2987,-1.2474,-1.2843,-1.2999,-1.2795,-1.2417,0.0,0.0,0.0,0.0,0.0,0.0,0.0,0.0,0.0,0.0,0.0,0.0,0.0,0.0,0.0,0.0,0.0,0.0,0.0,0.0,0.0,0.0,0.0,0.0,0.0,0.0,0.0,0.0,0.0,0.0,0.0,0.0,0.0,0.0,0.0,0.0,0.0,0.0,0.0,0.0,0.0,0.0,0.0,0.0,0.0,0.0,0.0,0.0,0.0,0.0,0.0,0.0,0.0,0.0,0.0,0.0,0.0,0.0,0.0,0.0,0.0,0.0,0.0,0.0,0.0,0.0,0.0,0.0,0.0,0.0,0.0,0.0,0.0,0.0,0.0,0.0,0.0,0.0,0.0,0.0,0.0,0.0,0.0,0.0,0.0,0.0,0.0,0.0,0.0,0.0,0.0,0.0,0.0,0.0,0.0,0.0,0.0,0.0,0.0,0.0,0.0,0.0,0.0,0.0,0.0,0.0,0.0,0.0,0.0,-1.3002,-1.3313,-1.3605,-1.3678,-1.3522,-1.3141,0.0,0.0,0.0,0.0,0.0,0.0,0.0,0.0,0.0,0.0,0.0,0.0,0.0,0.0,0.0,0.0,0.0,0.0,0.0,0.0,0.0,0.0,0.0,0.0,0.0,0.0,0.0,0.0,0.0,0.0,0.0,0.0,0.0,0.0,0.0,0.0,0.0,0.0,0.0,0.0,0.0,0.0,0.0,0.0,0.0,0.0,0.0,0.0,0.0,0.0,0.0,0.0,0.0,0.0,0.0,0.0,0.0,0.0,0.0,0.0,0.0,0.0,0.0,0.0,0.0,0.0,0.0,0.0,0.0,0.0,0.0,0.0,0.0,0.0,0.0,0.0,0.0,0.0,0.0,0.0,0.0,0.0,0.0,0.0,0.0,0.0,0.0,0.0,0.0,0.0,0.0,0.0,0.0,0.0,0.0,0.0,0.0,0.0,0.0,0.0,0.0,0.0,0.0,0.0,0.0,0.0,0.0,0.0,-1.2378,-1.3098,-1.4532,-1.4506,-1.4363,-1.4268,-1.4183,0.0,0.0,0.0,0.0,0.0,0.0,0.0,0.0,0.0,0.0,0.0,0.0,0.0,0.0,0.0,0.0,0.0,0.0,0.0,0.0,0.0,0.0,0.0,0.0,0.0,0.0,0.0,0.0,0.0,0.0,0.0,0.0,0.0,0.0,0.0,0.0,0.0,0.0,0.0,0.0,0.0,0.0,0.0,0.0,0.0,0.0,0.0,0.0,0.0,0.0,0.0,0.0,0.0,0.0,0.0,0.0,0.0,0.0,0.0,0.0,0.0,0.0,0.0,0.0,0.0,0.0,0.0,0.0,0.0,0.0,0.0,0.0,0.0,0.0,0.0,0.0,0.0,0.0,0.0,0.0,0.0,0.0,0.0,0.0,0.0,0.0,0.0,0.0,0.0,0.0,0.0,0.0,0.0,0.0,0.0,0.0,0.0,0.0,0.0,0.0,0.0,0.0,0.0,0.0,0.0,0.0,0.0,-1.3005,-1.2988,-1.3756,-1.5294,-1.5279,-1.5139,-1.4945,-1.5043,0.0,0.0,0.0,0.0,0.0,0.0,0.0,0.0,0.0,0.0,0.0,0.0,0.0,0.0,0.0,0.0,0.0,0.0,0.0,0.0,0.0,0.0,0.0,0.0,0.0,0.0,0.0,0.0,0.0,0.0,0.0,0.0,0.0,0.0,0.0,0.0,0.0,0.0,0.0,0.0,0.0,0.0,0.0,0.0,0.0,0.0,0.0,0.0,0.0,0.0,0.0,0.0,0.0,0.0,0.0,0.0,0.0,0.0,0.0,0.0,0.0,0.0,0.0,0.0,0.0,0.0,0.0,0.0,0.0,0.0,0.0,0.0,0.0,0.0,0.0,0.0,0.0,0.0,0.0,0.0,0.0,0.0,0.0,0.0,0.0,0.0,0.0,0.0,0.0,0.0,0.0,0.0,0.0,0.0,0.0,0.0,0.0,0.0,0.0,0.0,0.0,0.0,0.0,0.0,0.0,0.0,-1.2713,-1.2472,-1.2423,-1.313,-1.4614,-1.4617,-1.4685,-1.4964,-1.5039,0.0,0.0,0.0,0.0,0.0,0.0,0.0,0.0,0.0,0.0,0.0,0.0,0.0,0.0,0.0,0.0,0.0,0.0,0.0,0.0,0.0,0.0,0.0,0.0,0.0,0.0,0.0,0.0,0.0,0.0,0.0,0.0,0.0,0.0,0.0,0.0,0.0,0.0,0.0,0.0,0.0,0.0,0.0,0.0,0.0,0.0,0.0,0.0,0.0,0.0,0.0,0.0,0.0,0.0,0.0,0.0,0.0,0.0,0.0,0.0,0.0,0.0,0.0,0.0,0.0,0.0,0.0,0.0,0.0,0.0,0.0,0.0,0.0,0.0,0.0,0.0,0.0,0.0,0.0,0.0,0.0,0.0,0.0,0.0,0.0,0.0,0.0,0.0,0.0,0.0,0.0,0.0,0.0,0.0,0.0,0.0,0.0,0.0,0.0,0.0,0.0,0.0,0.0,0.0,0.0,0.0,-1.3742,-1.439,-1.2919,-1.3435,-1.6095,-1.6269,-1.6491,-1.6916,0.0,0.0,0.0,0.0,0.0,0.0,0.0,0.0,0.0,0.0,0.0,0.0,0.0,0.0,0.0,0.0,0.0,0.0,0.0,0.0,0.0,0.0,0.0,0.0,0.0,0.0,0.0,0.0,0.0,0.0,0.0,0.0,0.0,0.0,0.0,0.0,0.0,0.0,0.0,0.0,0.0,0.0,0.0,0.0,0.0,0.0,0.0,0.0,0.0,0.0,0.0,0.0,0.0,0.0,0.0,0.0,0.0,0.0,0.0,0.0,0.0,0.0,0.0,0.0,0.0,0.0,0.0,0.0,0.0,0.0,0.0,0.0,0.0,0.0,0.0,0.0,0.0,0.0,0.0,0.0,0.0,0.0,0.0,0.0,0.0,0.0,0.0,0.0,0.0,0.0,0.0,0.0,0.0,0.0,0.0,0.0,0.0,0.0,0.0,0.0,0.0,0.0,0.0,0.0,0.0,0.0,0.0,-1.6387,-2.1611,-1.6102,-1.6119,-2.3094,-2.3281,-2.3296,-2.3174,0.0,0.0,0.0,0.0,0.0,0.0,0.0,0.0,0.0,0.0,0.0,0.0,0.0,0.0,0.0,0.0,0.0,0.0,0.0,0.0,0.0,0.0,0.0,0.0,0.0,0.0,0.0,0.0,0.0,0.0,0.0,0.0,0.0,0.0,0.0,0.0,0.0,0.0,0.0,0.0,0.0,0.0,0.0,0.0,0.0,0.0,0.0,0.0,0.0,0.0,0.0,0.0,0.0,0.0,0.0,0.0,0.0,0.0,0.0,0.0,0.0,0.0,0.0,0.0,0.0,0.0,0.0,0.0,0.0,0.0,0.0,0.0,0.0,0.0,0.0,0.0,0.0,0.0,0.0,0.0,0.0,0.0,0.0,0.0,0.0,0.0,0.0,0.0,0.0,0.0,0.0,0.0,0.0,0.0,0.0,0.0,0.0,0.0,0.0,0.0,0.0,0.0,0.0,0.0,0.0,0.0,-1.5312,-1.5008,-1.6313,-1.7146,-1.9194,-2.245,-2.3536,-2.3798,-2.3078,0.0,0.0,0.0,0.0,0.0,0.0,0.0,0.0,0.0,0.0,0.0,0.0,0.0,0.0,0.0,0.0,0.0,0.0,0.0,0.0,0.0,0.0,0.0,0.0,0.0,0.0,0.0,0.0,0.0,0.0,0.0,0.0,0.0,0.0,0.0,0.0,0.0,0.0,0.0,0.0,0.0,0.0,0.0,0.0,0.0,0.0,0.0,0.0,0.0,0.0,0.0,0.0,0.0,0.0,0.0,0.0,0.0,0.0,0.0,0.0,0.0,0.0,0.0,0.0,0.0,0.0,0.0,0.0,0.0,0.0,0.0,0.0,0.0,0.0,0.0,0.0,0.0,0.0,0.0,0.0,0.0,0.0,0.0,0.0,0.0,0.0,0.0,0.0,0.0,0.0,0.0,0.0,0.0,0.0,0.0,0.0,0.0,0.0,0.0,0.0,0.0,0.0,0.0,0.0,0.0,-1.7738,-1.5589,-1.5409,-1.7424,-1.9736,-2.1953,-2.4134,-2.5461,-2.4896,-2.2278,0.0,0.0,0.0,0.0,0.0,0.0,0.0,0.0,0.0,0.0,0.0,0.0,0.0,0.0,0.0,0.0,0.0,0.0,0.0,0.0,0.0,0.0,0.0,0.0,0.0,0.0,0.0,0.0,0.0,0.0,0.0,0.0,0.0,0.0,0.0,0.0,0.0,0.0,0.0,0.0,0.0,0.0,0.0,0.0,0.0,0.0,0.0,0.0,0.0,0.0,0.0,0.0,0.0,0.0,0.0,0.0,0.0,0.0,0.0,0.0,0.0,0.0,0.0,0.0,0.0,0.0,0.0,0.0,0.0,0.0,0.0,0.0,0.0,0.0,0.0,0.0,0.0,0.0,0.0,0.0,0.0,0.0,0.0,0.0,0.0,0.0,0.0,0.0,0.0,0.0,0.0,0.0,0.0,0.0,0.0,0.0,0.0,0.0,0.0,0.0,0.0,0.0,0.0,0.0,0.0,0.0,-1.513,-1.9742,-3.103,-2.4666,-2.4295,-3.1259,-3.1593,-2.8325,-2.1905,0.0,0.0,0.0,0.0,0.0,0.0,0.0,0.0,0.0,0.0,0.0,0.0,0.0,0.0,0.0,0.0,0.0,0.0,0.0,0.0,0.0,0.0,0.0,0.0,0.0,0.0,0.0,0.0,0.0,0.0,0.0,0.0,0.0,0.0,0.0,0.0,0.0,0.0,0.0,0.0,0.0,0.0,0.0,0.0,0.0,0.0,0.0,0.0,0.0,0.0,0.0,0.0,0.0,0.0,0.0,0.0,0.0,0.0,0.0,0.0,0.0,0.0,0.0,0.0,0.0,0.0,0.0,0.0,0.0,0.0,0.0,0.0,0.0,0.0,0.0,0.0,0.0,0.0,0.0,0.0,0.0,0.0,0.0,0.0,0.0,0.0,0.0,0.0,0.0,0.0,0.0,0.0,0.0,0.0,0.0,0.0,0.0,0.0,0.0,0.0,0.0,0.0,0.0,0.0,0.0,0.0,-1.5141,-1.56,-1.9361,-1.9995,-2.6126,-3.7477,-2.9591,-2.5566,-2.6833,0.0,0.0,0.0,0.0,0.0,0.0,0.0,0.0,0.0,0.0,0.0,0.0,0.0,0.0,0.0,0.0,0.0,0.0,0.0,0.0,0.0,0.0,0.0,0.0,0.0,0.0,0.0,0.0,0.0,0.0,0.0,0.0,0.0,0.0,0.0,0.0,0.0,0.0,0.0,0.0,0.0,0.0,0.0,0.0,0.0,0.0,0.0,0.0,0.0,0.0,0.0,0.0,0.0,0.0,0.0,0.0,0.0,0.0,0.0,0.0,0.0,0.0,0.0,0.0,0.0,0.0,0.0,0.0,0.0,0.0,0.0,0.0,0.0,0.0,0.0,0.0,0.0,0.0,0.0,0.0,0.0,0.0,0.0,0.0,0.0,0.0,0.0,0.0,0.0,0.0,0.0,0.0,0.0,0.0,0.0,0.0,0.0,0.0,0.0,0.0,0.0,0.0,0.0,0.0,0.0,0.0,-1.5502,-1.5371,-1.841,-2.3983,-3.0733,-3.7808,-2.915,-2.4038,0.0,0.0,0.0,0.0,0.0,0.0,0.0,0.0,0.0,0.0,0.0,0.0,0.0,0.0,0.0,0.0,0.0,0.0,0.0,0.0,0.0,0.0,0.0,0.0,0.0,0.0,0.0,0.0,0.0,0.0,0.0,0.0,0.0,0.0,0.0,0.0,0.0,0.0,0.0,0.0,0.0,0.0,0.0,0.0,0.0,0.0,0.0,0.0,0.0,0.0,0.0,0.0,0.0,0.0,0.0,0.0,0.0,0.0,0.0,0.0,0.0,0.0,0.0,0.0,0.0,0.0,0.0,0.0,0.0,0.0,0.0,0.0,0.0,0.0,0.0,0.0,0.0,0.0,0.0,0.0,0.0,0.0,0.0,0.0,0.0,0.0,0.0,0.0,0.0,0.0,0.0,0.0,0.0,0.0,0.0,0.0,0.0,0.0,0.0,0.0,0.0,0.0,0.0,0.0,0.0,0.0,0.0,-1.6395,-1.9912,-3.117,-3.7345,-3.7455,-3.2058,-3.064,-2.411,0.0,0.0,0.0,0.0,0.0,0.0,0.0,0.0,0.0,0.0,0.0,0.0,0.0,0.0,0.0,0.0,0.0,0.0,0.0,0.0,0.0,0.0,0.0,0.0,0.0,0.0,0.0,0.0,0.0,0.0,0.0,0.0,0.0,0.0,0.0,0.0,0.0,0.0,0.0,0.0,0.0,0.0,0.0,0.0,0.0,0.0,0.0,0.0,0.0,0.0,0.0,0.0,0.0,0.0,0.0,0.0,0.0,0.0,0.0,0.0,0.0,0.0,0.0,0.0,0.0,0.0,0.0,0.0,0.0,0.0,0.0,0.0,0.0,0.0,0.0,0.0,0.0,0.0,0.0,0.0,0.0,0.0,0.0,0.0,0.0,0.0,0.0,0.0,0.0,0.0,0.0,0.0,0.0,0.0,0.0,0.0,0.0,0.0,0.0,0.0,0.0,0.0,0.0,0.0,0.0,0.0,0.0,-2.4874,-2.7355,-2.742,-3.009,-3.3575,-3.7205,-2.672,-2.1377,-2.2315,0.0,0.0,0.0,0.0,0.0,0.0,0.0,0.0,0.0,0.0,0.0,0.0,0.0,0.0,0.0,0.0,0.0,0.0,0.0,0.0,0.0,0.0,0.0,0.0,0.0,0.0,0.0,0.0,0.0,0.0,0.0,0.0,0.0,0.0,0.0,0.0,0.0,0.0,0.0,0.0,0.0,0.0,0.0,0.0,0.0,0.0,0.0,0.0,0.0,0.0,0.0,0.0,0.0,0.0,0.0,0.0,0.0,0.0,0.0,0.0,0.0,0.0,0.0,0.0,0.0,0.0,0.0,0.0,0.0,0.0,0.0,0.0,0.0,0.0,0.0,0.0,0.0,0.0,0.0,0.0,0.0,0.0,0.0,0.0,0.0,0.0,0.0,0.0,0.0,0.0,0.0,0.0,0.0,0.0,0.0,0.0,0.0,0.0,0.0,0.0,0.0,0.0,0.0,0.0,0.0,0.0,-3.0156,-3.3591,-3.234,-3.4424,-3.6726,-3.9239,-2.7482,-2.1719,-2.281,0.0,0.0,0.0,0.0,0.0,0.0,0.0,0.0,0.0,0.0,0.0,0.0,0.0,0.0,0.0,0.0,0.0,0.0,0.0,0.0,0.0,0.0,0.0,0.0,0.0,0.0,0.0,0.0,0.0,0.0,0.0,0.0,0.0,0.0,0.0,0.0,0.0,0.0,0.0,0.0,0.0,0.0,0.0,0.0,0.0,0.0,0.0,0.0,0.0,0.0,0.0,0.0,0.0,0.0,0.0,0.0,0.0,0.0,0.0,0.0,0.0,0.0,0.0,0.0,0.0,0.0,0.0,0.0,0.0,0.0,0.0,0.0,0.0,0.0,0.0,0.0,0.0,0.0,0.0,0.0,0.0,0.0,0.0,0.0,0.0,0.0,0.0,0.0,0.0,0.0,0.0,0.0,0.0,0.0,0.0,0.0,0.0,0.0,0.0,0.0,0.0,0.0,0.0,0.0,0.0,0.0,0.0,-3.8632,-4.3809,-4.7921,-4.5952,-3.8001,-3.2157,-2.4794,-1.5592,0.0,0.0,0.0,0.0,0.0,0.0,0.0,0.0,0.0,0.0,0.0,0.0,0.0,0.0,0.0,0.0,0.0,0.0,0.0,0.0,0.0,0.0,0.0,0.0,0.0,0.0,0.0,0.0,0.0,0.0,0.0,0.0,0.0,0.0,0.0,0.0,0.0,0.0,0.0,0.0,0.0,0.0,0.0,0.0,0.0,0.0,0.0,0.0,0.0,0.0,0.0,0.0,0.0,0.0,0.0,0.0,0.0,0.0,0.0,0.0,0.0,0.0,0.0,0.0,0.0,0.0,0.0,0.0,0.0,0.0,0.0,0.0,0.0,0.0,0.0,0.0,0.0,0.0,0.0,0.0,0.0,0.0,0.0,0.0,0.0,0.0,0.0,0.0,0.0,0.0,0.0,0.0,0.0,0.0,0.0,0.0,0.0,0.0,0.0,0.0,0.0,0.0,0.0,0.0,0.0,0.0,-3.4289,-4.1011,-4.7225,-5.0315,-4.9443,-4.4329,-3.4205,-2.6652,-2.2243,0.0,0.0,0.0,0.0,0.0,0.0,0.0,0.0,0.0,0.0,0.0,0.0,0.0,0.0,0.0,0.0,0.0,0.0,0.0,0.0,0.0,0.0,0.0,0.0,0.0,0.0,0.0,0.0,0.0,0.0,0.0,0.0,0.0,0.0,0.0,0.0,0.0,0.0,0.0,0.0,0.0,0.0,0.0,0.0,0.0,0.0,0.0,0.0,0.0,0.0,0.0,0.0,0.0,0.0,0.0,0.0,0.0,0.0,0.0,0.0,0.0,0.0,0.0,0.0,0.0,0.0,0.0,0.0,0.0,0.0,0.0,0.0,0.0,0.0,0.0,0.0,0.0,0.0,0.0,0.0,0.0,0.0,0.0,0.0,0.0,0.0,0.0,0.0,0.0,0.0,0.0,0.0,0.0,0.0,0.0,0.0,0.0,0.0,0.0,0.0,0.0,0.0,0.0,0.0,0.0,0.0,-3.706,-4.39,-5.0312,-5.2516,-5.1636,-4.7526,-3.7606,-2.955,-2.3983,0.0,0.0,0.0,0.0,0.0,0.0,0.0,0.0,0.0,0.0,0.0,0.0,0.0,0.0,0.0,0.0,0.0,0.0,0.0,0.0,0.0,0.0,0.0,0.0,0.0,0.0,0.0,0.0,0.0,0.0,0.0,0.0,0.0,0.0,0.0,0.0,0.0,0.0,0.0,0.0,0.0,0.0,0.0,0.0,0.0,0.0,0.0,0.0,-0.6179,0.0,0.0,0.0,0.0,0.0,0.0,0.0,0.0,0.0,0.0,0.0,0.0,0.0,0.0,0.0,0.0,0.0,0.0,0.0,0.0,0.0,0.0,0.0,0.0,0.0,0.0,0.0,0.0,0.0,0.0,0.0,0.0,0.0,0.0,0.0,0.0,0.0,0.0,0.0,0.0,0.0,0.0,0.0,0.0,0.0,0.0,0.0,0.0,0.0,0.0,0.0,0.0,0.0,0.0,0.0,-2.7143,-3.3124,-4.0419,-4.7025,-5.2694,-5.4436,-5.3,-4.826,-4.1154,-3.2689,-2.3079,0.0,0.0,0.0,0.0,0.0,0.0,0.0,0.0,0.0,0.0,0.0,0.0,0.0,0.0,0.0,0.0,0.0,0.0,0.0,0.0,0.0,0.0,0.0,0.0,0.0,0.0,0.0,0.0,0.0,0.0,0.0,0.0,0.0,0.0,0.0,0.0,0.0,0.0,0.0,0.0,0.0,0.0,0.0,0.0,0.0,0.0,0.0,-0.4557,-0.6833,0.0,0.0,0.0,0.0,0.0,0.0,0.0,0.0,0.0,0.0,0.0,0.0,0.0,0.0,0.0,0.0,0.0,0.0,0.0,0.0,0.0,0.0,0.0,0.0,0.0,0.0,0.0,-2.4896,0.0,-2.4901,0.0,0.0,0.0,0.0,0.0,0.0,0.0,0.0,0.0,0.0,0.0,0.0,0.0,0.0,0.0,0.0,0.0,0.0,0.0,0.0,0.0,0.0,0.0,0.0,-2.3431,-2.9195,-3.8867,-4.4842,-4.9645,-5.359,-5.5351,-5.368,-4.8457,-4.0877,-3.2804,-2.4288,0.0,0.0,0.0,0.0,0.0,0.0,0.0,0.0,0.0,0.0,0.0,0.0,0.0,0.0,0.0,0.0,0.0,0.0,0.0,0.0,0.0,0.0,0.0,0.0,0.0,0.0,0.0,0.0,0.0,0.0,0.0,0.0,0.0,0.0,0.0,0.0,0.0,0.0,0.0,0.0,0.0,0.0,0.0,0.0,0.0,0.0,0.0,-1.9942,0.0,0.0,0.0,0.0,0.0,0.0,0.0,0.0,0.0,0.0,0.0,0.0,0.0,0.0,0.0,0.0,0.0,0.0,0.0,0.0,0.0,0.0,0.0,0.0,0.0,0.0,0.0,0.0,-2.5221,-2.5154,-2.522,0.0,0.0,0.0,0.0,0.0,0.0,0.0,0.0,0.0,0.0,0.0,0.0,0.0,0.0,0.0,0.0,0.0,0.0,0.0,0.0,0.0,0.0,0.0,-2.0321,-2.3747,-2.9765,-3.8473,-4.5781,-5.0896,-5.3899,-5.5273,-5.3736,-4.9113,-4.1619,-3.3525,-2.4961,0.0,0.0,0.0,0.0,0.0,0.0,0.0,0.0,0.0,0.0,0.0,0.0,0.0,0.0,0.0,0.0,0.0,0.0,0.0,0.0,0.0,0.0,0.0,0.0,0.0,0.0,0.0,0.0,0.0,0.0,0.0,0.0,0.0,0.0,0.0,0.0,0.0,-0.7017,-0.7576,0.0,0.0,0.0,0.0,0.0,0.0,0.0,0.0,-1.9233,-1.6135,0.0,0.0,0.0,0.0,0.0,0.0,0.0,0.0,0.0,0.0,0.0,0.0,0.0,0.0,0.0,0.0,0.0,0.0,0.0,0.0,0.0,0.0,0.0,0.0,0.0,0.0,0.0,-2.5298,-2.5285,-2.5465,0.0,0.0,0.0,0.0,0.0,0.0,0.0,0.0,0.0,0.0,0.0,0.0,0.0,0.0,0.0,0.0,0.0,0.0,0.0,0.0,0.0,0.0,0.0,-1.8703,-2.3484,-2.9634,-3.7103,-4.5195,-5.0858,-5.3861,-5.4726,-5.3313,-4.9555,-4.2604,-3.4427,-2.5169,0.0,0.0,0.0,0.0,0.0,0.0,0.0,0.0,0.0,0.0,0.0,0.0,0.0,0.0,0.0,0.0,0.0,0.0,0.0,0.0,0.0,0.0,0.0,0.0,0.0,0.0,0.0,0.0,0.0,0.0,0.0,0.0,0.0,0.0,0.0,0.0,0.0,-0.9627,-1.1767,-1.4651,-1.5893,0.0,0.0,0.0,0.0,0.0,0.0,0.0,-1.3681,-1.2691,-1.3436,0.0,0.0,0.0,0.0,0.0,0.0,0.0,0.0,0.0,0.0,0.0,0.0,0.0,0.0,0.0,0.0,0.0,0.0,0.0,0.0,0.0,0.0,0.0,0.0,0.0,-2.5683,-2.5741,-2.6381,0.0,0.0,0.0,0.0,0.0,0.0,0.0,0.0,0.0,0.0,0.0,0.0,0.0,0.0,0.0,0.0,0.0,0.0,0.0,0.0,0.0,0.0,0.0,0.0,-2.2723,-2.908,-4.2217,-4.4685,-4.8476,-5.386,-5.4134,-5.2148,-4.7859,-4.2758,-3.4961,-2.4527,-2.0372,0.0,0.0,0.0,0.0,0.0,0.0,0.0,0.0,0.0,0.0,0.0,0.0,0.0,0.0,0.0,0.0,0.0,0.0,0.0,0.0,0.0,0.0,0.0,0.0,0.0,0.0,0.0,0.0,0.0,0.0,0.0,0.0,0.0,0.0,0.0,0.0,-1.2547,-1.7827,-2.3189,-2.5739,-2.3506,0.0,0.0,0.0,0.0,0.0,-2.5447,-1.9339,-1.4977,-1.9926,-1.2768,0.0,0.0,0.0,0.0,0.0,0.0,0.0,0.0,0.0,0.0,0.0,0.0,0.0,0.0,0.0,0.0,0.0,0.0,0.0,0.0,0.0,0.0,0.0,0.0,-2.5797,-2.5858,-2.6646,-2.6651,-2.7099,0.0,0.0,0.0,0.0,-2.3466,0.0,0.0,0.0,0.0,0.0,0.0,0.0,0.0,0.0,0.0,0.0,0.0,0.0,0.0,0.0,0.0,0.0,-2.3156,-2.9759,-3.9319,-4.4444,-4.8828,-5.2493,-5.3117,-5.1678,-4.8116,-4.0676,-3.3001,-2.5317,0.0,0.0,0.0,0.0,0.0,0.0,0.0,0.0,0.0,0.0,0.0,0.0,0.0,0.0,0.0,0.0,0.0,0.0,0.0,0.0,0.0,0.0,0.0,0.0,0.0,0.0,0.0,0.0,0.0,0.0,0.0,0.0,0.0,0.0,0.0,0.0,0.0,0.0,-2.1916,-2.8211,-3.2227,-3.2251,-2.5876,-1.9672,-1.5822,-1.577,-1.8913,-2.6995,-2.2647,-1.9274,-2.2262,0.0,0.0,0.0,0.0,0.0,0.0,0.0,0.0,0.0,0.0,0.0,0.0,0.0,0.0,0.0,0.0,0.0,0.0,0.0,0.0,0.0,0.0,0.0,0.0,0.0,0.0,-2.6275,-2.7189,-2.7223,-2.7605,-2.8102,0.0,0.0,0.0,-2.3391,-2.2156,0.0,0.0,0.0,0.0,0.0,0.0,0.0,0.0,0.0,0.0,0.0,0.0,0.0,0.0,0.0,0.0,-2.3083,-2.9655,-3.591,-4.3538,-4.8787,-5.1282,-5.21,-5.1206,-4.8476,-3.9794,-3.2252,-2.6206,0.0,0.0,0.0,0.0,0.0,0.0,0.0,0.0,0.0,0.0,0.0,0.0,0.0,0.0,0.0,0.0,0.0,0.0,0.0,0.0,0.0,0.0,0.0,0.0,0.0,0.0,0.0,0.0,0.0,0.0,0.0,0.0,0.0,0.0,0.0,0.0,0.0,0.0,0.0,-3.1276,-3.6188,-3.6689,-3.1099,-2.6296,-2.475,-2.3809,-2.4546,-2.8151,-2.6708,-2.4889,0.0,0.0,0.0,0.0,0.0,0.0,0.0,0.0,0.0,0.0,0.0,0.0,0.0,0.0,0.0,0.0,0.0,0.0,0.0,0.0,0.0,0.0,-2.9238,-2.7498,0.0,0.0,-2.702,-2.7493,-2.8926,-2.8977,-2.9032,-2.9018,-2.8299,-2.697,0.0,-2.3748,-2.2572,-2.1483,0.0,0.0,0.0,0.0,0.0,0.0,0.0,0.0,0.0,0.0,0.0,0.0,0.0,0.0,0.0,0.0,-2.6718,-3.5671,-4.0681,-4.5817,-5.1087,-5.1511,-5.0298,-4.768,-4.3354,-3.6053,-2.5661,0.0,0.0,0.0,0.0,0.0,0.0,0.0,0.0,0.0,0.0,0.0,0.0,0.0,0.0,0.0,0.0,0.0,0.0,0.0,0.0,0.0,0.0,0.0,0.0,0.0,-0.5079,0.0,0.0,0.0,0.0,0.0,0.0,0.0,0.0,0.0,0.0,0.0,0.0,0.0,0.0,-3.6834,-3.184,-3.2298,-3.2646,-3.1251,-3.0583,-3.177,-3.5936,-3.4571,-3.194,0.0,0.0,0.0,0.0,0.0,0.0,0.0,0.0,0.0,0.0,0.0,0.0,0.0,0.0,0.0,0.0,0.0,0.0,0.0,0.0,0.0,0.0,-3.0739,-2.8586,-2.8086,-2.8713,-2.7899,-2.8205,-2.9287,-2.9313,-2.9313,-2.9287,-2.8488,-2.6883,-2.4799,-2.3618,-2.2085,-2.0337,0.0,0.0,0.0,0.0,0.0,0.0,0.0,0.0,0.0,0.0,0.0,0.0,-1.0417,-1.1595,-1.4824,-2.1204,-2.8231,-3.5874,-4.2135,-4.7304,-5.12,-5.1382,-5.0592,-4.899,-4.2849,-3.5611,0.0,0.0,0.0,0.0,0.0,0.0,0.0,0.0,0.0,0.0,0.0,0.0,0.0,0.0,0.0,0.0,0.0,0.0,0.0,0.0,0.0,0.0,0.0,0.0,0.0,-0.6856,-0.7495,-0.921,0.0,0.0,0.0,0.0,0.0,0.0,0.0,0.0,0.0,0.0,0.0,0.0,0.0,-3.8856,-3.8845,-3.9023,-3.8892,-3.8262,-3.6849,-3.6627,-3.9015,-3.7692,-3.477,0.0,0.0,0.0,0.0,0.0,0.0,0.0,0.0,0.0,0.0,0.0,0.0,0.0,0.0,0.0,0.0,0.0,0.0,-3.6718,-3.5437,-3.3501,-3.2359,-3.1599,-2.9687,-2.9208,-2.9649,-2.8802,-2.8903,-2.9652,-2.9419,-2.9241,-2.8957,-2.7971,-2.6173,-2.4027,-2.3171,-2.1592,-1.9647,-1.9726,0.0,0.0,0.0,0.0,0.0,0.0,0.0,0.0,0.0,0.0,-0.9729,-0.936,-1.0717,-1.4196,-2.2716,-3.0172,-3.6001,-4.4058,-4.9257,-5.1312,-5.1327,-5.0915,-4.997,-4.3324,-3.652,0.0,0.0,0.0,0.0,0.0,0.0,0.0,0.0,0.0,0.0,0.0,0.0,0.0,0.0,0.0,0.0,0.0,0.0,0.0,0.0,0.0,0.0,0.0,-0.88,-0.9172,-0.9214,-0.9901,-1.1597,-1.26,0.0,-1.2111,0.0,0.0,0.0,0.0,0.0,0.0,0.0,0.0,0.0,0.0,-4.0718,-4.3684,-4.3943,-4.3723,-4.3455,-4.155,-4.0436,-4.1591,-4.0377,-3.7207,0.0,0.0,0.0,0.0,0.0,0.0,0.0,0.0,0.0,0.0,0.0,0.0,0.0,0.0,0.0,0.0,0.0,0.0,-3.6893,-3.4849,-3.451,-3.3044,-3.1068,-3.0698,-3.0663,-3.0642,-2.9725,-2.9817,-3.0467,-2.9776,-2.8971,-2.8084,-2.657,-2.4857,-2.3174,-2.2296,-2.1367,-2.0464,-2.1228,0.0,0.0,0.0,0.0,0.0,0.0,0.0,0.0,0.0,0.0,-0.9551,-0.8897,-1.0313,-1.3869,-2.3856,-3.1322,-3.6123,-4.5195,-5.0385,-5.1351,-5.135,-5.0871,-5.0014,-4.7072,-4.1303,0.0,0.0,0.0,0.0,0.0,0.0,0.0,0.0,0.0,0.0,0.0,0.0,0.0,0.0,0.0,0.0,0.0,0.0,0.0,0.0,0.0,0.0,0.0,0.0,-1.1119,-1.0597,-1.1038,-1.3245,-1.4328,-1.5411,-1.6675,0.0,0.0,0.0,0.0,0.0,0.0,0.0,0.0,0.0,0.0,-4.1776,-4.0469,-4.3774,-4.6117,-4.541,-4.3809,-4.3262,-4.4996,-4.3835,-4.0499,-3.3919,-3.196,-3.0085,0.0,0.0,0.0,0.0,0.0,0.0,0.0,0.0,0.0,0.0,0.0,0.0,0.0,0.0,0.0,-3.8801,-3.6844,-3.5181,-3.3999,-3.3178,-3.3156,-3.2841,-3.2418,-3.2566,-3.2225,-3.1426,-3.0561,-2.9124,-2.7344,-2.6149,-2.4379,-2.2334,-2.1953,-2.1321,-2.0828,-2.5184,0.0,0.0,0.0,0.0,0.0,0.0,0.0,0.0,0.0,0.0,-0.8459,-0.9031,-1.0914,-1.4251,-2.4127,-3.2031,-3.7537,-4.5761,-5.0735,-5.2035,-5.1569,-5.1066,-5.0758,-4.8725,-4.3997,-3.6294,0.0,0.0,0.0,0.0,0.0,0.0,0.0,0.0,0.0,0.0,0.0,0.0,0.0,0.0,0.0,0.0,0.0,0.0,0.0,0.0,0.0,0.0,0.0,0.0,-1.2299,-1.3371,-1.5761,-1.6822,-1.7546,-1.7987,-1.6498,0.0,0.0,0.0,0.0,0.0,0.0,0.0,-3.3162,0.0,-4.4597,-4.5969,-4.7121,-4.7667,-4.7165,-4.68,-4.632,-4.5701,-4.4611,-4.2071,-3.6954,-3.5856,-3.4679,-3.1807,0.0,0.0,0.0,0.0,0.0,0.0,0.0,0.0,0.0,0.0,0.0,0.0,0.0,0.0,-4.0621,-3.827,-3.6405,-3.5705,-3.5752,-3.5997,-3.5935,-3.5701,-3.6054,-3.5076,-3.3096,-3.1726,-2.97,-2.7284,-2.5882,-2.4251,-2.2656,-2.2842,-2.3868,-2.6121,-3.2495,-3.6529,0.0,0.0,0.0,0.0,0.0,0.0,0.0,0.0,0.0,-0.924,-0.9923,-1.1977,-1.5451,-2.5389,-3.3186,-3.8486,-4.6568,-5.1222,-5.2216,-5.152,-5.1176,-5.1146,-4.9748,-4.6079,-3.9963,0.0,0.0,0.0,0.0,-0.6184,0.0,0.0,0.0,0.0,0.0,0.0,0.0,0.0,0.0,0.0,0.0,0.0,0.0,0.0,0.0,0.0,0.0,0.0,0.0,0.0,-1.5088,-1.7255,-1.8498,-1.8982,-1.8574,-1.7293,-1.686,-1.7928,0.0,0.0,0.0,0.0,0.0,0.0,-4.3855,-4.7727,-4.9858,-4.956,-4.8859,-4.8084,-4.844,-4.825,-4.6651,-4.565,-4.3803,-4.0167,-4.0205,-4.0205,-3.8656,-3.806,-3.5789,-2.9735,-2.8173,-2.7147,-2.4967,0.0,0.0,0.0,0.0,0.0,0.0,0.0,0.0,-4.235,-3.8853,-3.8464,-3.8451,-3.8723,-3.9374,-4.024,-4.1028,-4.0258,-3.8551,-3.5703,-3.3359,-3.082,-2.8086,-2.5702,-2.4643,-2.4511,-2.5192,-2.9588,-3.6927,-4.3816,-4.6566,-4.6091,-4.7652,-4.6618,-4.1938,-3.15,-2.4686,-2.1679,-1.7377,-1.4786,-1.2673,-1.1795,-1.3659,-1.812,-2.8064,-3.4999,-3.8605,-4.7681,-5.2035,-5.139,-5.1254,-5.1159,-5.108,-5.0248,-4.7714,-4.3214,0.0,0.0,0.0,0.0,-1.4196,0.0,0.0,0.0,0.0,0.0,0.0,0.0,0.0,0.0,0.0,0.0,0.0,0.0,0.0,0.0,0.0,0.0,0.0,0.0,0.0,-1.5846,-1.7436,-1.8946,-1.9492,-1.8709,-1.9399,-2.0543,0.0,0.0,0.0,0.0,0.0,-4.0809,-4.4406,-4.859,-5.1002,-5.0374,-5.034,-4.9717,-4.799,-4.8475,-4.8845,-4.8232,-4.7452,-4.6004,-4.354,-4.5138,0.0,0.0,0.0,0.0,0.0,0.0,0.0,0.0,0.0,0.0,0.0,0.0,0.0,0.0,0.0,0.0,-4.8277,-4.4326,-4.3122,-4.3632,-4.5079,-4.4928,-4.6255,-4.8522,-4.8404,-4.5889,-4.1843,-3.9821,-3.5922,-3.077,-2.8684,-2.7768,-2.8022,-3.0912,-3.6479,-4.3875,-4.9176,-5.2385,-5.383,-5.6108,-5.5429,-5.168,-4.5075,-3.75,-2.9692,-2.7368,-2.3512,-1.8359,-1.8125,-1.9607,-2.2285,-3.072,-3.7277,-4.1883,-4.8253,-5.168,-5.194,-5.1386,-5.1023,-5.0981,-5.0666,-4.8191,-4.3243,-3.7028,0.0,0.0,-2.3454,-1.9692,0.0,0.0,0.0,0.0,0.0,0.0,0.0,0.0,0.0,0.0,0.0,0.0,0.0,0.0,0.0,0.0,0.0,0.0,0.0,0.0,-1.8848,-1.9998,-1.9855,-1.9318,-1.838,-2.1092,-2.3943,-2.6153,-2.9964,-3.3138,-3.5378,-4.0599,-4.4995,-4.7213,-5.0634,-5.2309,-5.0538,-5.0344,-5.0486,-5.0961,-5.1469,-5.1327,-5.001,-4.964,-4.9024,-4.7689,-4.8191,-4.942,-5.1221,-4.969,-4.8712,-5.0259,-5.2001,-4.9928,-3.9538,-3.5644,-3.403,-3.4203,-3.3883,-3.3998,-3.5433,-3.6809,-3.7883,-5.3502,-4.9626,-4.8372,-4.9182,-5.1247,-5.1042,-5.2562,-5.5176,-5.4892,-5.2567,-4.8837,-4.6469,-4.2148,-3.6531,-3.4712,-3.4212,-3.5072,-4.0063,-4.5592,-5.1347,-5.6315,-5.9177,-6.0288,-6.2004,-6.1334,-5.8587,-5.6057,-5.0231,-4.1529,-3.6567,-3.1047,-2.5047,-2.4897,-2.5864,-2.7948,-3.4338,-3.9871,-4.4356,-4.9099,-5.1651,-5.1798,-5.1273,-5.0952,-5.0882,-5.0237,-4.8022,-4.3995,-4.0573,-3.7814,0.0,-2.9315,0.0,0.0,0.0,0.0,0.0,0.0,0.0,0.0,0.0,0.0,0.0,0.0,0.0,0.0,0.0,0.0,0.0,0.0,0.0,0.0,-1.974,-2.1249,-2.2054,-2.201,-2.1317,-2.0013,-2.452,-2.8646,-3.111,-3.7005,-4.1081,-4.1288,-4.6042,-4.9961,-5.1281,-5.3404,-5.3874,-5.1238,-5.055,-5.1097,-5.3427,-5.443,-5.4377,-5.2684,-5.2761,-5.261,-5.149,-5.1879,-5.2622,-5.3463,-5.3908,-5.4461,-5.5448,-5.7369,-5.5861,-4.6673,-4.3103,-4.1424,-4.1092,-4.0723,-4.078,-4.1763,-4.2811,-4.3587,-5.8303,-5.4325,-5.4218,-5.5106,-5.6756,-5.7573,-5.8937,-6.0617,-5.9699,-5.8298,-5.6217,-5.299,-4.908,-4.5035,-4.3048,-4.3233,-4.5491,-5.1839,-5.6272,-5.9163,-6.4782,-6.6811,-6.5265,-6.5343,-6.4519,-6.3001,-6.3581,-6.1318,-5.5997,-4.4798,-3.7163,-3.3534,-3.2094,-3.248,-3.4701,-3.9003,-4.2757,-4.6157,-5.027,-5.1949,-5.1062,-5.1016,-5.0959,-5.0841,-4.9101,-4.7337,-4.564,-4.3837,-4.0996,-3.6793,-3.354,0.0,0.0,0.0,0.0,0.0,0.0,0.0,0.0,0.0,0.0,0.0,0.0,0.0,0.0,0.0,0.0,0.0,0.0,0.0,-1.9356,-2.1211,-2.3012,-2.374,-2.5132,-2.5189,-2.3542,-2.9456,-3.4917,-3.7291,-4.359,-4.7696,-4.7023,-5.1724,-5.5551,-5.6345,-5.6855,-5.5861,-5.2372,-5.1111,-5.1694,-5.508,-5.7113,-5.772,-5.6165,-5.657,-5.6548,-5.4998,-5.6081,-5.6518,-5.4657,-5.7703,-5.9446,-5.7124,-5.7853,-5.8348,-5.6194,-5.3774,-5.2054,-5.0713,-4.898,-4.8388,-4.8785,-4.8628,-4.8873,-6.7444,-6.2886,-6.2251,-6.3313,-6.5211,-6.4379,-6.5659,-6.8345,-6.7541,-6.4824,-6.0861,-5.923,-5.5435,-5.0365,-4.9019,-5.0403,-5.3886,-5.7079,-6.0536,-6.4227,-6.6614,-6.7462,-6.7013,-6.7741,-6.7165,-6.5531,-6.5115,-6.3908,-6.1717,-5.6558,-4.9124,-3.989,-4.0431,-4.0264,-3.963,-4.3402,-4.6615,-4.876,-5.1178,-5.1955,-5.1023,-5.0975,-5.085,-5.0747,-4.9026,-4.7846,-4.729,-4.563,-4.3561,-4.1055,-3.9001,0.0,-2.9232,0.0,0.0,0.0,0.0,-0.6136,-0.3769,-0.425,0.0,0.0,0.0,-1.2667,0.0,0.0,0.0,0.0,-2.0467,-2.2344,-2.4739,-2.5074,-2.5256,-2.5743,-2.6775,-2.5672,-2.1485,-3.3101,-4.4253,-5.1013,-5.2068,-5.2664,-5.374,-5.5797,-5.6765,-5.569,-5.7794,-5.7286,-5.1459,-5.2514,-5.479,-5.7152,-5.9018,-5.9595,-5.7898,-5.6955,-5.6446,-5.648,-5.6869,-5.6965,-5.6367,-5.7764,-5.8603,-5.7401,-5.7467,-5.7373,-5.6612,-5.4968,-5.3474,-5.2721,-5.2,-5.1716,-5.2247,-5.2356,-5.2369,-7.3555,-7.0505,-6.8631,-6.8914,-7.0425,-6.9157,-6.9964,-7.2178,-7.0997,-6.8896,-6.6257,-6.4984,-6.2041,-5.7923,-5.6689,-5.7707,-6.0485,-6.2498,-6.4986,-6.7832,-6.844,-6.8709,-6.8718,-6.9048,-6.8488,-6.7126,-6.6231,-6.5375,-6.4558,-6.264,-5.7211,-4.8549,-4.7981,-4.7087,-4.5634,-4.7777,-4.9709,-5.1363,-5.2388,-5.2628,-5.2031,-5.161,-5.1301,-5.1163,-4.8893,-4.7625,-4.752,-4.5534,-4.3886,-4.2824,-4.1577,-3.8473,0.0,-2.7723,-2.2274,-1.6857,-1.2865,-0.9323,-0.6379,-0.6423,0.0,0.0,-1.7046,-1.941,-1.7609,0.0,0.0,-2.4689,-2.585,-2.8205,-3.1264,-3.1979,-3.2466,-3.2931,-3.2852,-3.1675,-2.9183,-3.9537,-4.9974,-5.8016,-5.7276,-5.6486,-5.7646,-5.8258,-5.8285,-5.7376,-5.8522,-5.7987,-5.4104,-5.5861,-5.7798,-5.8481,-5.9937,-6.0475,-5.9034,-5.8124,-5.7512,-5.7207,-5.6811,-5.6596,-5.6596,-5.6977,-5.7232,-5.7167,-5.6702,-5.6409,-5.6836,-5.6035,-5.5249,-5.505,-5.4968,-5.4986,-5.5219,-5.473,-5.4372,-7.6987,-7.6644,-7.3458,-7.2588,-7.3204,-7.2425,-7.2523,-7.3049,-7.1425,-7.106,-7.1471,-6.9841,-6.8247,-6.6687,-6.5125,-6.4787,-6.5635,-6.7958,-6.9371,-7.0114,-7.0254,-7.0263,-7.0195,-6.9578,-6.8832,-6.7976,-6.712,-6.627,-6.5492,-6.4531,-6.2027,-5.8023,-5.4783,-5.3013,-5.2601,-5.194,-5.2368,-5.3889,-5.385,-5.3741,-5.3596,-5.2709,-5.2138,-5.1876,-4.8671,-4.6835,-4.6642,-4.4113,-4.2689,-4.269,-4.1981,-3.9797,-3.5843,-3.087,-2.5618,-2.0241,-1.6541,-1.2776,-0.9106,-0.9394,-1.1718,-1.5605,-2.1374,-2.4794,-2.4468,-3.0452,-3.3367,-3.1079,-3.3019,-3.545,-3.798,-4.0376,-4.2097,-4.243,-4.1601,-4.1521,-4.3243,-4.7732,-5.32,-5.9677,-5.9703,-5.923,-5.9293,-5.9403,-5.9734,-6.0431,-5.9038,-5.8182,-5.8668,-5.9751,-6.0373,-5.9096,-5.9953,-6.0426,-5.9507,-5.9271,-5.8703,-5.7226,-5.6367,-5.5864,-5.5825,-5.5784,-5.6003,-5.6406,-5.5649,-5.5223,-5.6601,-5.6777,-5.7285,-5.7131,-5.7432,-5.763,-5.7345,-5.6163,-5.5342,-7.6989,-7.6905,-7.6097,-7.582,-7.596,-7.5765,-7.5033,-7.4028,-7.3511,-7.2329,-7.0696,-7.0213,-6.9735,-6.9282,-6.8876,-6.9138,-7.0002,-7.0583,-7.0961,-7.1145,-7.1251,-7.0929,-7.0279,-7.0145,-6.966,-6.8871,-6.7956,-6.7418,-6.7204,-6.569,-6.4039,-6.2331,-6.0318,-5.7644,-5.4466,-5.4802,-5.5281,-5.567,-5.5009,-5.4317,-5.3635,-5.3366,-5.257,-5.1175,-4.8411,-4.6309,-4.5029,-4.2441,-4.128,-4.1837,-4.1703,-4.0825,-3.9097,-3.4243,-3.0836,-2.9361,-2.37,-2.012,-1.9554,-2.1092,-2.1742,-2.0989,-3.1185,-3.4814,-2.8534,-3.5172,-3.8665,-3.6373,-3.7745,-3.9821,-4.2326,-4.3149,-4.3797,-4.4467,-4.7251,-4.9983,-5.2081,-5.4956,-5.7313,-5.8584,-5.9125,-5.9355,-5.9453,-5.95,-5.9588,-5.9792,-5.9292,-5.8735,-5.8385,-5.9737,-6.0265,-5.8897,-5.877,-5.8886,-5.868,-5.815,-5.7408,-5.6318,-5.592,-5.5735,-5.5735,-5.5714,-5.5533,-5.4966,-5.4052,-5.3582,-5.3886,-5.4766,-5.5631,-5.5912,-5.6552,-5.7359,-5.805,-5.7,-5.5961,-7.7355,-7.7004,-7.6989,-7.6993,-7.6943,-7.6514,-7.5807,-7.4852,-7.4428,-7.3239,-7.1575,-7.1473,-7.1607,-7.1891,-7.1949,-7.1979,-7.2085,-7.2463,-7.2425,-7.2076,-7.2123,-7.1879,-7.1422,-7.1117,-7.054,-6.9706,-6.885,-6.8235,-6.782,-6.6468,-6.532,-6.4427,-6.3495,-6.1469,-5.8381,-5.7702,-5.7224,-5.6874,-5.6019,-5.5281,-5.473,-5.435,-5.3499,-5.2003,-4.9473,-4.7463,-4.6182,-4.3973,-4.2574,-4.2218,-4.2535,-4.2126,-4.0692,-3.7308,-3.5502,-3.579,-3.1689,-2.9084,-2.8755,-3.3231,-3.5391,-3.3931,-3.8387,-3.9882,-3.7051,-4.1014,-4.3309,-4.1972,-4.3673,-4.5947,-4.8447,-4.9346,-5.0068,-5.0815,-5.311,-5.5135,-5.6396,-5.7131,-5.7467,-5.7243,-5.8209,-5.9077,-5.9469,-5.8897,-5.862,-5.9016,-5.8297,-5.7824,-5.7912,-5.8406,-5.8479,-5.8114,-5.7592,-5.7418,-5.7795,-5.7099,-5.6365,-5.5871,-5.5724,-5.5703,-5.5703,-5.5703,-5.5412,-5.4506,-5.3606,-5.31,-5.3427,-5.4384,-5.5364,-5.5861,-5.6134,-5.6686,-5.7641,-5.6966,-5.6126,-7.7711,-7.7014,-7.7009,-7.6994,-7.6927,-7.6187,-7.5774,-7.5541,-7.4806,-7.3992,-7.3169,-7.309,-7.3497,-7.417,-7.4004,-7.3616,-7.3045,-7.3569,-7.3491,-7.2841,-7.2801,-7.2819,-7.278,-7.2041,-7.1272,-7.054,-6.9628,-6.8793,-6.8021,-6.7019,-6.6027,-6.5133,-6.5131,-6.4261,-6.2508,-6.0374,-5.8817,-5.7774,-5.6913,-5.64,-5.6296,-5.5505,-5.4498,-5.3224,-5.0897,-4.908,-4.7983,-4.6407,-4.4853,-4.3393,-4.4095,-4.3762,-4.2051,-4.0418,-3.9882,-4.0528,-3.9423,-3.8082,-3.7018,-4.3943,-4.8544,-4.8501,-4.4815,-4.3346,-4.5885,-4.721,-4.7847,-4.7549,-4.9787,-5.2151,-5.4359,-5.5915,-5.7172,-5.7952,-5.8055,-5.7913,-5.7647,-5.6709,-5.6088,-5.5995,-5.7275,-5.8494,-5.9226,-5.8104,-5.7526,-5.8191,-5.7129,-5.65,-5.71,-5.6693,-5.6441,-5.7052,-5.6402,-5.6191,-5.6792,-5.6358,-5.5855,-5.5766,-5.5728,-5.5745,-5.5735,-5.5724,-5.5423,-5.4562,-5.3738,-5.3409,-5.3943,-5.4733,-5.5523,-5.6113,-5.5927,-5.6038,-5.6809,-5.6531,-5.6051,-7.7203,-7.7098,-7.7047,-7.6985,-7.6999,-7.6843,-7.6304,-7.5586,-7.5436,-7.4833,-7.3984,-7.3967,-7.4403,-7.5081,-7.3734,-7.3424,-7.3884,-7.3337,-7.304,-7.2893,-7.2863,-7.2863,-7.2824,-7.2033,-7.1568,-7.1354,-6.9894,-6.9059,-6.8915,-6.7372,-6.6111,-6.518,-6.5204,-6.4334,-6.2634,-6.2175,-6.0837,-5.8661,-5.7768,-5.732,-5.7194,-5.6388,-5.4839,-5.2578,-5.0619,-4.8539,-4.6406,-4.5295,-4.4893,-4.5167,-4.5914,-4.6062,-4.5534,-4.4554,-4.4015,-4.4119,-4.3965,-4.3741,-4.3608,-4.7636,-5.1944,-5.5991,-5.3581,-5.102,-4.9131,-5.2068,-5.3482,-5.2092,-5.3622,-5.4902,-5.5319,-5.6257,-5.7196,-5.7838,-5.8348,-5.7978,-5.6383,-5.6746,-5.6908,-5.6111,-5.6839,-5.7699,-5.8431,-5.7795,-5.7496,-5.8181,-5.7033,-5.6152,-5.6295,-5.6158,-5.5578,-5.4564,-5.4735,-5.5299,-5.6009,-5.6066,-5.5959,-5.5959,-5.5959,-5.5923,-5.5856,-5.5766,-5.5444,-5.4615,-5.3769,-5.328,-5.343,-5.4062,-5.4792,-5.4906,-5.5399,-5.6025,-5.6813,-5.6365,-5.5856,-7.7454,-7.711,-7.7063,-7.7047,-7.6985,-7.6985,-7.6731,-7.6259,-7.6242,-7.5991,-7.551,-7.5082,-7.5129,-7.5502,-7.4196,-7.3612,-7.3596,-7.3146,-7.2928,-7.2951,-7.2951,-7.2935,-7.288,-7.2049,-7.142,-7.1029,-6.9759,-6.8962,-6.8514,-6.7217,-6.632,-6.5848,-6.5809,-6.4931,-6.3262,-6.2446,-6.1186,-5.9477,-5.824,-5.7567,-5.7469,-5.6682,-5.5358,-5.3638,-5.267,-5.1385,-4.9684,-4.9142,-4.866,-4.8227,-4.8472,-4.8726,-4.8972,-4.851,-4.9172,-5.1179,-5.1467,-5.1725,-5.2061,-5.3535,-5.5679,-5.8526,-5.7279,-5.5304,-5.2801,-5.4534,-5.5378,-5.4479,-5.5192,-5.5846,-5.6286,-5.7021,-5.7769,-5.8387,-5.9192,-5.9217,-5.8232,-5.8042,-5.7523,-5.6313,-5.639,-5.7089,-5.8219,-5.7313,-5.7159,-5.8104,-5.7024,-5.6007,-5.6037,-5.6029,-5.5401,-5.3902,-5.4684,-5.5559,-5.5904,-5.602,-5.6029,-5.6012,-5.6003,-5.5977,-5.5913,-5.5797,-5.5455,-5.4736,-5.4515,-5.4438,-5.4063,-5.4572,-5.515,-5.5229,-5.5557,-5.5933,-5.6403,-5.6154,-5.5865,-7.7738,-7.7078,-7.7078,-7.7067,-7.7012,-7.7012,-7.6999,-7.7009,-7.6942,-7.689,-7.6862,-7.6154,-7.5733,-7.5539,-7.4676,-7.3826,-7.3048,-7.3002,-7.2988,-7.2998,-7.2998,-7.2975,-7.2904,-7.2081,-7.1248,-7.0399,-6.9597,-6.8753,-6.7872,-6.6983,-6.6521,-6.6477,-6.629,-6.5334,-6.3697,-6.2175,-6.107,-6.0293,-5.8668,-5.7768,-5.769,-5.6742,-5.5807,-5.4907,-5.4839,-5.4404,-5.3536,-5.3726,-5.3145,-5.1732,-5.1767,-5.2039,-5.2398,-5.2501,-5.4089,-5.7399,-5.8054,-5.8515,-5.9163,-5.8934,-5.8897,-5.9216,-5.8665,-5.7643,-5.606,-5.5934,-5.5857,-5.5703,-5.5829,-5.6225,-5.6945,-5.7912,-5.8608,-5.9019,-6.002,-6.0623,-6.0431,-5.9426,-5.8001,-5.6433,-5.6101,-5.6639,-5.7892,-5.6937,-5.6531,-5.7622,-5.6879,-5.6025,-5.604,-5.5846,-5.5343,-5.4566,-5.5147,-5.5901,-5.611,-5.6149,-5.6094,-5.6078,-5.6062,-5.6037,-5.5938,-5.5837,-5.5518,-5.5017,-5.5461,-5.5499,-5.5036,-5.5383,-5.5885,-5.5933,-5.5943,-5.5933,-5.5924,-5.5914,-5.5905,-7.7238,-7.7098,-7.7098,-7.7089,-7.711,-7.711,-7.7059,-7.6995,-7.6909,-7.689,-7.6894,-7.6777,-7.6331,-7.5534,-7.469,-7.384,-7.3088,-7.3016,-7.3002,-7.2995,-7.2995,-7.2988,-7.2949,-7.2093,-7.1258,-7.0466,-6.9583,-6.8766,-6.787,-6.6983,-6.6601,-6.6482,-6.5778,-6.4512,-6.292,-6.1878,-6.1335,-6.1186,-5.9516,-5.8622,-5.8583,-5.7101,-5.5824,-5.4946,-5.4893,-5.4429,-5.3583,-5.4886,-5.5489,-5.5229,-5.6438,-5.6794,-5.6039,-5.6562,-5.7262,-5.7862,-5.8616,-5.946,-6.0438,-6.0473,-6.0177,-5.9484,-5.8753,-5.7868,-5.6907,-5.683,-5.6522,-5.5829,-5.641,-5.6922,-5.711,-5.8494,-5.9325,-5.9303,-6.0239,-6.0927,-6.0923,-5.9598,-5.8025,-5.6389,-5.6133,-5.6416,-5.713,-5.6532,-5.6281,-5.6995,-5.6607,-5.5995,-5.5986,-5.5341,-5.5176,-5.5566,-5.5397,-5.5461,-5.6029,-5.6251,-5.6251,-5.6265,-5.6251,-5.6185,-5.6079,-5.6086,-5.596,-5.5739,-5.5834,-5.5843,-5.5662,-5.5843,-5.5995,-5.6059,-5.6076,-5.6068,-5.5995,-5.5998,-5.5991,-7.7107,-7.7073,-7.7104,-7.7095,-7.705,-7.661,-7.6092,-7.5651,-7.5606,-7.6153,-7.6942,-7.6962,-7.6222,-7.4949,-7.4527,-7.3637,-7.2446,-7.2407,-7.2396,-7.2384,-7.1917,-7.1671,-7.1581,-7.0775,-6.9963,-6.9145,-6.8772,-6.8054,-6.7196,-6.6322,-6.5894,-6.5761,-6.4496,-6.3478,-6.2701,-6.184,-6.1412,-6.1373,-6.0137,-5.9283,-5.8817,-5.7573,-5.6491,-5.5567,-5.5559,-5.556,-5.5548,-5.625,-5.685,-5.7245,-5.7819,-5.8141,-5.8119,-5.8398,-5.8806,-5.9344,-5.9715,-6.0188,-6.0731,-6.0781,-6.0242,-5.8973,-5.8511,-5.7934,-5.706,-5.656,-5.634,-5.6449,-5.6886,-5.7302,-5.7775,-5.8973,-5.961,-5.9271,-6.0324,-6.1021,-6.0877,-5.9387,-5.7738,-5.649,-5.6164,-5.6411,-5.712,-5.6463,-5.6298,-5.6982,-5.6571,-5.6141,-5.618,-5.5804,-5.5612,-5.6136,-5.5929,-5.5845,-5.6194,-5.6278,-5.6291,-5.6291,-5.6291,-5.6272,-5.6185,-5.6223,-5.6194,-5.6046,-5.602,-5.5995,-5.5968,-5.6012,-5.6054,-5.607,-5.6141,-5.6133,-5.6093,-5.6051,-5.5971,-7.7083,-7.7083,-7.7107,-7.6984,-7.6711,-7.5879,-7.5131,-7.4542,-7.4523,-7.5244,-7.6317,-7.6448,-7.5574,-7.4216,-7.4119,-7.3305,-7.2023,-7.1885,-7.192,-7.1789,-7.1009,-7.0566,-7.0435,-6.967,-6.8846,-6.8086,-6.7984,-6.7491,-6.6594,-6.5725,-6.5071,-6.4573,-6.3323,-6.2585,-6.2391,-6.1723,-6.1412,-6.1373,-6.072,-5.9989,-5.9102,-5.8046,-5.7236,-5.6784,-5.649,-5.68,-5.7559,-5.769,-5.8055,-5.8662,-5.8708,-5.8987,-5.9537,-5.9496,-5.975,-6.0469,-6.0572,-6.0648,-6.0769,-6.0781,-6.0089,-5.8473,-5.8269,-5.7934,-5.711,-5.6417,-5.6284,-5.6991,-5.7332,-5.7854,-5.8723,-5.9611,-6.0046,-5.9775,-6.0461,-6.1022,-6.0925,-5.9396,-5.7901,-5.6955,-5.6753,-5.693,-5.7039,-5.6682,-5.6515,-5.6781,-5.6567,-5.6269,-5.6223,-5.6258,-5.6291,-5.6291,-5.6291,-5.6253,-5.6291,-5.6291,-5.6291,-5.6291,-5.6291,-5.6278,-5.6258,-5.6272,-5.6258,-5.6126,-5.607,-5.6054,-5.6046,-5.6078,-5.6102,-5.6118,-5.6172,-5.6172,-5.6125,-5.6037,-5.5968,-7.7083,-7.7081,-7.7068,-7.6633,-7.5813,-7.4993,-7.4522,-7.4441,-7.4464,-7.4574,-7.4722,-7.4745,-7.4225,-7.3406,-7.3332,-7.2825,-7.1928,-7.1889,-7.1893,-7.1815,-7.0992,-7.0602,-7.0485,-6.9666,-6.8834,-6.8032,-6.7959,-6.7452,-6.6594,-6.5686,-6.4487,-6.3097,-6.2779,-6.2313,-6.1606,-6.1458,-6.1412,-6.1412,-6.1335,-6.0889,-6.0028,-5.8409,-5.7832,-5.852,-5.7707,-5.7652,-5.8458,-5.9118,-5.9482,-5.9626,-6.0127,-6.0456,-6.047,-6.0391,-6.0403,-6.0493,-6.0546,-6.0686,-6.0769,-6.0781,-6.0089,-5.8511,-5.8319,-5.7995,-5.724,-5.702,-5.6981,-5.733,-5.7979,-5.8808,-5.9631,-6.0545,-6.1006,-6.0818,-6.0993,-6.1109,-6.0963,-6.0089,-5.9133,-5.8568,-5.8319,-5.8114,-5.7404,-5.7095,-5.682,-5.6389,-5.6347,-5.6285,-5.6285,-5.6285,-5.6298,-5.6298,-5.6291,-5.6291,-5.6291,-5.6291,-5.6291,-5.6291,-5.6291,-5.6291,-5.6291,-5.6285,-5.6272,-5.6216,-5.6187,-5.618,-5.6187,-5.6202,-5.6185,-5.6185,-5.6192,-5.6178,-5.6102,-5.6054,-5.6003,-7.7137,-7.7054,-7.6534,-7.5548,-7.433,-7.3939,-7.3471,-7.3041,-7.3036,-7.3029,-7.3029,-7.3023,-7.3094,-7.32,-7.3257,-7.2801,-7.1982,-7.1951,-7.1953,-7.1836,-7.055,-6.9882,-6.9757,-6.8429,-6.7631,-6.7317,-6.7317,-6.7082,-6.6507,-6.5271,-6.3962,-6.2808,-6.2258,-6.1784,-6.1415,-6.1415,-6.1401,-6.1412,-6.1412,-6.1232,-6.0812,-5.9678,-5.893,-5.87,-5.8343,-5.8535,-5.9309,-5.9621,-5.9986,-6.0408,-6.0673,-6.076,-6.0648,-6.0585,-6.0559,-6.061,-6.0673,-6.0772,-6.0781,-6.0781,-6.0281,-5.9088,-5.9011,-5.8676,-5.789,-5.787,-5.8124,-5.8645,-5.9088,-5.971,-6.0558,-6.1073,-6.1275,-6.1217,-6.1182,-6.1146,-6.1079,-6.0312,-5.9796,-5.9973,-5.9271,-5.835,-5.7503,-5.6908,-5.6575,-5.6238,-5.6278,-5.6298,-5.6323,-5.631,-5.6304,-5.6323,-5.631,-5.6298,-5.6298,-5.6291,-5.6298,-5.6298,-5.631,-5.6323,-5.6323,-5.6304,-5.6278,-5.6251,-5.6401,-5.6421,-5.6317,-5.6298,-5.6265,-5.6298,-5.6265,-5.6253,-5.6219,-5.6192,-5.6117,-7.7026,-7.6629,-7.5601,-7.4416,-7.3315,-7.3041,-7.2573,-7.2029,-7.1993,-7.1993,-7.1995,-7.2,-7.2312,-7.2812,-7.2937,-7.2592,-7.2049,-7.1978,-7.198,-7.1786,-7.0184,-6.9399,-6.9236,-6.7629,-6.679,-6.6752,-6.658,-6.6161,-6.5584,-6.4459,-6.3313,-6.2457,-6.1795,-6.1472,-6.1453,-6.1408,-6.1389,-6.1394,-6.1394,-6.1388,-6.1296,-6.0769,-6.0104,-5.9481,-5.9155,-5.9401,-6.0151,-5.9949,-6.0181,-6.0941,-6.068,-6.055,-6.0722,-6.0648,-6.0635,-6.0685,-6.0796,-6.0781,-6.0781,-6.0781,-6.0435,-5.9627,-5.9511,-5.9281,-5.8825,-5.8749,-5.9225,-6.0046,-6.0235,-6.0591,-6.1151,-6.1329,-6.1314,-6.1306,-6.1272,-6.1191,-6.1089,-6.0536,-6.0458,-6.0895,-6.0106,-5.8955,-5.7939,-5.7179,-5.6608,-5.6363,-5.6291,-5.6304,-5.629,-5.6323,-5.629,-5.6296,-5.6329,-5.6329,-5.631,-5.631,-5.631,-5.6323,-5.6347,-5.6358,-5.6314,-5.6335,-5.6323,-5.6368,-5.6692,-5.7141,-5.7409,-5.7242,-5.6825,-5.6664,-5.6547,-5.6386,-5.6284,-5.6233,-5.6375,-7.6713,-7.5729,-7.4108,-7.3393,-7.3236,-7.2417,-7.2065,-7.199,-7.2,-7.2004,-7.2008,-7.1982,-7.2028,-7.2104,-7.2131,-7.2051,-7.2019,-7.1981,-7.1981,-7.1825,-7.0184,-6.9399,-6.9273,-6.7622,-6.682,-6.6748,-6.603,-6.4865,-6.3291,-6.2986,-6.2418,-6.1639,-6.1567,-6.1484,-6.1478,-6.1478,-6.1466,-6.1434,-6.1396,-6.1415,-6.1373,-6.1275,-6.1158,-6.091,-6.0282,-6.0199,-6.0809,-6.022,-6.0191,-6.0963,-6.0194,-6.003,-6.0666,-6.0722,-6.0697,-6.0697,-6.0746,-6.0781,-6.0781,-6.0781,-6.0435,-5.9704,-5.9627,-5.9573,-5.9694,-5.977,-6.0258,-6.1086,-6.1225,-6.1275,-6.1353,-6.1391,-6.1376,-6.1314,-6.1322,-6.1234,-6.1127,-6.1011,-6.1041,-6.1089,-6.0902,-6.0071,-5.8862,-5.8019,-5.7139,-5.6524,-5.6291,-5.6298,-5.631,-5.6308,-5.6319,-5.6353,-5.6375,-5.6407,-5.6358,-5.6496,-5.6469,-5.6558,-5.6725,-5.6542,-5.6425,-5.6386,-5.6425,-5.6664,-5.74,-5.8043,-5.8593,-5.8579,-5.8115,-5.7631,-5.6881,-5.6603,-5.642,-5.629,-5.6523,-7.5546,-7.4206,-7.3568,-7.301,-7.2456,-7.2143,-7.1993,-7.2,-7.2004,-7.201,-7.1977,-7.1982,-7.1987,-7.1989,-7.1986,-7.1985,-7.1987,-7.1987,-7.1985,-7.1786,-7.0184,-6.9399,-6.9195,-6.7629,-6.6792,-6.6688,-6.5936,-6.4864,-6.3748,-6.3175,-6.2732,-6.2338,-6.1822,-6.1534,-6.1518,-6.1473,-6.1501,-6.1472,-6.1466,-6.146,-6.1441,-6.1401,-6.1102,-6.0589,-6.0635,-6.0576,-6.0344,-6.0519,-6.0539,-6.0239,-6.0383,-6.0629,-6.0811,-6.0781,-6.0757,-6.0757,-6.0769,-6.0804,-6.0866,-6.0804,-6.0689,-6.0442,-6.0381,-6.0623,-6.1131,-6.1456,-6.1888,-6.252,-6.2327,-6.2152,-6.202,-6.1701,-6.1344,-6.1322,-6.1322,-6.125,-6.1164,-6.1155,-6.1182,-6.1131,-6.0824,-6.0018,-5.9085,-5.8111,-5.7269,-5.6492,-5.633,-5.6343,-5.629,-5.6286,-5.6441,-5.6533,-5.6879,-5.7211,-5.7215,-5.717,-5.7198,-5.7403,-5.7486,-5.758,-5.7507,-5.67,-5.651,-5.6466,-5.7394,-5.8412,-5.8841,-5.9113,-5.8773,-5.8033,-5.7245,-5.7045,-5.6505,-5.6918,-5.7284,-7.5039,-7.3821,-7.3734,-7.3375,-7.2859,-7.2856,-7.282,-7.2787,-7.2557,-7.2404,-7.2372,-7.2141,-7.1989,-7.199,-7.1991,-7.199,-7.1989,-7.1989,-7.1987,-7.1825,-7.0184,-6.9399,-6.9119,-6.7629,-6.6798,-6.6619,-6.5595,-6.4648,-6.3741,-6.2906,-6.2504,-6.2418,-6.1859,-6.1568,-6.1549,-6.1544,-6.1528,-6.1507,-6.1501,-6.1417,-6.1128,-6.1026,-6.0579,-5.9977,-6.0399,-6.0532,-5.9973,-6.0178,-6.0344,-6.0268,-6.051,-6.072,-6.0845,-6.0877,-6.0804,-6.0793,-6.0804,-6.0827,-6.0938,-6.1142,-6.1318,-6.1351,-6.1395,-6.1781,-6.2557,-6.2982,-6.3327,-6.3516,-6.33,-6.2942,-6.2889,-6.2486,-6.1935,-6.1469,-6.1306,-6.1234,-6.1137,-6.1173,-6.1225,-6.1236,-6.0911,-6.0172,-5.9392,-5.8778,-5.8117,-5.7224,-5.7107,-5.7004,-5.6446,-5.6842,-5.7215,-5.7333,-5.7814,-5.8057,-5.8242,-5.8369,-5.8247,-5.8374,-5.8413,-5.8501,-5.8238,-5.7316,-5.6624,-5.6546,-5.7091,-5.8226,-5.8971,-5.9326,-5.9018,-5.8277,-5.816,-5.8039,-5.7853,-5.786,-5.825,-7.5351,-7.4528,-7.4561,-7.4481,-7.436,-7.4353,-7.4508,-7.4158,-7.3539,-7.3112,-7.2882,-7.2342,-7.1992,-7.1992,-7.1992,-7.1992,-7.199,-7.1989,-7.1987,-7.1823,-7.03,-6.9475,-6.9271,-6.77,-6.6792,-6.6619,-6.5039,-6.3822,-6.3003,-6.2184,-6.1744,-6.1647,-6.1638,-6.1586,-6.1568,-6.1602,-6.1554,-6.1422,-6.1378,-6.1011,-6.0277,-6.0143,-5.9781,-5.9147,-5.9685,-6.0056,-5.9987,-5.9279,-5.9663,-6.0692,-6.0336,-6.0228,-6.0828,-6.0911,-6.0888,-6.0854,-6.0877,-6.0911,-6.1048,-6.1752,-6.2141,-6.2316,-6.2537,-6.2874,-6.3503,-6.4082,-6.4296,-6.4058,-6.3844,-6.3726,-6.38,-6.3624,-6.3042,-6.1685,-6.1513,-6.1402,-6.1146,-6.1173,-6.1203,-6.1268,-6.1205,-6.0949,-6.0325,-5.9865,-5.936,-5.87,-5.8467,-5.8085,-5.7094,-5.7776,-5.8754,-5.9073,-5.9034,-5.8975,-5.9308,-5.9606,-5.9455,-5.9386,-5.9347,-5.9308,-5.8923,-5.8152,-5.7174,-5.6862,-5.6523,-5.7576,-5.8601,-5.8956,-5.9198,-5.8772,-5.8897,-5.8897,-5.8737,-5.8702,-5.93,-7.4492,-7.3828,-7.4372,-7.4602,-7.4598,-7.459,-7.4275,-7.3695,-7.3381,-7.2956,-7.2416,-7.2107,-7.1992,-7.1992,-7.1992,-7.1992,-7.1989,-7.1989,-7.1985,-7.1778,-7.0794,-6.993,-6.9262,-6.8203,-6.7066,-6.597,-6.4833,-6.3815,-6.2954,-6.2086,-6.1644,-6.1588,-6.1569,-6.1591,-6.1568,-6.1568,-6.133,-6.0745,-6.0677,-6.0243,-5.9445,-5.9372,-5.9212,-5.9041,-5.9204,-5.956,-6.0093,-6.0298,-6.0334,-6.0351,-6.0538,-6.079,-6.0923,-6.0948,-6.0955,-6.0944,-6.0955,-6.1317,-6.1852,-6.2171,-6.2675,-6.31,-6.3362,-6.3767,-6.4463,-6.5149,-6.5507,-6.5344,-6.4958,-6.4608,-6.453,-6.4036,-6.3571,-6.2999,-6.2646,-6.2047,-6.1435,-6.132,-6.1322,-6.1352,-6.1359,-6.0978,-6.037,-6.0176,-5.9982,-5.9205,-5.9031,-5.8649,-5.8377,-5.8643,-5.9606,-6.0456,-6.0222,-5.9919,-6.0101,-6.0395,-6.0511,-6.0365,-6.0296,-6.0144,-5.9715,-5.9299,-5.8242,-5.7346,-5.6929,-5.7092,-5.8074,-5.8744,-5.9141,-5.9258,-5.9219,-5.9176,-5.9176,-5.9576,-6.0174,-7.4566,-7.3945,-7.5078,-7.5585,-7.5541,-7.5534,-7.5062,-7.4284,-7.3924,-7.3304,-7.2572,-7.2106,-7.1991,-7.1992,-7.1992,-7.1992,-7.1991,-7.199,-7.1831,-7.1431,-7.064,-6.9891,-6.9225,-6.8173,-6.7199,-6.6065,-6.4852,-6.403,-6.3445,-6.2298,-6.1657,-6.1598,-6.1584,-6.1599,-6.1573,-6.1568,-6.13,-6.0803,-6.0465,-6.0044,-5.9572,-5.919,-5.903,-5.9053,-5.9308,-5.9752,-6.0289,-6.0935,-6.1043,-6.0566,-6.0845,-6.106,-6.1002,-6.101,-6.099,-6.1067,-6.1358,-6.1833,-6.2375,-6.3061,-6.3583,-6.4179,-6.4528,-6.4936,-6.5441,-6.6022,-6.6185,-6.6118,-6.5751,-6.5422,-6.5345,-6.4996,-6.4657,-6.4637,-6.3791,-6.3025,-6.2263,-6.2277,-6.2182,-6.215,-6.2196,-6.1886,-6.1342,-6.1366,-6.1133,-6.048,-6.0261,-6.0061,-5.9944,-5.9888,-6.0711,-6.1208,-6.1032,-6.0841,-6.0846,-6.111,-6.149,-6.1422,-6.1314,-6.1084,-6.0742,-6.0605,-5.995,-5.8783,-5.8166,-5.7977,-5.8763,-5.9352,-5.9748,-5.9664,-5.9661,-6.0213,-6.0489,-6.057,-6.1007,-7.5182,-7.4802,-7.6364,-7.6913,-7.6913,-7.6946,-7.6394,-7.5612,-7.4898,-7.3963,-7.3075,-7.2299,-7.1991,-7.1992,-7.1875,-7.1797,-7.1875,-7.1639,-7.1248,-7.0543,-6.9796,-6.9244,-6.9003,-6.7718,-6.69,-6.6392,-6.502,-6.4236,-6.3843,-6.2427,-6.1668,-6.1602,-6.1595,-6.158,-6.1586,-6.1573,-6.1509,-6.1214,-6.0633,-6.0293,-6.0113,-5.9489,-5.9127,-5.9147,-5.9845,-6.0291,-6.0555,-6.1134,-6.1408,-6.1205,-6.1113,-6.1089,-6.1041,-6.1022,-6.1032,-6.1186,-6.1959,-6.2471,-6.299,-6.4089,-6.5031,-6.5242,-6.5809,-6.6469,-6.626,-6.6206,-6.6185,-6.6185,-6.6108,-6.6108,-6.6108,-6.6012,-6.6032,-6.6032,-6.4936,-6.4149,-6.4069,-6.4078,-6.3704,-6.3129,-6.3439,-6.3673,-6.274,-6.3216,-6.3092,-6.2609,-6.2252,-6.1815,-6.1318,-6.1044,-6.1379,-6.1445,-6.1388,-6.1373,-6.1218,-6.1266,-6.1568,-6.1578,-6.1591,-6.1491,-6.1382,-6.1325,-6.0831,-5.9784,-5.9435,-5.9285,-5.9134,-5.9527,-6.0,-6.0078,-6.0547,-6.1408,-6.1642,-6.1447,-6.1405,-7.3854,-7.3821,-7.5507,-7.625,-7.6326,-7.6828,-7.6274,-7.5017,-7.4655,-7.3683,-7.2525,-7.21,-7.1989,-7.1914,-7.1328,-7.1055,-7.0976,-7.043,-7.0038,-6.9646,-6.8905,-6.8511,-6.8269,-6.741,-6.6591,-6.5927,-6.495,-6.3969,-6.3298,-6.2319,-6.172,-6.1654,-6.1641,-6.1591,-6.158,-6.1603,-6.1257,-6.0808,-6.0549,-6.0041,-5.957,-5.9306,-5.9414,-5.997,-6.02,-6.0655,-6.1169,-6.1395,-6.1434,-6.1283,-6.1252,-6.125,-6.1208,-6.1238,-6.1509,-6.2013,-6.2379,-6.3141,-6.4269,-6.4923,-6.5491,-6.6097,-6.6307,-6.6469,-6.6424,-6.6284,-6.6195,-6.6185,-6.6185,-6.6185,-6.6234,-6.6264,-6.6322,-6.6338,-6.5834,-6.5588,-6.5693,-6.5763,-6.5304,-6.4022,-6.3906,-6.3906,-6.3828,-6.3837,-6.3744,-6.3075,-6.2733,-6.2337,-6.1765,-6.146,-6.1484,-6.1472,-6.1451,-6.1489,-6.1515,-6.1525,-6.1568,-6.1578,-6.1599,-6.1588,-6.1563,-6.1537,-6.069,-5.9605,-6.039,-6.051,-5.9614,-5.9304,-5.9777,-6.0561,-6.0719,-6.1227,-6.1575,-6.1612,-6.161,-7.3618,-7.3465,-7.5154,-7.5898,-7.5934,-7.6398,-7.5845,-7.4701,-7.4142,-7.3286,-7.2207,-7.198,-7.1986,-7.1914,-7.1094,-7.0703,-7.0586,-6.9844,-6.9258,-6.8749,-6.8047,-6.7655,-6.7497,-6.7067,-6.6637,-6.6129,-6.523,-6.4405,-6.3578,-6.2675,-6.2115,-6.1741,-6.1651,-6.1605,-6.1595,-6.1588,-6.1432,-6.0981,-6.0642,-6.0252,-6.0213,-5.9831,-6.0135,-6.0698,-6.0882,-6.1136,-6.1568,-6.1578,-6.1484,-6.1408,-6.1352,-6.1306,-6.133,-6.1655,-6.2042,-6.2563,-6.3183,-6.4178,-6.4986,-6.5499,-6.5973,-6.633,-6.6493,-6.6453,-6.6367,-6.6274,-6.6185,-6.6185,-6.6185,-6.6195,-6.6225,-6.6283,-6.6376,-6.6373,-6.6428,-6.6453,-6.6508,-6.6431,-6.5887,-6.5032,-6.4799,-6.4884,-6.4627,-6.4738,-6.4505,-6.4061,-6.3735,-6.2803,-6.1769,-6.1583,-6.146,-6.1453,-6.1466,-6.1507,-6.1544,-6.1559,-6.1582,-6.1586,-6.1619,-6.1644,-6.1657,-6.1671,-6.1166,-6.0668,-6.1338,-6.146,-6.0522,-6.0017,-6.0568,-6.104,-6.0924,-6.1043,-6.151,-6.1704,-6.1701,-7.3965,-7.3309,-7.5034,-7.5781,-7.5738,-7.585,-7.5454,-7.4545,-7.3749,-7.2893,-7.2124,-7.1977,-7.1907,-7.1795,-7.082,-7.0469,-7.0312,-6.9336,-6.8711,-6.8008,-6.7383,-6.7031,-6.7031,-6.6992,-6.6719,-6.6445,-6.5897,-6.5075,-6.4171,-6.3422,-6.2783,-6.2337,-6.2053,-6.1849,-6.1843,-6.1719,-6.1648,-6.1504,-6.0963,-6.0966,-6.1205,-6.0856,-6.089,-6.1342,-6.1478,-6.1452,-6.1578,-6.1602,-6.1622,-6.1651,-6.144,-6.1429,-6.1492,-6.2191,-6.2687,-6.3146,-6.4241,-6.5072,-6.5444,-6.6074,-6.6408,-6.6422,-6.6469,-6.6445,-6.6331,-6.6254,-6.6185,-6.6185,-6.6195,-6.6235,-6.6283,-6.6355,-6.6389,-6.6406,-6.6477,-6.6501,-6.6508,-6.6501,-6.619,-6.5491,-6.6035,-6.6018,-6.587,-6.5887,-6.6042,-6.4743,-6.4287,-6.3247,-6.2136,-6.1511,-6.1421,-6.1428,-6.146,-6.1495,-6.1528,-6.1554,-6.1582,-6.1603,-6.1641,-6.1702,-6.1674,-6.1681,-6.1681,-6.1727,-6.1697,-6.1701,-6.1506,-6.1391,-6.1514,-6.1478,-6.1363,-6.1482,-6.1717,-6.1716,-6.1716,-7.3072,-7.2411,-7.4139,-7.4882,-7.4996,-7.5577,-7.5374,-7.4506,-7.3632,-7.2773,-7.2124,-7.1977,-7.1633,-7.1013,-7.0234,-6.9414,-6.8867,-6.8085,-6.7303,-6.7225,-6.7031,-6.6914,-6.6914,-6.6914,-6.6523,-6.6094,-6.5742,-6.5155,-6.4411,-6.4171,-6.3928,-6.3644,-6.2884,-6.268,-6.2569,-6.1933,-6.1702,-6.1674,-6.1481,-6.1442,-6.1601,-6.1522,-6.1478,-6.1735,-6.1747,-6.1638,-6.1616,-6.1568,-6.1914,-6.224,-6.1996,-6.1856,-6.2334,-6.2648,-6.3293,-6.4311,-6.4862,-6.5522,-6.6074,-6.6345,-6.6446,-6.6428,-6.6403,-6.6358,-6.6322,-6.6254,-6.6185,-6.6195,-6.6264,-6.6283,-6.6355,-6.6389,-6.6414,-6.6477,-6.6493,-6.6508,-6.6501,-6.6461,-6.629,-6.622,-6.6267,-6.6369,-6.632,-6.6229,-6.6066,-6.5411,-6.4651,-6.3666,-6.2672,-6.1684,-6.144,-6.1428,-6.1478,-6.1512,-6.1528,-6.1564,-6.1603,-6.163,-6.1663,-6.1722,-6.1692,-6.1692,-6.1692,-6.1697,-6.1705,-6.1707,-6.1708,-6.1713,-6.1599,-6.1679,-6.1718,-6.1719,-6.1718,-6.1718,-6.1718,-7.315,-7.2172,-7.3435,-7.3984,-7.4061,-7.4485,-7.4398,-7.3881,-7.3086,-7.2458,-7.2078,-7.1975,-7.1709,-7.1206,-7.0078,-6.9219,-6.8594,-6.7459,-6.691,-6.6909,-6.6911,-6.6911,-6.6911,-6.6873,-6.6601,-6.6211,-6.6211,-6.5742,-6.5115,-6.4839,-6.4677,-6.4236,-6.3481,-6.2969,-6.2852,-6.2181,-6.1752,-6.1715,-6.1718,-6.1718,-6.1718,-6.1718,-6.1981,-6.2314,-6.2563,-6.2656,-6.2274,-6.2659,-6.2776,-6.2839,-6.2802,-6.2879,-6.3353,-6.3662,-6.4333,-6.4993,-6.5654,-6.5926,-6.6392,-6.6485,-6.6422,-6.6381,-6.6367,-6.6273,-6.6245,-6.6205,-6.6185,-6.6195,-6.6274,-6.634,-6.6389,-6.6461,-6.6485,-6.6501,-6.6508,-6.6501,-6.6469,-6.642,-6.6338,-6.6364,-6.6406,-6.6462,-6.6485,-6.647,-6.6414,-6.5959,-6.587,-6.4932,-6.3301,-6.2359,-6.1616,-6.1453,-6.1501,-6.1534,-6.1544,-6.1539,-6.1588,-6.1657,-6.1686,-6.1699,-6.1707,-6.1704,-6.1701,-6.1708,-6.1713,-6.1714,-6.1716,-6.1718,-6.1719,-6.1718,-6.1717,-6.1714,-6.1711,-6.1709,-6.1707,-7.3854,-7.2442,-7.3198,-7.3476,-7.3476,-7.3433,-7.3386,-7.3219,-7.2385,-7.2065,-7.1993,-7.201,-7.1861,-7.1437,-7.0155,-6.9453,-6.8671,-6.7732,-6.6907,-6.6863,-6.6904,-6.6905,-6.6905,-6.6906,-6.6871,-6.6914,-6.6797,-6.6367,-6.5937,-6.5779,-6.554,-6.4708,-6.3884,-6.3722,-6.3323,-6.2618,-6.2342,-6.2384,-6.2149,-6.2032,-6.2032,-6.203,-6.2368,-6.3084,-6.3581,-6.3639,-6.3292,-6.3556,-6.3828,-6.3356,-6.3932,-6.4292,-6.4617,-6.4803,-6.5336,-6.5413,-6.6081,-6.6353,-6.6462,-6.6477,-6.6406,-6.6364,-6.6329,-6.6264,-6.6215,-6.6205,-6.6205,-6.6225,-6.6264,-6.6338,-6.6406,-6.6477,-6.6501,-6.6508,-6.6508,-6.6485,-6.6437,-6.6367,-6.6283,-6.6292,-6.6373,-6.6454,-6.65,-6.6553,-6.6588,-6.6562,-6.6507,-6.5965,-6.4294,-6.2793,-6.1895,-6.1484,-6.1534,-6.1559,-6.1568,-6.1612,-6.1651,-6.1676,-6.1699,-6.1709,-6.1715,-6.1717,-6.1716,-6.1716,-6.1718,-6.1718,-6.1719,-6.1718,-6.1716,-6.1714,-6.1711,-6.1707,-6.1699,-6.1727,-6.1727,-7.5113,-7.4175,-7.4333,-7.4374,-7.4258,-7.3631,-7.3235,-7.3148,-7.2349,-7.1987,-7.199,-7.2002,-7.1623,-7.0887,-6.9957,-6.875,-6.7886,-6.7219,-6.6981,-6.6935,-6.69,-6.6902,-6.6904,-6.6904,-6.6907,-6.6911,-6.6912,-6.6757,-6.664,-6.6639,-6.6362,-6.6199,-6.5451,-6.5013,-6.4731,-6.4336,-6.3633,-6.3438,-6.3086,-6.2813,-6.2774,-6.2928,-6.3227,-6.3939,-6.4361,-6.422,-6.4033,-6.4062,-6.4335,-6.4914,-6.5055,-6.5459,-6.5752,-6.5535,-6.5654,-6.6081,-6.6353,-6.6508,-6.6508,-6.6493,-6.6373,-6.6331,-6.6322,-6.6322,-6.6264,-6.6264,-6.6284,-6.6322,-6.6329,-6.6398,-6.6493,-6.6501,-6.6508,-6.6508,-6.6508,-6.6501,-6.6461,-6.6329,-6.6235,-6.6254,-6.6355,-6.6446,-6.65,-6.6535,-6.6594,-6.6594,-6.6514,-6.6011,-6.4799,-6.3111,-6.1668,-6.1501,-6.1559,-6.1578,-6.1591,-6.1641,-6.1676,-6.1692,-6.1707,-6.1716,-6.1718,-6.1717,-6.1716,-6.1716,-6.1716,-6.1714,-6.1712,-6.1712,-6.171,-6.1708,-6.1702,-6.1694,-6.169,-6.1722,-6.172,-7.4058,-7.3275,-7.3275,-7.3278,-7.3163,-7.2812,-7.2651,-7.2564,-7.2195,-7.1987,-7.1993,-7.1963,-7.1778,-7.12,-7.0464,-6.9336,-6.8352,-6.7685,-6.7524,-6.744,-6.709,-6.686,-6.6902,-6.6904,-6.6907,-6.691,-6.6911,-6.6913,-6.6914,-6.6874,-6.6911,-6.6671,-6.604,-6.5602,-6.5394,-6.4687,-6.4416,-6.4221,-6.3909,-6.3672,-6.375,-6.3979,-6.4506,-6.4797,-6.5207,-6.5225,-6.4929,-6.5309,-6.5377,-6.5478,-6.575,-6.6147,-6.6315,-6.6274,-6.6042,-6.6392,-6.6508,-6.6508,-6.6501,-6.6485,-6.6373,-6.6273,-6.6331,-6.6303,-6.6264,-6.6274,-6.6331,-6.6338,-6.6364,-6.6422,-6.6501,-6.6508,-6.6508,-6.6508,-6.6508,-6.6485,-6.6437,-6.6301,-6.6273,-6.6303,-6.642,-6.6462,-6.6475,-6.6542,-6.6562,-6.6588,-6.6546,-6.5948,-6.5188,-6.3772,-6.2167,-6.1523,-6.1578,-6.1599,-6.158,-6.166,-6.1692,-6.1705,-6.1714,-6.1718,-6.1717,-6.171,-6.1704,-6.1701,-6.1699,-6.1701,-6.1705,-6.1708,-6.1702,-6.1697,-6.1692,-6.1727,-6.1722,-6.1718,-6.1718,-7.316,-7.2532,-7.2335,-7.226,-7.2225,-7.2069,-7.2026,-7.1978,-7.2,-7.1987,-7.199,-7.1997,-7.201,-7.1747,-7.1052,-7.0156,-6.9406,-6.8623,-6.8384,-6.8185,-6.7559,-6.7132,-6.7137,-6.6943,-6.6906,-6.6911,-6.6911,-6.6913,-6.6914,-6.6914,-6.6911,-6.6749,-6.616,-6.584,-6.5707,-6.539,-6.4885,-6.4767,-6.4611,-6.457,-6.4721,-6.5139,-6.5588,-6.5761,-6.6369,-6.6269,-6.5816,-6.6156,-6.634,-6.6235,-6.636,-6.664,-6.6761,-6.6609,-6.6508,-6.6508,-6.6508,-6.6508,-6.6501,-6.6485,-6.6389,-6.6292,-6.6292,-6.6303,-6.6284,-6.6273,-6.6338,-6.6398,-6.6422,-6.6431,-6.6501,-6.6508,-6.6508,-6.6508,-6.6501,-6.6477,-6.6394,-6.634,-6.6358,-6.6385,-6.6469,-6.6508,-6.6507,-6.6535,-6.6588,-6.6581,-6.6546,-6.6524,-6.5693,-6.4644,-6.321,-6.204,-6.1591,-6.158,-6.1605,-6.1674,-6.1701,-6.1715,-6.1719,-6.1716,-6.1709,-6.1697,-6.1692,-6.1727,-6.1725,-6.169,-6.1697,-6.1701,-6.1696,-6.169,-6.1722,-6.172,-6.172,-6.1718,-6.1718,-7.4414,-7.4179,-7.3435,-7.3124,-7.2969,-7.2303,-7.1987,-7.198,-7.2,-7.1987,-7.199,-7.199,-7.2004,-7.1787,-7.1133,-7.0272,-6.9683,-6.9368,-6.9247,-6.9129,-6.8387,-6.7958,-6.7841,-6.7177,-6.7103,-6.7029,-6.695,-6.6913,-6.6914,-6.6913,-6.691,-6.6826,-6.6701,-6.6614,-6.6446,-6.6209,-6.6522,-6.6327,-6.5819,-6.5499,-6.5451,-6.5601,-6.6007,-6.6373,-6.659,-6.6619,-6.6439,-6.673,-6.6908,-6.7397,-6.688,-6.7047,-6.7384,-6.6881,-6.6594,-6.6508,-6.6508,-6.6508,-6.6508,-6.661,-6.657,-6.6531,-6.6523,-6.6397,-6.6427,-6.6367,-6.6398,-6.6493,-6.6501,-6.6501,-6.6508,-6.6508,-6.6508,-6.6508,-6.6508,-6.6389,-6.6292,-6.6349,-6.6367,-6.6403,-6.6453,-6.6485,-6.6516,-6.6553,-6.6574,-6.656,-6.6538,-6.6524,-6.6283,-6.5319,-6.4117,-6.2824,-6.2024,-6.197,-6.181,-6.1837,-6.1707,-6.1718,-6.1717,-6.171,-6.1701,-6.169,-6.1725,-6.172,-6.1718,-6.1718,-6.1727,-6.1688,-6.1722,-6.172,-6.172,-6.172,-6.1718,-6.1718,-6.1874,-7.3125,-7.3085,-7.2734,-7.2578,-7.2538,-7.2148,-7.199,-7.1986,-7.1975,-7.2004,-7.2,-7.2,-7.2008,-7.1866,-7.1562,-7.1249,-7.0817,-7.0347,-7.0151,-6.9956,-6.9292,-6.8824,-6.867,-6.8084,-6.7655,-6.7461,-6.7148,-6.6914,-6.6914,-6.6912,-6.6909,-6.6904,-6.6817,-6.6768,-6.6837,-6.6798,-6.6798,-6.6795,-6.6865,-6.7013,-6.6964,-6.6908,-6.6845,-6.6711,-6.6736,-6.6761,-6.6824,-6.7231,-6.7475,-6.7917,-6.7793,-6.8147,-6.8248,-6.7759,-6.7247,-6.7208,-6.6742,-6.6547,-6.6547,-6.6912,-6.7066,-6.7265,-6.7441,-6.7665,-6.7208,-6.6691,-6.6461,-6.6501,-6.6508,-6.6508,-6.6508,-6.6508,-6.6508,-6.6508,-6.6508,-6.6445,-6.6367,-6.6367,-6.6385,-6.642,-6.6406,-6.6439,-6.6508,-6.6538,-6.656,-6.6553,-6.6538,-6.6516,-6.6531,-6.6217,-6.4908,-6.3541,-6.2882,-6.2442,-6.2239,-6.2113,-6.1828,-6.1758,-6.1716,-6.1707,-6.1694,-6.1722,-6.172,-6.1718,-6.1718,-6.1718,-6.1718,-6.172,-6.172,-6.172,-6.1718,-6.1718,-6.1757,-6.2342,-6.2576,-7.1992,-7.199,-7.1992,-7.1992,-7.1989,-7.199,-7.199,-7.1988,-7.1982,-7.1977,-7.1973,-7.1973,-7.1978,-7.1985,-7.1952,-7.1836,-7.1873,-7.1326,-7.1092,-7.0741,-7.0233,-6.9765,-6.9492,-6.8945,-6.8359,-6.8203,-6.7617,-6.7187,-6.7031,-6.7108,-6.7222,-6.6904,-6.6856,-6.6807,-6.6876,-6.7107,-6.7342,-6.7724,-6.8105,-6.8287,-6.8273,-6.8015,-6.7608,-6.7243,-6.7034,-6.7019,-6.713,-6.7798,-6.8235,-6.8761,-6.879,-6.8979,-6.9181,-6.8582,-6.8116,-6.8,-6.7611,-6.727,-6.727,-6.7417,-6.7773,-6.8136,-6.8437,-6.8554,-6.8316,-6.7432,-6.678,-6.6936,-6.6586,-6.6547,-6.6508,-6.6508,-6.6508,-6.6508,-6.6508,-6.6469,-6.6428,-6.6411,-6.642,-6.6453,-6.6439,-6.6439,-6.6508,-6.6531,-6.6546,-6.6546,-6.6531,-6.6516,-6.6538,-6.6542,-6.5944,-6.4598,-6.3735,-6.3261,-6.3029,-6.2707,-6.2299,-6.1992,-6.191,-6.1746,-6.1774,-6.1725,-6.172,-6.1718,-6.172,-6.1718,-6.1718,-6.1718,-6.1718,-6.1718,-6.1718,-6.1715,-6.191,-6.2613,-6.3238,-7.1992,-7.1989,-7.199,-7.1988,-7.1981,-7.1981,-7.1982,-7.1984,-7.1981,-7.1981,-7.1981,-7.1986,-7.1988,-7.199,-7.1992,-7.1992,-7.1992,-7.1953,-7.1797,-7.1523,-7.1094,-7.0664,-7.0351,-6.9765,-6.8945,-6.8398,-6.7969,-6.7539,-6.7265,-6.7616,-6.7418,-6.7021,-6.7246,-6.6963,-6.7188,-6.7768,-6.8427,-6.8847,-6.9263,-6.9284,-6.9029,-6.8656,-6.814,-6.8003,-6.792,-6.7915,-6.7954,-6.8682,-6.9305,-6.9915,-6.9702,-6.9686,-7.0003,-6.9381,-6.8993,-6.8868,-6.8644,-6.8302,-6.8233,-6.8116,-6.8247,-6.8631,-6.9019,-6.9278,-6.9351,-6.8365,-6.7829,-6.755,-6.7037,-6.6617,-6.654,-6.6508,-6.6508,-6.6493,-6.6477,-6.6445,-6.642,-6.642,-6.6437,-6.6485,-6.6501,-6.6501,-6.6462,-6.6524,-6.6531,-6.6531,-6.6531,-6.6508,-6.6531,-6.6535,-6.6606,-6.5839,-6.4778,-6.424,-6.4013,-6.3611,-6.3076,-6.2773,-6.2653,-6.2256,-6.1896,-6.1848,-6.172,-6.1722,-6.1722,-6.172,-6.1718,-6.1718,-6.1718,-6.1718,-6.1757,-6.1871,-6.241,-6.3185,-6.3812,-7.1992,-7.199,-7.1989,-7.1987,-7.198,-7.198,-7.1984,-7.1987,-7.1987,-7.1987,-7.1987,-7.1989,-7.1989,-7.199,-7.1992,-7.1992,-7.1992,-7.1992,-7.1992,-7.1914,-7.164,-7.1523,-7.1172,-7.0586,-6.9805,-6.9062,-6.8515,-6.7734,-6.707,-6.7969,-6.7969,-6.7803,-6.8146,-6.8375,-6.8601,-6.8703,-6.9354,-6.9965,-7.0181,-7.0112,-7.0069,-6.9811,-6.9333,-6.8821,-6.8816,-6.8767,-6.8861,-6.9597,-7.0077,-7.0392,-7.0503,-7.0727,-7.0839,-7.0188,-6.9878,-6.9753,-6.9451,-6.9226,-6.9295,-6.9304,-6.9714,-7.024,-7.0162,-6.9908,-7.0119,-6.9131,-6.8261,-6.7795,-6.7471,-6.7168,-6.6547,-6.6485,-6.6493,-6.6469,-6.6484,-6.6536,-6.6536,-6.6622,-6.6514,-6.6602,-6.654,-6.6508,-6.6508,-6.6508,-6.6508,-6.6508,-6.6508,-6.6516,-6.65,-6.6535,-6.6606,-6.6574,-6.5553,-6.5125,-6.4941,-6.4379,-6.3772,-6.3592,-6.3396,-6.2806,-6.2293,-6.1807,-6.172,-6.1722,-6.1725,-6.172,-6.1718,-6.1718,-6.1718,-6.1718,-6.1913,-6.222,-6.2875,-6.3758,-6.4499,-7.1992,-7.199,-7.199,-7.1986,-7.1978,-7.198,-7.1982,-7.1986,-7.1989,-7.199,-7.1991,-7.1991,-7.1991,-7.1991,-7.1992,-7.1992,-7.1992,-7.1992,-7.1992,-7.1953,-7.1953,-7.1992,-7.1758,-7.1328,-7.0664,-6.9883,-6.9297,-6.8594,-6.789,-6.8555,-6.8906,-6.9252,-6.9633,-6.9863,-6.934,-6.9754,-7.02,-7.0844,-7.1023,-7.0951,-7.0946,-7.0624,-7.0341,-6.9718,-6.9673,-6.9657,-6.9829,-7.0382,-7.0777,-7.1014,-7.1202,-7.1512,-7.137,-7.1081,-7.074,-7.0499,-7.0266,-7.0003,-7.0296,-7.0571,-7.0929,-7.1201,-7.0998,-7.0687,-7.0407,-6.9846,-6.9109,-6.8634,-6.8312,-6.7778,-6.7118,-6.7368,-6.7293,-6.7385,-6.7213,-6.7196,-6.7096,-6.7113,-6.685,-6.6672,-6.6726,-6.6897,-6.6508,-6.6508,-6.6516,-6.6508,-6.6508,-6.6516,-6.6485,-6.6542,-6.6612,-6.653,-6.6166,-6.594,-6.5826,-6.5145,-6.4542,-6.4332,-6.4023,-6.3318,-6.2766,-6.2246,-6.1768,-6.1694,-6.1692,-6.1722,-6.1718,-6.1718,-6.1718,-6.1718,-6.2103,-6.2635,-6.3485,-6.4368,-6.5379,-7.1992,-7.1992,-7.199,-7.1984,-7.201,-7.1977,-7.1977,-7.1975,-7.1986,-7.1991,-7.1992,-7.1992,-7.1992,-7.1992,-7.1992,-7.1992,-7.1992,-7.1992,-7.1992,-7.1992,-7.1992,-7.1992,-7.1953,-7.1719,-7.125,-7.082,-7.0273,-6.9726,-6.914,-6.9805,-7.0234,-7.0581,-7.0883,-7.0991,-6.9687,-7.0294,-7.1082,-7.1711,-7.1741,-7.1687,-7.1516,-7.1043,-7.0726,-7.0609,-7.057,-7.052,-7.068,-7.1102,-7.142,-7.1513,-7.1536,-7.1645,-7.1538,-7.149,-7.1374,-7.1365,-7.1365,-7.1392,-7.1503,-7.1397,-7.1417,-7.1532,-7.129,-7.1262,-7.1184,-7.067,-6.9963,-6.9479,-6.9236,-6.8897,-6.8741,-6.8673,-6.833,-6.8153,-6.801,-6.7942,-6.7881,-6.8031,-6.7883,-6.7417,-6.7472,-6.748,-6.6858,-6.6516,-6.6516,-6.6516,-6.6508,-6.6516,-6.6492,-6.6555,-6.6674,-6.6613,-6.6478,-6.6438,-6.6202,-6.5751,-6.5312,-6.5069,-6.4531,-6.375,-6.3201,-6.2689,-6.2255,-6.1862,-6.1694,-6.172,-6.1718,-6.1718,-6.1835,-6.203,-6.2629,-6.3237,-6.4088,-6.4938,-6.5827,-7.1992,-7.1992,-7.1991,-7.1986,-7.1977,-7.2012,-7.2008,-7.201,-7.1985,-7.199,-7.1991,-7.1992,-7.1992,-7.1992,-7.1992,-7.1992,-7.1992,-7.1992,-7.1992,-7.1992,-7.1992,-7.1992,-7.1992,-7.1914,-7.1562,-7.0937,-7.0625,-7.0312,-6.9336,-7.0389,-7.0698,-7.0924,-7.1458,-7.1555,-7.1263,-7.1437,-7.1716,-7.1819,-7.1843,-7.1788,-7.1739,-7.1505,-7.1349,-7.1349,-7.1349,-7.1293,-7.1264,-7.1692,-7.1745,-7.1714,-7.1707,-7.1661,-7.1594,-7.1607,-7.1589,-7.1571,-7.1561,-7.1523,-7.1513,-7.1406,-7.1386,-7.1465,-7.1475,-7.1445,-7.1368,-7.1172,-7.0697,-7.0243,-6.9953,-6.9498,-6.8956,-6.8878,-6.8682,-6.8786,-6.8739,-6.8795,-6.886,-6.9204,-6.9267,-6.8521,-6.8257,-6.7503,-6.6849,-6.6585,-6.6546,-6.6553,-6.6553,-6.656,-6.6567,-6.6639,-6.6702,-6.6702,-6.6639,-6.6707,-6.6541,-6.5943,-6.5582,-6.534,-6.4725,-6.3906,-6.3437,-6.2928,-6.2497,-6.1947,-6.1816,-6.1718,-6.1718,-6.1835,-6.2149,-6.2493,-6.3211,-6.3936,-6.4712,-6.5394,-6.6035,-7.1992,-7.1992,-7.1991,-7.1988,-7.198,-7.201,-7.2006,-7.201,-7.1982,-7.1988,-7.199,-7.1992,-7.1992,-7.1992,-7.1992,-7.1991,-7.1991,-7.1992,-7.1992,-7.1992,-7.1992,-7.1992,-7.1992,-7.1953,-7.1719,-7.1211,-7.1093,-7.0819,-7.0506,-7.0894,-7.1162,-7.1382,-7.163,-7.1777,-7.1799,-7.1811,-7.1853,-7.1843,-7.1827,-7.1822,-7.1817,-7.1739,-7.1778,-7.1739,-7.1778,-7.1761,-7.1782,-7.1809,-7.1758,-7.1704,-7.1707,-7.1684,-7.1628,-7.1594,-7.1568,-7.1532,-7.1485,-7.1475,-7.1445,-7.1394,-7.1384,-7.1386,-7.1366,-7.1394,-7.1384,-7.1285,-7.1042,-7.0694,-7.0472,-7.0212,-6.9768,-6.9624,-6.9653,-6.9798,-6.9825,-6.992,-7.0041,-7.0393,-7.0393,-6.9694,-6.8645,-6.7782,-6.6846,-6.6729,-6.6613,-6.6588,-6.6601,-6.6601,-6.6607,-6.6663,-6.6707,-6.6712,-6.6717,-6.6741,-6.6502,-6.5982,-6.5702,-6.5611,-6.4801,-6.3828,-6.3281,-6.2694,-6.2382,-6.2107,-6.1937,-6.18,-6.1798,-6.1991,-6.2576,-6.331,-6.4112,-6.4762,-6.5414,-6.578,-6.6176,-7.1991,-7.1992,-7.1992,-7.199,-7.1981,-7.2012,-7.2006,-7.2006,-7.1977,-7.1985,-7.1989,-7.1992,-7.1992,-7.199,-7.1989,-7.1988,-7.1985,-7.1988,-7.1989,-7.199,-7.1992,-7.1992,-7.1992,-7.1992,-7.1875,-7.1914,-7.1835,-7.1637,-7.1871,-7.1748,-7.1778,-7.1885,-7.1861,-7.1927,-7.1913,-7.1889,-7.1897,-7.1838,-7.1822,-7.1817,-7.1817,-7.1817,-7.1817,-7.1817,-7.1817,-7.1806,-7.1794,-7.1794,-7.1776,-7.1745,-7.1711,-7.169,-7.1661,-7.1622,-7.1611,-7.155,-7.1436,-7.1396,-7.1366,-7.1313,-7.1302,-7.1324,-7.1313,-7.1291,-7.1302,-7.1302,-7.1175,-7.1098,-7.1031,-7.112,-7.1092,-7.1095,-7.1058,-7.1136,-7.1173,-7.1219,-7.1309,-7.1403,-7.1365,-7.0665,-6.9422,-6.828,-6.6977,-6.6607,-6.6607,-6.6639,-6.6651,-6.6612,-6.6618,-6.6657,-6.6696,-6.6712,-6.6722,-6.6736,-6.642,-6.5985,-6.5704,-6.5572,-6.4489,-6.3555,-6.3008,-6.2538,-6.2107,-6.1908,-6.1933,-6.1959,-6.2149,-6.2694,-6.3355,-6.4124,-6.4808,-6.5305,-6.5839,-6.5771,-6.5933,-7.1991,-7.1992,-7.1991,-7.199,-7.1987,-7.1981,-7.2008,-7.1997,-7.1973,-7.1982,-7.1985,-7.1992,-7.199,-7.1989,-7.1986,-7.1982,-7.1981,-7.1984,-7.1987,-7.1989,-7.199,-7.1992,-7.1992,-7.1992,-7.1991,-7.199,-7.1987,-7.1982,-7.1975,-7.2006,-7.2039,-7.1951,-7.2054,-7.2008,-7.1916,-7.1897,-7.1876,-7.1853,-7.1838,-7.1827,-7.1822,-7.1822,-7.1822,-7.1822,-7.1822,-7.1811,-7.1811,-7.1811,-7.1794,-7.177,-7.1732,-7.1697,-7.1699,-7.1628,-7.1598,-7.1465,-7.1366,-7.1324,-7.1313,-7.1302,-7.1291,-7.1291,-7.1291,-7.1291,-7.1291,-7.1291,-7.1291,-7.1291,-7.1302,-7.1313,-7.1384,-7.1425,-7.1465,-7.1513,-7.155,-7.1547,-7.1589,-7.1598,-7.1559,-7.0937,-6.9694,-6.8373,-6.7107,-6.6627,-6.6633,-6.6674,-6.6696,-6.6652,-6.6652,-6.6691,-6.6696,-6.6707,-6.6717,-6.6736,-6.6463,-6.607,-6.5787,-6.5415,-6.4411,-6.3554,-6.3123,-6.2613,-6.1988,-6.202,-6.2592,-6.2701,-6.2696,-6.3357,-6.413,-6.4701,-6.5344,-6.5808,-6.6147,-6.5996,-6.5582,-7.199,-7.1992,-7.1992,-7.199,-7.1989,-7.1984,-7.217,-7.2399,-7.2175,-7.1984,-7.1982,-7.1992,-7.1989,-7.1985,-7.1977,-7.1967,-7.1963,-7.1967,-7.1975,-7.1982,-7.1988,-7.1991,-7.1992,-7.1991,-7.199,-7.1988,-7.1982,-7.2012,-7.2043,-7.2346,-7.2495,-7.2026,-7.2171,-7.2171,-7.2047,-7.1916,-7.1901,-7.1885,-7.1867,-7.1848,-7.1838,-7.1833,-7.1833,-7.1833,-7.1833,-7.1833,-7.1833,-7.1833,-7.1817,-7.1788,-7.1751,-7.1711,-7.1668,-7.1628,-7.158,-7.1465,-7.1405,-7.1334,-7.1302,-7.1302,-7.1291,-7.1291,-7.1291,-7.1291,-7.1291,-7.1291,-7.1291,-7.1291,-7.1313,-7.1345,-7.1415,-7.1455,-7.1504,-7.1598,-7.1577,-7.1556,-7.1581,-7.1598,-7.1248,-7.0821,-6.9718,-6.8394,-6.745,-6.6938,-6.6651,-6.6686,-6.6707,-6.6702,-6.6702,-6.6702,-6.6702,-6.6707,-6.6717,-6.6693,-6.6428,-6.6196,-6.5872,-6.5461,-6.4726,-6.3944,-6.3394,-6.2843,-6.2334,-6.2796,-6.3605,-6.3596,-6.3547,-6.4202,-6.4899,-6.539,-6.58,-6.6182,-6.6248,-6.5957,-6.5353,-7.1987,-7.1992,-7.1992,-7.207,-7.2107,-7.2064,-7.2412,-7.3076,-7.2418,-7.2183,-7.2298,-7.2187,-7.2182,-7.2254,-7.2124,-7.1948,-7.1945,-7.199,-7.2,-7.2006,-7.1984,-7.199,-7.1992,-7.1991,-7.1988,-7.1985,-7.1978,-7.2004,-7.2197,-7.2383,-7.2417,-7.2065,-7.2573,-7.257,-7.206,-7.1933,-7.1924,-7.192,-7.1905,-7.1924,-7.1901,-7.1897,-7.1897,-7.1897,-7.1897,-7.1901,-7.1897,-7.1892,-7.1887,-7.1811,-7.1725,-7.1679,-7.1661,-7.1636,-7.155,-7.1485,-7.1435,-7.1384,-7.1302,-7.1291,-7.1291,-7.1291,-7.1291,-7.1291,-7.1291,-7.1291,-7.1291,-7.1302,-7.1324,-7.1366,-7.1445,-7.1494,-7.1589,-7.1586,-7.1603,-7.1581,-7.1589,-7.145,-7.1062,-7.0526,-6.9655,-6.8324,-6.736,-6.6846,-6.6669,-6.6696,-6.6717,-6.6717,-6.6717,-6.6717,-6.6722,-6.6722,-6.6727,-6.6707,-6.6631,-6.6358,-6.5996,-6.5504,-6.5,-6.4682,-6.4364,-6.3618,-6.2716,-6.3757,-6.4911,-6.4557,-6.4587,-6.5162,-6.5542,-6.5765,-6.6178,-6.6555,-6.6464,-6.6142,-6.5314,-7.1977,-7.1986,-7.1989,-7.2343,-7.2851,-7.2265,-7.2109,-7.2343,-7.2851,-7.3359,-7.3748,-7.332,-7.3003,-7.2957,-7.2319,-7.2068,-7.2015,-7.2018,-7.1987,-7.2,-7.1977,-7.1988,-7.1991,-7.199,-7.1986,-7.1978,-7.2006,-7.1995,-7.2112,-7.2224,-7.23,-7.2026,-7.2456,-7.2339,-7.2026,-7.1943,-7.194,-7.194,-7.1972,-7.1948,-7.1911,-7.1915,-7.192,-7.1911,-7.1911,-7.1885,-7.192,-7.1906,-7.1897,-7.1877,-7.1764,-7.1697,-7.163,-7.1603,-7.1541,-7.1494,-7.1455,-7.1405,-7.1324,-7.1313,-7.1313,-7.1302,-7.1302,-7.1291,-7.1291,-7.1291,-7.1302,-7.1313,-7.1345,-7.1425,-7.1475,-7.1532,-7.1577,-7.1603,-7.1589,-7.1598,-7.1606,-7.1264,-7.0914,-7.0192,-6.9398,-6.8468,-6.7463,-6.6941,-6.6763,-6.6707,-6.6732,-6.6702,-6.6741,-6.6741,-6.6746,-6.6746,-6.6702,-6.6685,-6.6681,-6.6634,-6.6311,-6.6286,-6.6054,-6.5734,-6.537,-6.4702,-6.415,-6.5373,-6.6209,-6.5698,-6.55,-6.5952,-6.6295,-6.6287,-6.6356,-6.6654,-6.6732,-6.6449,-6.547,-7.2246,-7.2567,-7.2573,-7.2849,-7.3085,-7.2343,-7.2226,-7.2694,-7.3514,-7.4373,-7.496,-7.4334,-7.3863,-7.374,-7.2948,-7.2503,-7.2366,-7.2093,-7.2021,-7.1995,-7.201,-7.1984,-7.1991,-7.199,-7.1989,-7.1982,-7.2008,-7.1997,-7.2034,-7.2458,-7.2573,-7.2143,-7.2221,-7.2339,-7.2104,-7.1987,-7.1987,-7.1987,-7.1987,-7.1969,-7.1928,-7.1897,-7.1905,-7.1897,-7.1901,-7.1909,-7.1901,-7.1885,-7.1911,-7.1882,-7.177,-7.1683,-7.1622,-7.162,-7.1577,-7.1532,-7.1494,-7.1455,-7.1366,-7.1355,-7.1355,-7.1355,-7.1302,-7.1302,-7.1415,-7.1425,-7.1394,-7.1415,-7.1435,-7.1475,-7.1523,-7.1577,-7.1603,-7.1589,-7.1598,-7.1606,-7.1638,-7.1505,-7.1007,-7.0353,-6.9558,-6.8689,-6.7759,-6.6958,-6.6813,-6.6707,-6.6693,-6.672,-6.6759,-6.6767,-6.6732,-6.6736,-6.6736,-6.6748,-6.6736,-6.6761,-6.6701,-6.6756,-6.6834,-6.6513,-6.603,-6.5787,-6.5775,-6.6362,-6.6646,-6.6486,-6.6438,-6.6555,-6.6585,-6.6537,-6.661,-6.6717,-6.6717,-6.661,-6.5675,-7.2477,-7.3228,-7.3157,-7.32,-7.3163,-7.2342,-7.238,-7.3121,-7.4015,-7.4754,-7.5304,-7.4878,-7.4801,-7.4444,-7.3809,-7.3445,-7.3044,-7.2573,-7.23,-7.199,-7.2008,-7.1981,-7.1989,-7.1992,-7.199,-7.1985,-7.1973,-7.2006,-7.2004,-7.2425,-7.2534,-7.2263,-7.2419,-7.2732,-7.2224,-7.199,-7.1993,-7.199,-7.1987,-7.1982,-7.1933,-7.1888,-7.1924,-7.1927,-7.1888,-7.1888,-7.192,-7.1905,-7.1881,-7.1838,-7.1776,-7.1697,-7.1638,-7.1598,-7.1603,-7.1568,-7.1589,-7.1504,-7.1465,-7.1465,-7.1436,-7.1426,-7.1355,-7.1394,-7.1475,-7.1494,-7.1475,-7.1475,-7.1494,-7.1513,-7.1568,-7.1603,-7.1589,-7.1598,-7.1606,-7.1622,-7.1661,-7.1665,-7.1134,-7.0525,-6.9682,-6.8811,-6.7971,-6.7174,-6.6873,-6.6761,-6.6741,-6.6763,-6.6779,-6.6798,-6.6769,-6.6775,-6.6778,-6.6787,-6.6792,-6.6807,-6.682,-6.6794,-6.6835,-6.6824,-6.6727,-6.636,-6.6213,-6.6477,-6.6683,-6.6619,-6.6619,-6.6658,-6.6688,-6.6722,-6.6727,-6.6727,-6.6693,-6.6507,-6.5771,-7.2414,-7.3169,-7.2516,-7.2642,-7.3117,-7.2418,-7.2105,-7.2374,-7.3231,-7.366,-7.4245,-7.5302,-7.5655,-7.5577,-7.4721,-7.4129,-7.3601,-7.3127,-7.2489,-7.2018,-7.2197,-7.2092,-7.2025,-7.207,-7.203,-7.1985,-7.1977,-7.2008,-7.2008,-7.2193,-7.2227,-7.2078,-7.2041,-7.2197,-7.2119,-7.2002,-7.2,-7.1995,-7.199,-7.1987,-7.1984,-7.194,-7.1937,-7.1937,-7.194,-7.1933,-7.1924,-7.1905,-7.1885,-7.1843,-7.1776,-7.1711,-7.1661,-7.1622,-7.1628,-7.1603,-7.1624,-7.155,-7.1523,-7.1513,-7.1484,-7.1529,-7.1474,-7.1475,-7.1541,-7.1556,-7.1577,-7.1559,-7.1568,-7.1559,-7.1594,-7.1581,-7.1598,-7.1606,-7.1606,-7.1638,-7.1668,-7.1621,-7.1315,-7.0536,-6.9718,-6.8811,-6.794,-6.7291,-6.6837,-6.6767,-6.6779,-6.6794,-6.6783,-6.6811,-6.6795,-6.6839,-6.6844,-6.6832,-6.6823,-6.6805,-6.6821,-6.6794,-6.6796,-6.6824,-6.68,-6.6805,-6.6767,-6.6746,-6.6722,-6.6688,-6.6727,-6.6741,-6.6732,-6.6732,-6.6702,-6.6707,-6.6711,-6.6477,-6.5814]},{"header":{"parameterUnit":"m.s-1","parameterCategory":1,"la1":31.0,"la2":29.5877,"lo1":-88.7671,"lo2":-86.6584,"dy":0.0162,"dx":0.0185,"nx":115,"ny":88,"refTime":"2025-05-20T12:00:00:Z","depth":0,"parameterNumber":3,"parameterNumberName":"V-component_of_WINDS"},"data":[0.0,0.0,0.0,0.0,0.0,0.0,0.0,0.0,0.0,0.0,0.0,0.0,0.0,0.0,0.0,0.0,0.0,0.0,0.0,0.0,0.0,0.0,0.0,0.0,0.0,0.0,0.0,0.0,0.0,0.0,0.0,0.0,0.0,0.0,0.0,0.0,0.0,0.0,0.0,0.0,0.0,0.1982,0.2034,0.2134,0.2121,0.2224,0.2521,0.0,0.0,0.0,0.0,0.0,0.0,0.0,0.0,0.0,0.0,0.0,0.0,0.0,0.0,0.0,0.0,0.0,0.0,0.0,0.0,0.0,0.0,0.0,0.0,0.0,0.0,0.0,0.0,0.0,0.0,0.0,0.0,0.0,0.0,0.0,0.0,0.0,0.0,0.0,0.0,0.0,0.0,0.0,0.0,0.0,0.0,0.0,0.0,0.0,0.0,0.0,0.0,0.0,0.0,0.0,0.0,0.0,0.0,0.0,0.0,0.0,0.0,0.0,0.0,0.0,0.0,0.0,0.0,0.0,0.0,0.0,0.0,0.0,0.0,0.0,0.0,0.0,0.0,0.0,0.0,0.0,0.0,0.0,0.0,0.0,0.0,0.0,0.0,0.0,0.0,0.0,0.0,0.0,0.0,0.0,0.0,0.0,0.0,0.0,0.0,0.0,0.0,0.0,0.0,0.0,0.0,0.0,0.0,0.0,0.0,0.2351,0.2705,0.2462,0.261,0.3191,0.0,0.0,0.0,0.0,0.0,0.0,0.0,0.0,0.0,0.0,0.0,0.0,0.0,0.0,0.0,0.0,0.0,0.0,0.0,0.0,0.0,0.0,0.0,0.0,0.0,0.0,0.0,0.0,0.0,0.0,0.0,0.0,0.0,0.0,0.0,0.0,0.0,0.0,0.0,0.0,0.0,0.0,0.0,0.0,0.0,0.0,0.0,0.0,0.0,0.0,0.0,0.0,0.0,0.0,0.0,0.0,0.0,0.0,0.0,0.0,0.0,0.0,0.0,0.0,0.0,0.0,0.0,0.0,0.0,0.0,0.0,0.0,0.0,0.0,0.0,0.0,0.0,0.0,0.0,0.0,0.0,0.0,0.0,0.0,0.0,0.0,0.0,0.0,0.0,0.0,0.0,0.0,0.0,0.0,0.0,0.0,0.0,0.0,0.0,0.0,0.0,0.0,0.0,0.0,0.0,0.0,0.0,0.0,0.0,0.0,0.2628,0.2519,0.2851,0.3229,0.3633,0.0,0.0,0.0,0.0,0.0,0.0,0.0,0.0,0.0,0.0,0.0,0.0,0.0,0.0,0.0,0.0,0.0,0.0,0.0,0.0,0.0,0.0,0.0,0.0,0.0,0.0,0.0,0.0,0.0,0.0,0.0,0.0,0.0,0.0,0.0,0.0,0.0,0.0,0.0,0.0,0.0,0.0,0.0,0.0,0.0,0.0,0.0,0.0,0.0,0.0,0.0,0.0,0.0,0.0,0.0,0.0,0.0,0.0,0.0,0.0,0.0,0.0,0.0,0.0,0.0,0.0,0.0,0.0,0.0,0.0,0.0,0.0,0.0,0.0,0.0,0.0,0.0,0.0,0.0,0.0,0.0,0.0,0.0,0.0,0.0,0.0,0.0,0.0,0.0,0.0,0.0,0.0,0.0,0.0,0.0,0.0,0.0,0.0,0.0,0.0,0.0,0.0,0.0,0.0,0.0,0.0,0.0,0.0,0.0,0.0,0.2949,0.3282,0.3491,0.383,0.4278,0.4497,0.0,0.0,0.0,0.0,0.0,0.0,0.0,0.0,0.0,0.0,0.0,0.0,0.0,0.0,0.0,0.0,0.0,0.0,0.0,0.0,0.0,0.0,0.0,0.0,0.0,0.0,0.0,0.0,0.0,0.0,0.0,0.0,0.0,0.0,0.0,0.0,0.0,0.0,0.0,0.0,0.0,0.0,0.0,0.0,0.0,0.0,0.0,0.0,0.0,0.0,0.0,0.0,0.0,0.0,0.0,0.0,0.0,0.0,0.0,0.0,0.0,0.0,0.0,0.0,0.0,0.0,0.0,0.0,0.0,0.0,0.0,0.0,0.0,0.0,0.0,0.0,0.0,0.0,0.0,0.0,0.0,0.0,0.0,0.0,0.0,0.0,0.0,0.0,0.0,0.0,0.0,0.0,0.0,0.0,0.0,0.0,0.0,0.0,0.0,0.0,0.0,0.0,0.0,0.0,0.0,0.0,0.0,0.0,0.0,0.3311,0.4208,0.4174,0.4382,0.498,0.5243,0.0,0.0,0.0,0.0,0.0,0.0,0.0,0.0,0.0,0.0,0.0,0.0,0.0,0.0,0.0,0.0,0.0,0.0,0.0,0.0,0.0,0.0,0.0,0.0,0.0,0.0,0.0,0.0,0.0,0.0,0.0,0.0,0.0,0.0,0.0,0.0,0.0,0.0,0.0,0.0,0.0,0.0,0.0,0.0,0.0,0.0,0.0,0.0,0.0,0.0,0.0,0.0,0.0,0.0,0.0,0.0,0.0,0.0,0.0,0.0,0.0,0.0,0.0,0.0,0.0,0.0,0.0,0.0,0.0,0.0,0.0,0.0,0.0,0.0,0.0,0.0,0.0,0.0,0.0,0.0,0.0,0.0,0.0,0.0,0.0,0.0,0.0,0.0,0.0,0.0,0.0,0.0,0.0,0.0,0.0,0.0,0.0,0.0,0.0,0.0,0.0,0.0,0.0,0.0,0.0,0.0,0.0,0.0,0.0,0.4017,0.4083,0.4454,0.4941,0.5448,0.5033,0.0,0.0,0.0,0.0,0.0,0.0,0.0,0.0,0.0,0.0,0.0,0.0,0.0,0.0,0.0,0.0,0.0,0.0,0.0,0.0,0.0,0.0,0.0,0.0,0.0,0.0,0.0,0.0,0.0,0.0,0.0,0.0,0.0,0.0,0.0,0.0,0.0,0.0,0.0,0.0,0.0,0.0,0.0,0.0,0.0,0.0,0.0,0.0,0.0,0.0,0.0,0.0,0.0,0.0,0.0,0.0,0.0,0.0,0.0,0.0,0.0,0.0,0.0,0.0,0.0,0.0,0.0,0.0,0.0,0.0,0.0,0.0,0.0,0.0,0.0,0.0,0.0,0.0,0.0,0.0,0.0,0.0,0.0,0.0,0.0,0.0,0.0,0.0,0.0,0.0,0.0,0.0,0.0,0.0,0.0,0.0,0.0,0.0,0.0,0.0,0.0,0.0,0.0,0.0,0.0,0.0,0.0,0.0,0.0,0.4351,0.4649,0.5104,0.5561,0.5932,0.5731,0.0,0.0,0.0,0.0,0.0,0.0,0.0,0.0,0.0,0.0,0.0,0.0,0.0,0.0,0.0,0.0,0.0,0.0,0.0,0.0,0.0,0.0,0.0,0.0,0.0,0.0,0.0,0.0,0.0,0.0,0.0,0.0,0.0,0.0,0.0,0.0,0.0,0.0,0.0,0.0,0.0,0.0,0.0,0.0,0.0,0.0,0.0,0.0,0.0,0.0,0.0,0.0,0.0,0.0,0.0,0.0,0.0,0.0,0.0,0.0,0.0,0.0,0.0,0.0,0.0,0.0,0.0,0.0,0.0,0.0,0.0,0.0,0.0,0.0,0.0,0.0,0.0,0.0,0.0,0.0,0.0,0.0,0.0,0.0,0.0,0.0,0.0,0.0,0.0,0.0,0.0,0.0,0.0,0.0,0.0,0.0,0.0,0.0,0.0,0.0,0.0,0.0,0.0,0.0,0.0,0.0,0.0,0.0,0.4247,0.4671,0.5415,0.5806,0.6152,0.6465,0.6557,0.0,0.0,0.0,0.0,0.0,0.0,0.0,0.0,0.0,0.0,0.0,0.0,0.0,0.0,0.0,0.0,0.0,0.0,0.0,0.0,0.0,0.0,0.0,0.0,0.0,0.0,0.0,0.0,0.0,0.0,0.0,0.0,0.0,0.0,0.0,0.0,0.0,0.0,0.0,0.0,0.0,0.0,0.0,0.0,0.0,0.0,0.0,0.0,0.0,0.0,0.0,0.0,0.0,0.0,0.0,0.0,0.0,0.0,0.0,0.0,0.0,0.0,0.0,0.0,0.0,0.0,0.0,0.0,0.0,0.0,0.0,0.0,0.0,0.0,0.0,0.0,0.0,0.0,0.0,0.0,0.0,0.0,0.0,0.0,0.0,0.0,0.0,0.0,0.0,0.0,0.0,0.0,0.0,0.0,0.0,0.0,0.0,0.0,0.0,0.0,0.0,0.0,0.0,0.0,0.0,0.0,0.0,0.4814,0.4969,0.5367,0.6044,0.629,0.6622,0.7048,0.6836,0.0,0.0,0.0,0.0,0.0,0.0,0.0,0.0,0.0,0.0,0.0,0.0,0.0,0.0,0.0,0.0,0.0,0.0,0.0,0.0,0.0,0.0,0.0,0.0,0.0,0.0,0.0,0.0,0.0,0.0,0.0,0.0,0.0,0.0,0.0,0.0,0.0,0.0,0.0,0.0,0.0,0.0,0.0,0.0,0.0,0.0,0.0,0.0,0.0,0.0,0.0,0.0,0.0,0.0,0.0,0.0,0.0,0.0,0.0,0.0,0.0,0.0,0.0,0.0,0.0,0.0,0.0,0.0,0.0,0.0,0.0,0.0,0.0,0.0,0.0,0.0,0.0,0.0,0.0,0.0,0.0,0.0,0.0,0.0,0.0,0.0,0.0,0.0,0.0,0.0,0.0,0.0,0.0,0.0,0.0,0.0,0.0,0.0,0.0,0.0,0.0,0.0,0.0,0.0,0.0,0.0,0.4471,0.4678,0.5019,0.5557,0.626,0.6546,0.6867,0.7278,0.7214,0.0,0.0,0.0,0.0,0.0,0.0,0.0,0.0,0.0,0.0,0.0,0.0,0.0,0.0,0.0,0.0,0.0,0.0,0.0,0.0,0.0,0.0,0.0,0.0,0.0,0.0,0.0,0.0,0.0,0.0,0.0,0.0,0.0,0.0,0.0,0.0,0.0,0.0,0.0,0.0,0.0,0.0,0.0,0.0,0.0,0.0,0.0,0.0,0.0,0.0,0.0,0.0,0.0,0.0,0.0,0.0,0.0,0.0,0.0,0.0,0.0,0.0,0.0,0.0,0.0,0.0,0.0,0.0,0.0,0.0,0.0,0.0,0.0,0.0,0.0,0.0,0.0,0.0,0.0,0.0,0.0,0.0,0.0,0.0,0.0,0.0,0.0,0.0,0.0,0.0,0.0,0.0,0.0,0.0,0.0,0.0,0.0,0.0,0.0,0.0,0.0,0.0,0.0,0.0,0.0,0.0,0.4349,0.4503,0.504,0.5738,0.6462,0.6656,0.6936,0.7333,0.0,0.0,0.0,0.0,0.0,0.0,0.0,0.0,0.0,0.0,0.0,0.0,0.0,0.0,0.0,0.0,0.0,0.0,0.0,0.0,0.0,0.0,0.0,0.0,0.0,0.0,0.0,0.0,0.0,0.0,0.0,0.0,0.0,0.0,0.0,0.0,0.0,0.0,0.0,0.0,0.0,0.0,0.0,0.0,0.0,0.0,0.0,0.0,0.0,0.0,0.0,0.0,0.0,0.0,0.0,0.0,0.0,0.0,0.0,0.0,0.0,0.0,0.0,0.0,0.0,0.0,0.0,0.0,0.0,0.0,0.0,0.0,0.0,0.0,0.0,0.0,0.0,0.0,0.0,0.0,0.0,0.0,0.0,0.0,0.0,0.0,0.0,0.0,0.0,0.0,0.0,0.0,0.0,0.0,0.0,0.0,0.0,0.0,0.0,0.0,0.0,0.0,0.0,0.0,0.0,0.0,0.0,0.4029,0.4668,0.5427,0.6187,0.6896,0.6676,0.6763,0.7168,0.0,0.0,0.0,0.0,0.0,0.0,0.0,0.0,0.0,0.0,0.0,0.0,0.0,0.0,0.0,0.0,0.0,0.0,0.0,0.0,0.0,0.0,0.0,0.0,0.0,0.0,0.0,0.0,0.0,0.0,0.0,0.0,0.0,0.0,0.0,0.0,0.0,0.0,0.0,0.0,0.0,0.0,0.0,0.0,0.0,0.0,0.0,0.0,0.0,0.0,0.0,0.0,0.0,0.0,0.0,0.0,0.0,0.0,0.0,0.0,0.0,0.0,0.0,0.0,0.0,0.0,0.0,0.0,0.0,0.0,0.0,0.0,0.0,0.0,0.0,0.0,0.0,0.0,0.0,0.0,0.0,0.0,0.0,0.0,0.0,0.0,0.0,0.0,0.0,0.0,0.0,0.0,0.0,0.0,0.0,0.0,0.0,0.0,0.0,0.0,0.0,0.0,0.0,0.0,0.0,0.0,0.3482,0.4057,0.4755,0.5242,0.5891,0.673,0.6916,0.6993,0.7083,0.0,0.0,0.0,0.0,0.0,0.0,0.0,0.0,0.0,0.0,0.0,0.0,0.0,0.0,0.0,0.0,0.0,0.0,0.0,0.0,0.0,0.0,0.0,0.0,0.0,0.0,0.0,0.0,0.0,0.0,0.0,0.0,0.0,0.0,0.0,0.0,0.0,0.0,0.0,0.0,0.0,0.0,0.0,0.0,0.0,0.0,0.0,0.0,0.0,0.0,0.0,0.0,0.0,0.0,0.0,0.0,0.0,0.0,0.0,0.0,0.0,0.0,0.0,0.0,0.0,0.0,0.0,0.0,0.0,0.0,0.0,0.0,0.0,0.0,0.0,0.0,0.0,0.0,0.0,0.0,0.0,0.0,0.0,0.0,0.0,0.0,0.0,0.0,0.0,0.0,0.0,0.0,0.0,0.0,0.0,0.0,0.0,0.0,0.0,0.0,0.0,0.0,0.0,0.0,0.0,0.2869,0.3314,0.3913,0.4547,0.4967,0.5601,0.6523,0.6852,0.6992,0.7024,0.0,0.0,0.0,0.0,0.0,0.0,0.0,0.0,0.0,0.0,0.0,0.0,0.0,0.0,0.0,0.0,0.0,0.0,0.0,0.0,0.0,0.0,0.0,0.0,0.0,0.0,0.0,0.0,0.0,0.0,0.0,0.0,0.0,0.0,0.0,0.0,0.0,0.0,0.0,0.0,0.0,0.0,0.0,0.0,0.0,0.0,0.0,0.0,0.0,0.0,0.0,0.0,0.0,0.0,0.0,0.0,0.0,0.0,0.0,0.0,0.0,0.0,0.0,0.0,0.0,0.0,0.0,0.0,0.0,0.0,0.0,0.0,0.0,0.0,0.0,0.0,0.0,0.0,0.0,0.0,0.0,0.0,0.0,0.0,0.0,0.0,0.0,0.0,0.0,0.0,0.0,0.0,0.0,0.0,0.0,0.0,0.0,0.0,0.0,0.0,0.0,0.0,0.0,0.0,0.0,0.0,0.3027,0.3437,0.4016,0.4739,0.5553,0.6431,0.6356,0.6507,0.7038,0.0,0.0,0.0,0.0,0.0,0.0,0.0,0.0,0.0,0.0,0.0,0.0,0.0,0.0,0.0,0.0,0.0,0.0,0.0,0.0,0.0,0.0,0.0,0.0,0.0,0.0,0.0,0.0,0.0,0.0,0.0,0.0,0.0,0.0,0.0,0.0,0.0,0.0,0.0,0.0,0.0,0.0,0.0,0.0,0.0,0.0,0.0,0.0,0.0,0.0,0.0,0.0,0.0,0.0,0.0,0.0,0.0,0.0,0.0,0.0,0.0,0.0,0.0,0.0,0.0,0.0,0.0,0.0,0.0,0.0,0.0,0.0,0.0,0.0,0.0,0.0,0.0,0.0,0.0,0.0,0.0,0.0,0.0,0.0,0.0,0.0,0.0,0.0,0.0,0.0,0.0,0.0,0.0,0.0,0.0,0.0,0.0,0.0,0.0,0.0,0.0,0.0,0.0,0.0,0.0,0.0,0.2534,0.2856,0.3349,0.4731,0.5405,0.5309,0.6391,0.6761,0.6195,0.0,0.0,0.0,0.0,0.0,0.0,0.0,0.0,0.0,0.0,0.0,0.0,0.0,0.0,0.0,0.0,0.0,0.0,0.0,0.0,0.0,0.0,0.0,0.0,0.0,0.0,0.0,0.0,0.0,0.0,0.0,0.0,0.0,0.0,0.0,0.0,0.0,0.0,0.0,0.0,0.0,0.0,0.0,0.0,0.0,0.0,0.0,0.0,0.0,0.0,0.0,0.0,0.0,0.0,0.0,0.0,0.0,0.0,0.0,0.0,0.0,0.0,0.0,0.0,0.0,0.0,0.0,0.0,0.0,0.0,0.0,0.0,0.0,0.0,0.0,0.0,0.0,0.0,0.0,0.0,0.0,0.0,0.0,0.0,0.0,0.0,0.0,0.0,0.0,0.0,0.0,0.0,0.0,0.0,0.0,0.0,0.0,0.0,0.0,0.0,0.0,0.0,0.0,0.0,0.0,0.0,0.1955,0.2332,0.2875,0.4771,0.5661,0.5482,0.6396,0.6723,0.0,0.0,0.0,0.0,0.0,0.0,0.0,0.0,0.0,0.0,0.0,0.0,0.0,0.0,0.0,0.0,0.0,0.0,0.0,0.0,0.0,0.0,0.0,0.0,0.0,0.0,0.0,0.0,0.0,0.0,0.0,0.0,0.0,0.0,0.0,0.0,0.0,0.0,0.0,0.0,0.0,0.0,0.0,0.0,0.0,0.0,0.0,0.0,0.0,0.0,0.0,0.0,0.0,0.0,0.0,0.0,0.0,0.0,0.0,0.0,0.0,0.0,0.0,0.0,0.0,0.0,0.0,0.0,0.0,0.0,0.0,0.0,0.0,0.0,0.0,0.0,0.0,0.0,0.0,0.0,0.0,0.0,0.0,0.0,0.0,0.0,0.0,0.0,0.0,0.0,0.0,0.0,0.0,0.0,0.0,0.0,0.0,0.0,0.0,0.0,0.0,0.0,0.0,0.0,0.0,0.0,0.0,0.129,0.1873,0.2727,0.4834,0.6226,0.6997,0.6338,0.646,0.0,0.0,0.0,0.0,0.0,0.0,0.0,0.0,0.0,0.0,0.0,0.0,0.0,0.0,0.0,0.0,0.0,0.0,0.0,0.0,0.0,0.0,0.0,0.0,0.0,0.0,0.0,0.0,0.0,0.0,0.0,0.0,0.0,0.0,0.0,0.0,0.0,0.0,0.0,0.0,0.0,0.0,0.0,0.0,0.0,0.0,0.0,0.0,0.0,0.0,0.0,0.0,0.0,0.0,0.0,0.0,0.0,0.0,0.0,0.0,0.0,0.0,0.0,0.0,0.0,0.0,0.0,0.0,0.0,0.0,0.0,0.0,0.0,0.0,0.0,0.0,0.0,0.0,0.0,0.0,0.0,0.0,0.0,0.0,0.0,0.0,0.0,0.0,0.0,0.0,0.0,0.0,0.0,0.0,0.0,0.0,0.0,0.0,0.0,0.0,0.0,0.0,0.0,0.0,0.0,0.0,0.0,0.0678,0.1224,0.2098,0.4262,0.5506,0.581,0.7285,0.7622,0.6637,0.0,0.0,0.0,0.0,0.0,0.0,0.0,0.0,0.0,0.0,0.0,0.0,0.0,0.0,0.0,0.0,0.0,0.0,0.0,0.0,0.0,0.0,0.0,0.0,0.0,0.0,0.0,0.0,0.0,0.0,0.0,0.0,0.0,0.0,0.0,0.0,0.0,0.0,0.0,0.0,0.0,0.0,0.0,0.0,0.0,0.0,0.0,0.0,0.0,0.0,0.0,0.0,0.0,0.0,0.0,0.0,0.0,0.0,0.0,0.0,0.0,0.0,0.0,0.0,0.0,0.0,0.0,0.0,0.0,0.0,0.0,0.0,0.0,0.0,0.0,0.0,0.0,0.0,0.0,0.0,0.0,0.0,0.0,0.0,0.0,0.0,0.0,0.0,0.0,0.0,0.0,0.0,0.0,0.0,0.0,0.0,0.0,0.0,0.0,0.0,0.0,0.0,0.0,0.0,0.0,0.0,-0.0066,0.044,0.166,0.358,0.5039,0.5952,0.746,0.7825,0.6892,0.0,0.0,0.0,0.0,0.0,0.0,0.0,0.0,0.0,0.0,0.0,0.0,0.0,0.0,0.0,0.0,0.0,0.0,0.0,0.0,0.0,0.0,0.0,0.0,0.0,0.0,0.0,0.0,0.0,0.0,0.0,0.0,0.0,0.0,0.0,0.0,0.0,0.0,0.0,0.0,0.0,0.0,0.0,0.0,0.0,0.0,0.0,0.0,0.0,0.0,0.0,0.0,0.0,0.0,0.0,0.0,0.0,0.0,0.0,0.0,0.0,0.0,0.0,0.0,0.0,0.0,0.0,0.0,0.0,0.0,0.0,0.0,0.0,0.0,0.0,0.0,0.0,0.0,0.0,0.0,0.0,0.0,0.0,0.0,0.0,0.0,0.0,0.0,0.0,0.0,0.0,0.0,0.0,0.0,0.0,0.0,0.0,0.0,0.0,0.0,0.0,0.0,0.0,0.0,0.0,0.0,0.0,-0.0295,0.1291,0.2879,0.488,0.7172,0.7092,0.7344,0.8031,0.0,0.0,0.0,0.0,0.0,0.0,0.0,0.0,0.0,0.0,0.0,0.0,0.0,0.0,0.0,0.0,0.0,0.0,0.0,0.0,0.0,0.0,0.0,0.0,0.0,0.0,0.0,0.0,0.0,0.0,0.0,0.0,0.0,0.0,0.0,0.0,0.0,0.0,0.0,0.0,0.0,0.0,0.0,0.0,0.0,0.0,0.0,0.0,0.0,0.0,0.0,0.0,0.0,0.0,0.0,0.0,0.0,0.0,0.0,0.0,0.0,0.0,0.0,0.0,0.0,0.0,0.0,0.0,0.0,0.0,0.0,0.0,0.0,0.0,0.0,0.0,0.0,0.0,0.0,0.0,0.0,0.0,0.0,0.0,0.0,0.0,0.0,0.0,0.0,0.0,0.0,0.0,0.0,0.0,0.0,0.0,0.0,0.0,0.0,0.0,0.0,0.0,0.0,0.0,0.0,0.0,-0.0748,-0.0582,0.0361,0.1922,0.4054,0.6773,0.8291,0.8982,0.8762,0.0,0.0,0.0,0.0,0.0,0.0,0.0,0.0,0.0,0.0,0.0,0.0,0.0,0.0,0.0,0.0,0.0,0.0,0.0,0.0,0.0,0.0,0.0,0.0,0.0,0.0,0.0,0.0,0.0,0.0,0.0,0.0,0.0,0.0,0.0,0.0,0.0,0.0,0.0,0.0,0.0,0.0,0.0,0.0,0.0,0.0,0.0,0.0,0.0,0.0,0.0,0.0,0.0,0.0,0.0,0.0,0.0,0.0,0.0,0.0,0.0,0.0,0.0,0.0,0.0,0.0,0.0,0.0,0.0,0.0,0.0,0.0,0.0,0.0,0.0,0.0,0.0,0.0,0.0,0.0,0.0,0.0,0.0,0.0,0.0,0.0,0.0,0.0,0.0,0.0,0.0,0.0,0.0,0.0,0.0,0.0,0.0,0.0,0.0,0.0,0.0,0.0,0.0,0.0,0.0,0.0,-0.089,-0.0718,0.0165,0.1547,0.3554,0.6204,0.7951,0.8894,0.9026,0.0,0.0,0.0,0.0,0.0,0.0,0.0,0.0,0.0,0.0,0.0,0.0,0.0,0.0,0.0,0.0,0.0,0.0,0.0,0.0,0.0,0.0,0.0,0.0,0.0,0.0,0.0,0.0,0.0,0.0,0.0,0.0,0.0,0.0,0.0,0.0,0.0,0.0,0.0,0.0,0.0,0.0,0.0,0.0,0.0,0.0,0.0,0.0,0.3594,0.0,0.0,0.0,0.0,0.0,0.0,0.0,0.0,0.0,0.0,0.0,0.0,0.0,0.0,0.0,0.0,0.0,0.0,0.0,0.0,0.0,0.0,0.0,0.0,0.0,0.0,0.0,0.0,0.0,0.0,0.0,0.0,0.0,0.0,0.0,0.0,0.0,0.0,0.0,0.0,0.0,0.0,0.0,0.0,0.0,0.0,0.0,0.0,0.0,0.0,0.0,0.0,0.0,0.0,0.0,0.0533,-0.0289,-0.0926,-0.077,0.0345,0.1366,0.301,0.5339,0.6841,0.8075,0.9091,0.0,0.0,0.0,0.0,0.0,0.0,0.0,0.0,0.0,0.0,0.0,0.0,0.0,0.0,0.0,0.0,0.0,0.0,0.0,0.0,0.0,0.0,0.0,0.0,0.0,0.0,0.0,0.0,0.0,0.0,0.0,0.0,0.0,0.0,0.0,0.0,0.0,0.0,0.0,0.0,0.0,0.0,0.0,0.0,0.0,0.0,0.0,0.1393,0.3454,0.0,0.0,0.0,0.0,0.0,0.0,0.0,0.0,0.0,0.0,0.0,0.0,0.0,0.0,0.0,0.0,0.0,0.0,0.0,0.0,0.0,0.0,0.0,0.0,0.0,0.0,0.0,0.4783,0.0,0.535,0.0,0.0,0.0,0.0,0.0,0.0,0.0,0.0,0.0,0.0,0.0,0.0,0.0,0.0,0.0,0.0,0.0,0.0,0.0,0.0,0.0,0.0,0.0,0.0,0.1998,0.1179,0.017,-0.0342,-0.0596,-0.0585,0.0242,0.1816,0.4133,0.73,0.9174,0.9537,0.0,0.0,0.0,0.0,0.0,0.0,0.0,0.0,0.0,0.0,0.0,0.0,0.0,0.0,0.0,0.0,0.0,0.0,0.0,0.0,0.0,0.0,0.0,0.0,0.0,0.0,0.0,0.0,0.0,0.0,0.0,0.0,0.0,0.0,0.0,0.0,0.0,0.0,0.0,0.0,0.0,0.0,0.0,0.0,0.0,0.0,0.0,-0.3427,0.0,0.0,0.0,0.0,0.0,0.0,0.0,0.0,0.0,0.0,0.0,0.0,0.0,0.0,0.0,0.0,0.0,0.0,0.0,0.0,0.0,0.0,0.0,0.0,0.0,0.0,0.0,0.0,0.4532,0.5089,0.4959,0.0,0.0,0.0,0.0,0.0,0.0,0.0,0.0,0.0,0.0,0.0,0.0,0.0,0.0,0.0,0.0,0.0,0.0,0.0,0.0,0.0,0.0,0.0,0.3037,0.2391,0.1527,0.0504,0.0,-0.05,-0.0882,-0.006,0.1231,0.3219,0.6406,0.8436,0.9085,0.0,0.0,0.0,0.0,0.0,0.0,0.0,0.0,0.0,0.0,0.0,0.0,0.0,0.0,0.0,0.0,0.0,0.0,0.0,0.0,0.0,0.0,0.0,0.0,0.0,0.0,0.0,0.0,0.0,0.0,0.0,0.0,0.0,0.0,0.0,0.0,0.0,0.0445,-0.0165,0.0,0.0,0.0,0.0,0.0,0.0,0.0,0.0,-0.2917,-0.1571,0.0,0.0,0.0,0.0,0.0,0.0,0.0,0.0,0.0,0.0,0.0,0.0,0.0,0.0,0.0,0.0,0.0,0.0,0.0,0.0,0.0,0.0,0.0,0.0,0.0,0.0,0.0,0.4319,0.4829,0.472,0.0,0.0,0.0,0.0,0.0,0.0,0.0,0.0,0.0,0.0,0.0,0.0,0.0,0.0,0.0,0.0,0.0,0.0,0.0,0.0,0.0,0.0,0.0,0.3256,0.265,0.178,0.0688,0.0197,-0.0333,-0.0823,-0.0179,0.0872,0.2326,0.4948,0.6926,0.8117,0.0,0.0,0.0,0.0,0.0,0.0,0.0,0.0,0.0,0.0,0.0,0.0,0.0,0.0,0.0,0.0,0.0,0.0,0.0,0.0,0.0,0.0,0.0,0.0,0.0,0.0,0.0,0.0,0.0,0.0,0.0,0.0,0.0,0.0,0.0,0.0,0.0,-0.0642,-0.1601,0.1491,0.4073,0.0,0.0,0.0,0.0,0.0,0.0,0.0,-0.0912,-0.0346,0.022,0.0,0.0,0.0,0.0,0.0,0.0,0.0,0.0,0.0,0.0,0.0,0.0,0.0,0.0,0.0,0.0,0.0,0.0,0.0,0.0,0.0,0.0,0.0,0.0,0.0,0.3896,0.4279,0.4474,0.0,0.0,0.0,0.0,0.0,0.0,0.0,0.0,0.0,0.0,0.0,0.0,0.0,0.0,0.0,0.0,0.0,0.0,0.0,0.0,0.0,0.0,0.0,0.0,0.2765,0.1874,0.0875,0.0487,-0.0106,-0.0881,-0.0827,0.0,0.1724,0.3835,0.5498,0.6716,0.8076,0.0,0.0,0.0,0.0,0.0,0.0,0.0,0.0,0.0,0.0,0.0,0.0,0.0,0.0,0.0,0.0,0.0,0.0,0.0,0.0,0.0,0.0,0.0,0.0,0.0,0.0,0.0,0.0,0.0,0.0,0.0,0.0,0.0,0.0,0.0,0.0,-0.2396,-0.1913,-0.1571,-0.0421,0.2031,0.0,0.0,0.0,0.0,0.0,-0.4601,-0.2439,-0.0834,-0.2469,-0.0376,0.0,0.0,0.0,0.0,0.0,0.0,0.0,0.0,0.0,0.0,0.0,0.0,0.0,0.0,0.0,0.0,0.0,0.0,0.0,0.0,0.0,0.0,0.0,0.0,0.3654,0.4038,0.431,0.4281,0.4444,0.0,0.0,0.0,0.0,0.3115,0.0,0.0,0.0,0.0,0.0,0.0,0.0,0.0,0.0,0.0,0.0,0.0,0.0,0.0,0.0,0.0,0.0,0.3074,0.2244,0.1158,0.0873,0.0213,-0.0859,-0.0927,-0.0338,0.0945,0.2933,0.4601,0.5816,0.0,0.0,0.0,0.0,0.0,0.0,0.0,0.0,0.0,0.0,0.0,0.0,0.0,0.0,0.0,0.0,0.0,0.0,0.0,0.0,0.0,0.0,0.0,0.0,0.0,0.0,0.0,0.0,0.0,0.0,0.0,0.0,0.0,0.0,0.0,0.0,0.0,0.0,-0.3202,-0.4153,-0.3886,-0.0985,-0.1073,-0.1462,-0.1558,-0.1258,-0.205,-0.5247,-0.3587,-0.2324,-0.3526,0.0,0.0,0.0,0.0,0.0,0.0,0.0,0.0,0.0,0.0,0.0,0.0,0.0,0.0,0.0,0.0,0.0,0.0,0.0,0.0,0.0,0.0,0.0,0.0,0.0,0.0,0.3898,0.4124,0.416,0.4249,0.4357,0.0,0.0,0.0,0.2769,0.2207,0.0,0.0,0.0,0.0,0.0,0.0,0.0,0.0,0.0,0.0,0.0,0.0,0.0,0.0,0.0,0.0,0.3321,0.2562,0.1411,0.1188,0.0479,-0.0839,-0.0966,-0.067,-0.0053,0.1998,0.3675,0.5005,0.0,0.0,0.0,0.0,0.0,0.0,0.0,0.0,0.0,0.0,0.0,0.0,0.0,0.0,0.0,0.0,0.0,0.0,0.0,0.0,0.0,0.0,0.0,0.0,0.0,0.0,0.0,0.0,0.0,0.0,0.0,0.0,0.0,0.0,0.0,0.0,0.0,0.0,0.0,-0.615,-0.6218,-0.3694,-0.344,-0.3754,-0.4281,-0.3744,-0.3833,-0.544,-0.4649,-0.3914,0.0,0.0,0.0,0.0,0.0,0.0,0.0,0.0,0.0,0.0,0.0,0.0,0.0,0.0,0.0,0.0,0.0,0.0,0.0,0.0,0.0,0.0,0.1085,0.1501,0.0,0.0,0.3348,0.365,0.384,0.404,0.4209,0.4304,0.3506,0.3103,0.0,0.1947,0.143,0.1314,0.0,0.0,0.0,0.0,0.0,0.0,0.0,0.0,0.0,0.0,0.0,0.0,0.0,0.0,0.0,0.0,0.2514,0.1518,0.1332,0.055,-0.0836,-0.1124,-0.1207,-0.1197,0.0662,0.2403,0.4036,0.0,0.0,0.0,0.0,0.0,0.0,0.0,0.0,0.0,0.0,0.0,0.0,0.0,0.0,0.0,0.0,0.0,0.0,0.0,0.0,0.0,0.0,0.0,0.0,0.0,0.1805,0.0,0.0,0.0,0.0,0.0,0.0,0.0,0.0,0.0,0.0,0.0,0.0,0.0,0.0,-0.6827,-0.5221,-0.5079,-0.5134,-0.5195,-0.5393,-0.5852,-0.6741,-0.594,-0.5095,0.0,0.0,0.0,0.0,0.0,0.0,0.0,0.0,0.0,0.0,0.0,0.0,0.0,0.0,0.0,0.0,0.0,0.0,0.0,0.0,0.0,0.0,0.0402,0.0655,0.1472,0.2575,0.2871,0.3307,0.3791,0.3892,0.3892,0.3791,0.3246,0.2826,0.247,0.16,0.1037,0.0777,0.0,0.0,0.0,0.0,0.0,0.0,0.0,0.0,0.0,0.0,0.0,0.0,0.4038,0.3753,0.3337,0.2933,0.2253,0.1331,0.1057,0.031,-0.1061,-0.157,-0.1822,-0.1818,-0.0467,0.101,0.0,0.0,0.0,0.0,0.0,0.0,0.0,0.0,0.0,0.0,0.0,0.0,0.0,0.0,0.0,0.0,0.0,0.0,0.0,0.0,0.0,0.0,0.0,0.0,0.0,0.0895,0.027,-0.0402,0.0,0.0,0.0,0.0,0.0,0.0,0.0,0.0,0.0,0.0,0.0,0.0,0.0,-0.8082,-0.7331,-0.7232,-0.7296,-0.7264,-0.7163,-0.7078,-0.7275,-0.6689,-0.5936,0.0,0.0,0.0,0.0,0.0,0.0,0.0,0.0,0.0,0.0,0.0,0.0,0.0,0.0,0.0,0.0,0.0,0.0,-0.2407,-0.2245,-0.1902,-0.1236,-0.0414,-0.013,0.0797,0.2138,0.2457,0.3038,0.3706,0.3677,0.3526,0.3267,0.294,0.2463,0.1891,0.1214,0.0636,0.0193,0.0043,0.0,0.0,0.0,0.0,0.0,0.0,0.0,0.0,0.0,0.0,0.3649,0.3628,0.3289,0.2711,0.2488,0.1945,0.1021,0.0625,-0.0161,-0.1288,-0.2017,-0.2501,-0.2619,-0.175,-0.0518,0.0,0.0,0.0,0.0,0.0,0.0,0.0,0.0,0.0,0.0,0.0,0.0,0.0,0.0,0.0,0.0,0.0,0.0,0.0,0.0,0.0,0.0,0.0,0.1374,0.037,-0.0292,-0.1095,-0.2162,-0.2321,0.0,-0.2176,0.0,0.0,0.0,0.0,0.0,0.0,0.0,0.0,0.0,0.0,-0.926,-0.9037,-0.894,-0.8846,-0.8792,-0.8359,-0.7952,-0.7521,-0.721,-0.6519,0.0,0.0,0.0,0.0,0.0,0.0,0.0,0.0,0.0,0.0,0.0,0.0,0.0,0.0,0.0,0.0,0.0,0.0,-0.2701,-0.2246,-0.2035,-0.1659,-0.1255,-0.0569,0.0234,0.117,0.2176,0.2937,0.3471,0.3327,0.3141,0.2983,0.2412,0.1793,0.1164,0.0608,0.007,-0.0447,-0.0973,0.0,0.0,0.0,0.0,0.0,0.0,0.0,0.0,0.0,0.0,0.3453,0.3194,0.2715,0.2073,0.2061,0.1676,0.0828,0.0,-0.0715,-0.1289,-0.241,-0.3279,-0.3772,-0.3292,-0.23,0.0,0.0,0.0,0.0,0.0,0.0,0.0,0.0,0.0,0.0,0.0,0.0,0.0,0.0,0.0,0.0,0.0,0.0,0.0,0.0,0.0,0.0,0.0,0.0,-0.0558,-0.0764,-0.1453,-0.3058,-0.3046,-0.3399,-0.4624,0.0,0.0,0.0,0.0,0.0,0.0,0.0,0.0,0.0,0.0,-0.9885,-0.9809,-0.9554,-0.9226,-0.8775,-0.8615,-0.836,-0.7782,-0.7385,-0.6732,-0.5334,-0.4705,-0.4295,0.0,0.0,0.0,0.0,0.0,0.0,0.0,0.0,0.0,0.0,0.0,0.0,0.0,0.0,0.0,-0.3779,-0.3304,-0.3039,-0.2638,-0.2066,-0.1774,-0.0824,0.0495,0.0888,0.1618,0.2473,0.2506,0.2356,0.2062,0.18,0.1304,0.0658,0.0024,-0.0535,-0.1137,-0.212,0.0,0.0,0.0,0.0,0.0,0.0,0.0,0.0,0.0,0.0,0.2526,0.2515,0.2196,0.1561,0.0816,0.014,-0.0409,-0.1348,-0.216,-0.2784,-0.338,-0.3851,-0.4273,-0.4209,-0.3559,-0.2299,0.0,0.0,0.0,0.0,0.0,0.0,0.0,0.0,0.0,0.0,0.0,0.0,0.0,0.0,0.0,0.0,0.0,0.0,0.0,0.0,0.0,0.0,0.0,0.0,-0.1742,-0.2448,-0.3621,-0.371,-0.4051,-0.5009,-0.4228,0.0,0.0,0.0,0.0,0.0,0.0,0.0,-0.9197,0.0,-1.0347,-1.0824,-1.0339,-0.9644,-0.8742,-0.8991,-0.9004,-0.8058,-0.7716,-0.7276,-0.6143,-0.5839,-0.5531,-0.4931,0.0,0.0,0.0,0.0,0.0,0.0,0.0,0.0,0.0,0.0,0.0,0.0,0.0,0.0,-0.4404,-0.398,-0.3786,-0.332,-0.2774,-0.2636,-0.1726,-0.0351,-0.0236,0.0421,0.1373,0.142,0.1264,0.1072,0.0932,0.0556,-0.0025,-0.0648,-0.1355,-0.217,-0.3236,-0.3316,0.0,0.0,0.0,0.0,0.0,0.0,0.0,0.0,0.0,0.1588,0.1761,0.1497,0.0742,-0.0305,-0.105,-0.1512,-0.2593,-0.3301,-0.3651,-0.4055,-0.4421,-0.4756,-0.5009,-0.4792,-0.3936,0.0,0.0,0.0,0.0,-0.0904,0.0,0.0,0.0,0.0,0.0,0.0,0.0,0.0,0.0,0.0,0.0,0.0,0.0,0.0,0.0,0.0,0.0,0.0,0.0,0.0,-0.3035,-0.3924,-0.4271,-0.4601,-0.5086,-0.4432,-0.4067,-0.447,0.0,0.0,0.0,0.0,0.0,0.0,-1.0428,-1.0854,-1.1167,-1.0704,-1.0052,-0.9347,-0.9361,-0.9106,-0.8069,-0.7895,-0.7576,-0.6587,-0.6593,-0.6593,-0.6382,-0.6156,-0.5509,-0.3981,-0.4148,-0.4391,-0.3926,0.0,0.0,0.0,0.0,0.0,0.0,0.0,0.0,-0.4404,-0.4041,-0.4,-0.3745,-0.3345,-0.3056,-0.2417,-0.1478,-0.1098,-0.0505,0.0195,-0.0036,-0.0067,0.0,-0.0196,-0.0511,-0.099,-0.1458,-0.2426,-0.3678,-0.4267,-0.4228,-0.383,-0.3907,-0.3618,-0.2795,-0.1203,-0.0296,-0.0118,0.0455,0.0743,0.0747,0.098,0.0596,-0.0415,-0.1103,-0.1681,-0.2277,-0.3543,-0.3981,-0.3706,-0.4428,-0.5039,-0.5425,-0.5836,-0.5964,-0.5737,0.0,0.0,0.0,0.0,-0.2711,0.0,0.0,0.0,0.0,0.0,0.0,0.0,0.0,0.0,0.0,0.0,0.0,0.0,0.0,0.0,0.0,0.0,0.0,0.0,0.0,-0.3026,-0.4005,-0.4746,-0.5132,-0.5035,-0.4702,-0.479,0.0,0.0,0.0,0.0,0.0,-1.0222,-1.0303,-1.1106,-1.1424,-1.0822,-1.0414,-1.0341,-1.0749,-0.9587,-0.8448,-0.7855,-0.7781,-0.7441,-0.6507,-0.6645,0.0,0.0,0.0,0.0,0.0,0.0,0.0,0.0,0.0,0.0,0.0,0.0,0.0,0.0,0.0,0.0,-0.4808,-0.4659,-0.4532,-0.4538,-0.4589,-0.4128,-0.3742,-0.3287,-0.2643,-0.2104,-0.1644,-0.1347,-0.1058,-0.0839,-0.1252,-0.1577,-0.1898,-0.2976,-0.3834,-0.4466,-0.5223,-0.5333,-0.5006,-0.4971,-0.4667,-0.4011,-0.33,-0.2417,-0.1426,-0.0896,-0.041,0.0,0.004,-0.0278,-0.0924,-0.1946,-0.2811,-0.3526,-0.4646,-0.5318,-0.5459,-0.5855,-0.6265,-0.6599,-0.6895,-0.7095,-0.7139,-0.6404,0.0,0.0,-0.4825,-0.3917,0.0,0.0,0.0,0.0,0.0,0.0,0.0,0.0,0.0,0.0,0.0,0.0,0.0,0.0,0.0,0.0,0.0,0.0,0.0,0.0,-0.4135,-0.4365,-0.5135,-0.5471,-0.5054,-0.58,-0.6331,-0.6188,-0.754,-0.8686,-0.9232,-0.9935,-1.0699,-1.1335,-1.1457,-1.1298,-1.08,-1.0586,-1.0673,-1.1065,-0.9946,-0.8993,-0.8818,-0.8196,-0.76,-0.7287,-0.7095,-0.7331,-0.8457,-0.8371,-0.8754,-1.0798,-1.4055,-1.5324,-1.1759,-1.0601,-0.9718,-0.8132,-0.6242,-0.4514,-0.3295,-0.3261,-0.3523,-0.5152,-0.5052,-0.5031,-0.5169,-0.533,-0.5027,-0.4714,-0.4403,-0.4019,-0.3676,-0.3254,-0.2944,-0.2578,-0.2274,-0.2541,-0.2918,-0.3377,-0.4476,-0.5295,-0.585,-0.6416,-0.6481,-0.6004,-0.5697,-0.5299,-0.4868,-0.4658,-0.4008,-0.3041,-0.2317,-0.1695,-0.1258,-0.1114,-0.1327,-0.1832,-0.2816,-0.3664,-0.4369,-0.5215,-0.5942,-0.636,-0.6466,-0.6821,-0.7321,-0.7676,-0.7928,-0.8055,-0.7657,-0.7522,0.0,-0.5997,0.0,0.0,0.0,0.0,0.0,0.0,0.0,0.0,0.0,0.0,0.0,0.0,0.0,0.0,0.0,0.0,0.0,0.0,0.0,0.0,-0.4444,-0.4857,-0.5016,-0.5692,-0.6012,-0.5597,-0.6886,-0.7642,-0.729,-0.8671,-0.9768,-0.9912,-1.0683,-1.142,-1.1957,-1.1778,-1.1451,-1.0891,-1.0745,-1.0803,-1.1113,-1.0272,-0.9466,-0.9171,-0.8475,-0.7921,-0.7753,-0.7522,-0.7571,-0.8288,-0.9202,-1.0525,-1.2483,-1.6045,-1.7814,-1.4996,-1.359,-1.227,-1.0055,-0.7272,-0.4736,-0.3058,-0.2618,-0.2714,-0.5421,-0.5171,-0.5459,-0.561,-0.559,-0.567,-0.5351,-0.497,-0.5157,-0.5036,-0.461,-0.4753,-0.4618,-0.4237,-0.4098,-0.4592,-0.5485,-0.6021,-0.6785,-0.7592,-0.7667,-0.7465,-0.686,-0.6076,-0.5645,-0.5512,-0.5144,-0.5028,-0.4899,-0.3821,-0.3251,-0.3044,-0.2455,-0.2521,-0.315,-0.3713,-0.4258,-0.48,-0.5284,-0.5747,-0.627,-0.632,-0.6765,-0.7598,-0.8107,-0.8453,-0.8613,-0.8471,-0.8341,-0.8199,-0.6976,0.0,0.0,0.0,0.0,0.0,0.0,0.0,0.0,0.0,0.0,0.0,0.0,0.0,0.0,0.0,0.0,0.0,0.0,0.0,-0.4714,-0.4848,-0.5207,-0.5864,-0.6412,-0.6661,-0.6612,-0.779,-0.8665,-0.8824,-0.9664,-1.0084,-0.9674,-1.123,-1.2379,-1.2041,-1.2085,-1.1874,-1.1192,-1.0922,-1.0811,-1.1019,-1.0585,-0.9853,-0.8958,-0.8644,-0.8262,-0.7791,-0.7944,-0.8195,-0.823,-1.0175,-1.2094,-1.3385,-1.5908,-1.7978,-1.8055,-1.6505,-1.4742,-1.2644,-0.8581,-0.4872,-0.2824,-0.207,-0.1813,-0.5826,-0.5917,-0.5994,-0.6375,-0.6998,-0.6696,-0.6467,-0.628,-0.6058,-0.5743,-0.5325,-0.5573,-0.546,-0.5127,-0.5585,-0.6189,-0.6975,-0.7261,-0.7634,-0.8028,-0.7811,-0.7612,-0.7413,-0.6448,-0.5876,-0.5733,-0.5554,-0.5451,-0.54,-0.5197,-0.4568,-0.3446,-0.3537,-0.3655,-0.3729,-0.4084,-0.454,-0.5071,-0.5605,-0.6034,-0.6265,-0.6937,-0.7543,-0.8208,-0.8314,-0.849,-0.8711,-0.887,-0.8863,-0.8633,-0.7758,0.0,-0.6014,0.0,0.0,0.0,0.0,-0.1186,-0.0669,0.063,0.0,0.0,0.0,0.0844,0.0,0.0,0.0,0.0,-0.4772,-0.5649,-0.6054,-0.6164,-0.6239,-0.6389,-0.708,-0.7119,-0.6135,-0.8676,-1.0778,-1.1193,-1.1305,-1.1134,-1.075,-1.1415,-1.2131,-1.2474,-1.2548,-1.2307,-1.1526,-1.1462,-1.1272,-1.0592,-1.0141,-0.9772,-0.9494,-0.8448,-0.787,-0.8189,-0.8753,-0.915,-0.918,-1.0055,-1.1325,-1.3054,-1.4929,-1.6316,-1.6836,-1.674,-1.546,-1.2657,-0.9228,-0.6064,-0.3768,-0.2629,-0.2344,-0.587,-0.6246,-0.6155,-0.6484,-0.7091,-0.6811,-0.6583,-0.6394,-0.6446,-0.6255,-0.5942,-0.6544,-0.6521,-0.6088,-0.6584,-0.7277,-0.803,-0.8297,-0.8556,-0.878,-0.8328,-0.8056,-0.7981,-0.6725,-0.5992,-0.5873,-0.5794,-0.572,-0.5648,-0.6032,-0.5761,-0.4835,-0.462,-0.4534,-0.4545,-0.4706,-0.5005,-0.5342,-0.568,-0.5996,-0.6389,-0.7196,-0.7953,-0.8562,-0.8401,-0.8397,-0.8539,-0.8748,-0.8829,-0.8761,-0.8223,-0.7609,0.0,-0.5389,-0.4355,-0.3911,-0.297,-0.2163,-0.1539,-0.0534,0.0,0.0,-0.0912,-0.1293,-0.1289,0.0,0.0,-0.4827,-0.576,-0.6674,-0.7146,-0.7346,-0.7495,-0.7565,-0.8229,-0.8413,-0.7751,-0.9995,-1.171,-1.2067,-1.1979,-1.1749,-1.1336,-1.1258,-1.1528,-1.2261,-1.2506,-1.2392,-1.1685,-1.1492,-1.1169,-1.0707,-1.0097,-0.9714,-0.9813,-0.8816,-0.8147,-0.8613,-0.9125,-0.9471,-0.9471,-0.979,-1.0801,-1.2674,-1.3809,-1.4654,-1.5628,-1.5738,-1.5063,-1.2646,-0.994,-0.73,-0.4831,-0.3527,-0.2968,-0.5552,-0.5948,-0.6104,-0.6191,-0.6324,-0.6257,-0.6026,-0.5829,-0.6484,-0.6608,-0.641,-0.7418,-0.7625,-0.7156,-0.742,-0.7955,-0.8714,-0.9022,-0.9364,-0.9698,-0.8937,-0.8549,-0.8463,-0.6929,-0.6098,-0.6022,-0.5946,-0.5798,-0.573,-0.6356,-0.6656,-0.6611,-0.5697,-0.5338,-0.5529,-0.5459,-0.5504,-0.5605,-0.56,-0.5886,-0.6462,-0.7232,-0.7908,-0.8565,-0.8309,-0.8153,-0.8119,-0.8275,-0.8443,-0.8637,-0.8398,-0.7961,-0.7414,-0.6386,-0.5358,-0.4349,-0.3535,-0.3008,-0.2816,-0.2201,-0.1922,-0.2072,-0.253,-0.288,-0.2977,-0.5233,-0.6448,-0.5936,-0.6793,-0.7575,-0.8073,-0.8444,-0.8804,-0.9116,-0.9604,-1.0112,-1.0632,-1.1349,-1.1794,-1.1735,-1.1808,-1.1782,-1.1458,-1.0876,-1.0802,-1.1541,-1.1944,-1.2036,-1.1803,-1.1142,-1.0781,-1.0819,-1.0234,-0.9773,-0.9825,-0.9321,-0.8904,-0.9,-0.918,-0.9348,-0.9342,-0.9585,-1.0569,-1.2311,-1.2656,-1.294,-1.4375,-1.4156,-1.3555,-1.247,-1.058,-0.842,-0.6344,-0.479,-0.3749,-0.4962,-0.5041,-0.5405,-0.5967,-0.6646,-0.6629,-0.6482,-0.6314,-0.6836,-0.6885,-0.6729,-0.7612,-0.8022,-0.82,-0.8304,-0.8413,-0.875,-0.8823,-0.8949,-0.9051,-0.8512,-0.8238,-0.8085,-0.7141,-0.6478,-0.6101,-0.6244,-0.6121,-0.588,-0.6542,-0.6943,-0.7102,-0.6473,-0.6122,-0.6085,-0.5881,-0.581,-0.5851,-0.5782,-0.6009,-0.6467,-0.673,-0.7096,-0.7477,-0.7722,-0.7749,-0.7586,-0.7866,-0.8117,-0.8322,-0.839,-0.8399,-0.8266,-0.724,-0.673,-0.7049,-0.5526,-0.4877,-0.5354,-0.5015,-0.4423,-0.356,-0.4869,-0.5164,-0.382,-0.636,-0.7647,-0.6741,-0.7465,-0.8237,-0.8852,-0.8926,-0.926,-0.9858,-1.0475,-1.0967,-1.1427,-1.1431,-1.1205,-1.0792,-1.1092,-1.1135,-1.0818,-1.0558,-1.0507,-1.0476,-1.0388,-1.0621,-1.1217,-1.1004,-1.0491,-0.9922,-0.9967,-0.9986,-0.9557,-0.9405,-0.9349,-0.9235,-0.9483,-0.964,-0.964,-0.9761,-1.0105,-1.0996,-1.1366,-1.1695,-1.2131,-1.2833,-1.2907,-1.1821,-1.0609,-0.9406,-0.7965,-0.662,-0.5697,-0.4731,-0.471,-0.4962,-0.5468,-0.614,-0.6106,-0.6133,-0.6302,-0.6675,-0.681,-0.6971,-0.7591,-0.8159,-0.8748,-0.8595,-0.8678,-0.8771,-0.8897,-0.8893,-0.885,-0.8457,-0.819,-0.8059,-0.7239,-0.6715,-0.6405,-0.6326,-0.6195,-0.6008,-0.662,-0.7082,-0.7341,-0.7234,-0.7071,-0.691,-0.6319,-0.6014,-0.5978,-0.5888,-0.6176,-0.6841,-0.6734,-0.6925,-0.7482,-0.7504,-0.7464,-0.7315,-0.7507,-0.7795,-0.8206,-0.8413,-0.8666,-0.9021,-0.8399,-0.8237,-0.8716,-0.7389,-0.6514,-0.6375,-0.6535,-0.624,-0.526,-0.6338,-0.6629,-0.5785,-0.7417,-0.832,-0.7826,-0.8292,-0.8879,-0.9527,-0.9815,-1.0186,-1.0627,-1.1289,-1.1719,-1.1987,-1.0911,-0.9939,-0.9387,-1.0002,-1.0483,-1.0285,-0.9922,-0.9678,-0.9678,-0.9233,-0.9223,-0.9886,-0.9774,-0.9328,-0.9139,-0.9186,-0.9287,-0.9154,-0.9299,-0.9432,-0.9538,-0.97,-0.9822,-0.9822,-0.9822,-0.9895,-1.0287,-1.042,-1.0562,-1.1113,-1.1684,-1.1957,-1.1492,-1.0721,-0.9868,-0.8872,-0.7816,-0.7016,-0.4668,-0.4542,-0.4626,-0.4878,-0.5295,-0.5244,-0.5548,-0.6028,-0.638,-0.6718,-0.7126,-0.7521,-0.813,-0.8779,-0.8513,-0.8469,-0.8645,-0.887,-0.8861,-0.8702,-0.8375,-0.8216,-0.8212,-0.7413,-0.6863,-0.6715,-0.6398,-0.6094,-0.5951,-0.6601,-0.7085,-0.7349,-0.7709,-0.7748,-0.7606,-0.6679,-0.6182,-0.6009,-0.5982,-0.6364,-0.7224,-0.6938,-0.7114,-0.7776,-0.7493,-0.7226,-0.7171,-0.7143,-0.7456,-0.8091,-0.8372,-0.8854,-0.9563,-0.9517,-0.9575,-0.973,-0.8966,-0.7964,-0.6903,-0.7452,-0.7634,-0.714,-0.7449,-0.7692,-0.7679,-0.8271,-0.8706,-0.9027,-0.9171,-0.9489,-1.0013,-1.0616,-1.1113,-1.1396,-1.1877,-1.2178,-1.1925,-1.0191,-0.8695,-0.7994,-0.8943,-0.9723,-0.9845,-0.9203,-0.8854,-0.9151,-0.8602,-0.8318,-0.8534,-0.8346,-0.8184,-0.859,-0.8178,-0.8273,-0.8741,-0.8989,-0.9159,-0.9457,-0.9451,-0.9579,-0.964,-0.97,-0.9835,-0.9989,-0.9717,-0.9778,-1.073,-1.0763,-1.0793,-1.1034,-1.0555,-0.9944,-0.9379,-0.8638,-0.7877,-0.3962,-0.3703,-0.3954,-0.4372,-0.4794,-0.4784,-0.5252,-0.5949,-0.6351,-0.6959,-0.7613,-0.7774,-0.7738,-0.7643,-0.775,-0.7717,-0.744,-0.7789,-0.7999,-0.7903,-0.7819,-0.7819,-0.7815,-0.7492,-0.7049,-0.64,-0.6499,-0.6194,-0.5575,-0.6191,-0.6657,-0.6923,-0.7069,-0.7117,-0.7205,-0.6741,-0.6394,-0.6166,-0.6072,-0.6214,-0.6643,-0.6799,-0.6916,-0.7039,-0.7227,-0.7146,-0.6884,-0.6921,-0.7211,-0.771,-0.8199,-0.8901,-0.9731,-0.9826,-0.9909,-0.9983,-0.9596,-0.9148,-0.8625,-0.8775,-0.8867,-0.8806,-0.9026,-0.8709,-0.7672,-0.8597,-0.937,-0.9596,-0.9697,-0.9866,-1.019,-1.049,-1.0988,-1.1964,-1.2004,-1.1467,-1.045,-0.9751,-0.9013,-0.8011,-0.8431,-0.901,-0.9385,-0.9154,-0.9042,-0.9215,-0.8715,-0.8267,-0.81,-0.7955,-0.7873,-0.779,-0.7693,-0.7895,-0.8433,-0.8317,-0.8238,-0.8238,-0.8238,-0.8482,-0.8909,-0.9457,-0.9714,-0.9692,-0.9541,-0.9395,-0.9662,-0.9898,-1.0032,-0.962,-0.9519,-0.9564,-0.9826,-0.9432,-0.8909,-0.3636,-0.3451,-0.3617,-0.3954,-0.4372,-0.4372,-0.4693,-0.5333,-0.6084,-0.6732,-0.7271,-0.723,-0.7151,-0.6938,-0.7063,-0.7007,-0.6763,-0.6963,-0.7183,-0.7346,-0.7346,-0.7505,-0.766,-0.7334,-0.6956,-0.6527,-0.6256,-0.5958,-0.5693,-0.6176,-0.6532,-0.6921,-0.728,-0.7398,-0.7208,-0.677,-0.6431,-0.6251,-0.6057,-0.6114,-0.6294,-0.6646,-0.6858,-0.6764,-0.7227,-0.7393,-0.7148,-0.7344,-0.7653,-0.8124,-0.8765,-0.9527,-1.0465,-1.0754,-1.1014,-1.1346,-1.094,-1.0465,-1.0179,-0.9741,-0.9505,-0.9532,-0.9649,-0.9379,-0.8717,-0.9248,-0.964,-0.979,-0.9794,-0.991,-1.0115,-1.044,-1.0903,-1.1614,-1.1774,-1.1645,-1.1187,-0.9583,-0.834,-0.7977,-0.7988,-0.8341,-0.9221,-0.8949,-0.8925,-0.9203,-0.8777,-0.8183,-0.7689,-0.775,-0.7725,-0.7156,-0.7199,-0.7438,-0.7795,-0.7811,-0.775,-0.7872,-0.7933,-0.8116,-0.8543,-0.9275,-0.9654,-0.9221,-0.9123,-0.911,-0.8986,-0.9255,-0.9353,-0.9118,-0.9048,-0.9172,-0.9439,-0.9271,-0.9098,-0.3394,-0.3281,-0.3281,-0.3533,-0.3868,-0.3868,-0.412,-0.4626,-0.5633,-0.6305,-0.664,-0.6663,-0.6543,-0.6526,-0.6533,-0.6378,-0.6311,-0.6387,-0.6546,-0.6868,-0.6868,-0.7107,-0.7421,-0.702,-0.6704,-0.6546,-0.586,-0.5637,-0.5863,-0.6155,-0.6478,-0.6914,-0.7553,-0.766,-0.7187,-0.6741,-0.6419,-0.6337,-0.6102,-0.6072,-0.6063,-0.6465,-0.6729,-0.6681,-0.722,-0.7525,-0.7524,-0.785,-0.8299,-0.8715,-0.9419,-1.0292,-1.1257,-1.1699,-1.2115,-1.2528,-1.2075,-1.1573,-1.1099,-1.0392,-0.9922,-0.9909,-0.9883,-0.984,-0.9822,-0.9863,-0.9849,-0.9822,-0.9781,-0.9787,-0.9977,-1.0342,-1.0664,-1.0805,-1.1192,-1.1578,-1.1747,-0.9346,-0.7443,-0.768,-0.751,-0.7897,-0.904,-0.8827,-0.8638,-0.8998,-0.8691,-0.8061,-0.7378,-0.7352,-0.7286,-0.6579,-0.6649,-0.6926,-0.7138,-0.7143,-0.7261,-0.7383,-0.7505,-0.7689,-0.8111,-0.8781,-0.9042,-0.8714,-0.866,-0.8666,-0.8594,-0.8648,-0.8726,-0.8671,-0.861,-0.8671,-0.8732,-0.8793,-0.8854,-0.3203,-0.2777,-0.2777,-0.3029,-0.3451,-0.3451,-0.3701,-0.4204,-0.5547,-0.6305,-0.6727,-0.6717,-0.6426,-0.6111,-0.637,-0.6217,-0.5832,-0.6228,-0.6387,-0.6466,-0.6466,-0.6546,-0.6543,-0.6466,-0.6156,-0.5778,-0.5553,-0.5487,-0.5416,-0.5713,-0.6047,-0.6475,-0.6841,-0.6923,-0.6752,-0.6572,-0.6514,-0.6431,-0.6255,-0.6161,-0.6157,-0.6064,-0.6237,-0.6686,-0.6801,-0.7045,-0.7471,-0.8019,-0.8479,-0.8871,-0.9698,-1.059,-1.1401,-1.1958,-1.2237,-1.2233,-1.2059,-1.1625,-1.0861,-1.0663,-1.0543,-1.0422,-1.0294,-1.0139,-0.997,-0.9957,-0.9903,-0.9781,-0.963,-0.9653,-0.9942,-0.9723,-0.9728,-0.9857,-0.9946,-0.9854,-0.9377,-0.8177,-0.7253,-0.7111,-0.7266,-0.7803,-0.8857,-0.8891,-0.8725,-0.8709,-0.8397,-0.7994,-0.7184,-0.6673,-0.6408,-0.6085,-0.6189,-0.6319,-0.6508,-0.6285,-0.6285,-0.6162,-0.6285,-0.6526,-0.7072,-0.7322,-0.7678,-0.8392,-0.8282,-0.8221,-0.8381,-0.8221,-0.7994,-0.7816,-0.7694,-0.7755,-0.7994,-0.8244,-0.8555,-0.2524,-0.2355,-0.2608,-0.2861,-0.3027,-0.3261,-0.3489,-0.3716,-0.4541,-0.5158,-0.5633,-0.5888,-0.5832,-0.557,-0.5457,-0.5311,-0.4986,-0.4984,-0.5142,-0.53,-0.5265,-0.5405,-0.5555,-0.5337,-0.5199,-0.5138,-0.4884,-0.5057,-0.551,-0.5657,-0.6055,-0.6622,-0.6708,-0.6672,-0.659,-0.6568,-0.6522,-0.6518,-0.6321,-0.6231,-0.6182,-0.6051,-0.6249,-0.6761,-0.6822,-0.713,-0.7807,-0.8407,-0.8877,-0.9131,-1.0195,-1.1038,-1.1561,-1.2147,-1.2299,-1.2006,-1.1946,-1.1563,-1.0777,-1.0717,-1.0622,-1.0399,-1.0317,-1.0215,-0.9997,-0.9909,-0.9808,-0.9636,-0.9392,-0.9268,-0.928,-0.9209,-0.9175,-0.9321,-0.9419,-0.9256,-0.8623,-0.7687,-0.7025,-0.6936,-0.7021,-0.7552,-0.8664,-0.8564,-0.8351,-0.8262,-0.7825,-0.7204,-0.6898,-0.642,-0.6029,-0.59,-0.6002,-0.6054,-0.6092,-0.6039,-0.5916,-0.5916,-0.5916,-0.6101,-0.6526,-0.653,-0.6775,-0.7627,-0.7811,-0.7994,-0.8177,-0.7872,-0.7566,-0.7444,-0.7204,-0.7266,-0.7572,-0.7877,-0.8427,-0.2018,-0.2018,-0.2524,-0.2688,-0.2679,-0.2981,-0.3116,-0.3173,-0.358,-0.4026,-0.4417,-0.4843,-0.5036,-0.4864,-0.4533,-0.4403,-0.4247,-0.3925,-0.4005,-0.4234,-0.4188,-0.4393,-0.4617,-0.4337,-0.4362,-0.4612,-0.4381,-0.4719,-0.568,-0.575,-0.6051,-0.6716,-0.6656,-0.6578,-0.6558,-0.6555,-0.6522,-0.6518,-0.6382,-0.6239,-0.6082,-0.6037,-0.6268,-0.6784,-0.6936,-0.7289,-0.8089,-0.8815,-0.926,-0.9422,-1.055,-1.1399,-1.164,-1.224,-1.236,-1.196,-1.1843,-1.1446,-1.0784,-1.0717,-1.0595,-1.031,-1.034,-1.0215,-0.9942,-0.9821,-0.9671,-0.9473,-0.9081,-0.8775,-0.8776,-0.8643,-0.8639,-0.8867,-0.9036,-0.8984,-0.8562,-0.7622,-0.6981,-0.6993,-0.7031,-0.7495,-0.8143,-0.8155,-0.7943,-0.7728,-0.6946,-0.6473,-0.653,-0.6223,-0.5916,-0.5916,-0.5916,-0.5912,-0.5916,-0.5916,-0.5916,-0.5916,-0.5916,-0.6039,-0.6223,-0.6101,-0.6223,-0.7016,-0.7444,-0.7566,-0.7627,-0.7383,-0.7199,-0.7077,-0.6959,-0.6959,-0.7327,-0.7689,-0.8177,-0.2018,-0.2103,-0.2523,-0.2676,-0.2647,-0.2619,-0.2684,-0.2762,-0.317,-0.3337,-0.3507,-0.3835,-0.4052,-0.4008,-0.3923,-0.3896,-0.3848,-0.3846,-0.3768,-0.3764,-0.3798,-0.3777,-0.3771,-0.3727,-0.3909,-0.4236,-0.4157,-0.4717,-0.568,-0.5747,-0.5996,-0.6562,-0.6598,-0.6549,-0.6543,-0.646,-0.6522,-0.6522,-0.6514,-0.6265,-0.5846,-0.5946,-0.6206,-0.6732,-0.6958,-0.7398,-0.8151,-0.9033,-0.9488,-0.9577,-1.0602,-1.141,-1.1754,-1.215,-1.2289,-1.2239,-1.1975,-1.1453,-1.0784,-1.0717,-1.0595,-1.0317,-1.0283,-1.0096,-0.9643,-0.9542,-0.9535,-0.9337,-0.873,-0.8461,-0.8779,-0.8172,-0.7964,-0.848,-0.864,-0.8656,-0.8568,-0.8044,-0.7523,-0.7321,-0.7419,-0.778,-0.8068,-0.8024,-0.7733,-0.7111,-0.6482,-0.5978,-0.5978,-0.5978,-0.5855,-0.5855,-0.5916,-0.5916,-0.5916,-0.5916,-0.5916,-0.5916,-0.5916,-0.5916,-0.5916,-0.5978,-0.6101,-0.6591,-0.6837,-0.6898,-0.6837,-0.6714,-0.6526,-0.6526,-0.6464,-0.6587,-0.7199,-0.7566,-0.7933,-0.1346,-0.1597,-0.2088,-0.2391,-0.2596,-0.2582,-0.2566,-0.2551,-0.271,-0.2869,-0.2869,-0.3029,-0.3191,-0.3436,-0.3038,-0.2701,-0.2671,-0.2434,-0.2356,-0.2352,-0.2233,-0.2364,-0.2588,-0.2539,-0.2953,-0.3749,-0.3749,-0.4397,-0.5307,-0.5567,-0.5737,-0.5909,-0.5926,-0.5949,-0.6116,-0.6116,-0.625,-0.6522,-0.6522,-0.6368,-0.6257,-0.6207,-0.6584,-0.7207,-0.7228,-0.7576,-0.8269,-0.8844,-0.93,-0.9635,-1.0426,-1.1056,-1.1446,-1.1776,-1.1909,-1.1644,-1.1314,-1.0989,-1.0717,-1.0717,-1.0629,-1.0419,-1.0405,-1.028,-1.0012,-0.9425,-0.9076,-0.9026,-0.8436,-0.7927,-0.7771,-0.7431,-0.7388,-0.7856,-0.8123,-0.839,-0.8584,-0.8141,-0.7872,-0.8029,-0.7672,-0.7488,-0.7634,-0.7366,-0.6884,-0.6407,-0.6039,-0.5855,-0.5609,-0.5732,-0.5794,-0.5609,-0.5732,-0.5855,-0.5855,-0.5916,-0.5855,-0.5855,-0.5732,-0.5609,-0.5609,-0.5794,-0.6039,-0.6285,-0.599,-0.5806,-0.5671,-0.5855,-0.579,-0.5855,-0.579,-0.5912,-0.6219,-0.6464,-0.6766,-0.0924,-0.1338,-0.1897,-0.2355,-0.256,-0.2551,-0.2534,-0.2437,-0.2357,-0.2357,-0.2278,-0.2121,-0.213,-0.2384,-0.2149,-0.1901,-0.1729,-0.1413,-0.1335,-0.1253,-0.1225,-0.1439,-0.1737,-0.1919,-0.2478,-0.3352,-0.3635,-0.4119,-0.509,-0.5427,-0.5539,-0.5464,-0.5406,-0.5513,-0.5714,-0.5778,-0.5979,-0.6317,-0.6317,-0.6384,-0.651,-0.6655,-0.6981,-0.7567,-0.7657,-0.7886,-0.8454,-0.8759,-0.9061,-0.9516,-1.0154,-1.0677,-1.1049,-1.1446,-1.1512,-1.1247,-1.0857,-1.0717,-1.0717,-1.0717,-1.0656,-1.0514,-1.0493,-1.0453,-1.0108,-0.9371,-0.8851,-0.8639,-0.8131,-0.7507,-0.7102,-0.692,-0.7054,-0.7459,-0.7727,-0.8056,-0.8518,-0.8239,-0.8228,-0.8491,-0.7913,-0.7369,-0.7307,-0.6768,-0.6262,-0.5986,-0.5916,-0.5794,-0.5544,-0.5609,-0.5544,-0.5483,-0.5548,-0.5548,-0.5732,-0.5732,-0.5732,-0.5609,-0.5364,-0.5241,-0.5298,-0.5486,-0.5609,-0.5552,-0.5022,-0.4811,-0.4896,-0.5008,-0.5284,-0.5331,-0.532,-0.5367,-0.5605,-0.5724,-0.5863,-0.0921,-0.1404,-0.2183,-0.2563,-0.2557,-0.2529,-0.2517,-0.2435,-0.2121,-0.1964,-0.1807,-0.1178,-0.0707,-0.0865,-0.1574,-0.1651,-0.1336,-0.1256,-0.1256,-0.1254,-0.1225,-0.1439,-0.1814,-0.214,-0.2698,-0.3425,-0.3677,-0.418,-0.4842,-0.5234,-0.5461,-0.5393,-0.5319,-0.5379,-0.5446,-0.5446,-0.558,-0.5915,-0.5912,-0.6116,-0.6518,-0.7049,-0.7374,-0.7479,-0.807,-0.8393,-0.8546,-0.8799,-0.8996,-0.9111,-0.9736,-1.0248,-1.0697,-1.1049,-1.1181,-1.1181,-1.0916,-1.0717,-1.0717,-1.0717,-1.0656,-1.0527,-1.0514,-1.037,-1.0123,-0.9667,-0.9073,-0.8246,-0.7789,-0.7388,-0.7058,-0.6723,-0.6857,-0.7393,-0.7326,-0.7722,-0.8523,-0.8507,-0.8579,-0.8518,-0.8153,-0.7575,-0.6837,-0.629,-0.6069,-0.5941,-0.5916,-0.5855,-0.5732,-0.536,-0.5237,-0.5302,-0.5056,-0.4687,-0.5241,-0.544,-0.5313,-0.5197,-0.5088,-0.4947,-0.4937,-0.4933,-0.4937,-0.4895,-0.4518,-0.4313,-0.429,-0.4482,-0.4893,-0.5042,-0.5102,-0.5139,-0.4998,-0.5544,-0.5567,-0.0412,-0.1376,-0.1926,-0.231,-0.253,-0.2519,-0.2357,-0.2121,-0.1964,-0.1728,-0.1492,-0.1178,-0.0864,-0.0628,-0.0942,-0.1021,-0.0864,-0.0864,-0.1021,-0.1253,-0.1225,-0.1439,-0.1812,-0.1919,-0.2405,-0.3057,-0.3239,-0.3541,-0.3899,-0.4279,-0.4455,-0.4496,-0.4594,-0.4775,-0.4977,-0.5041,-0.5178,-0.5513,-0.558,-0.5647,-0.5848,-0.625,-0.6489,-0.6502,-0.7781,-0.8513,-0.8481,-0.864,-0.8778,-0.8936,-0.9294,-0.9738,-1.0313,-1.0717,-1.085,-1.085,-1.0784,-1.0585,-1.0459,-1.0585,-1.0565,-1.0386,-1.0511,-1.0485,-1.0298,-1.0009,-0.9526,-0.8717,-0.7791,-0.7287,-0.7066,-0.6757,-0.6786,-0.7326,-0.7326,-0.7588,-0.8256,-0.8323,-0.8123,-0.7912,-0.7536,-0.7037,-0.6601,-0.6172,-0.5956,-0.5875,-0.5921,-0.5798,-0.5544,-0.5172,-0.4752,-0.4077,-0.4164,-0.444,-0.4377,-0.4939,-0.5067,-0.4959,-0.4903,-0.4721,-0.4652,-0.4462,-0.4385,-0.4444,-0.4076,-0.4085,-0.4115,-0.4134,-0.4497,-0.444,-0.4505,-0.4552,-0.4447,-0.4667,-0.4508,-0.0164,-0.1047,-0.1528,-0.1841,-0.2146,-0.2226,-0.2145,-0.1906,-0.1742,-0.158,-0.1263,-0.1023,-0.0707,-0.0471,-0.0393,-0.0471,-0.0628,-0.0628,-0.0864,-0.1254,-0.1225,-0.1439,-0.1734,-0.1919,-0.226,-0.2836,-0.3007,-0.3176,-0.334,-0.3572,-0.3754,-0.3886,-0.4054,-0.4305,-0.4574,-0.4641,-0.4842,-0.5111,-0.5178,-0.5238,-0.5415,-0.5675,-0.5833,-0.5973,-0.7149,-0.7969,-0.8029,-0.8257,-0.8481,-0.8738,-0.8976,-0.9413,-1.0114,-1.0392,-1.0585,-1.0651,-1.0585,-1.0452,-1.0266,-1.0232,-1.0124,-0.9923,-1.0136,-1.02,-1.0048,-1.0116,-0.9676,-0.8927,-0.8193,-0.7589,-0.7374,-0.7119,-0.7125,-0.7411,-0.7459,-0.7722,-0.8456,-0.8189,-0.7789,-0.7383,-0.7142,-0.6723,-0.6308,-0.6178,-0.6108,-0.6014,-0.6002,-0.5866,-0.5559,-0.5098,-0.4377,-0.3193,-0.3663,-0.4123,-0.4264,-0.4658,-0.4712,-0.4594,-0.4597,-0.4476,-0.4328,-0.4071,-0.3897,-0.3892,-0.393,-0.3944,-0.393,-0.3888,-0.3804,-0.3756,-0.3748,-0.3804,-0.3665,-0.3539,-0.3563,-0.0164,-0.065,-0.1139,-0.13,-0.146,-0.1785,-0.187,-0.178,-0.1524,-0.1356,-0.1113,-0.0473,-0.0157,0.0,0.0,-0.0236,-0.055,-0.0628,-0.0864,-0.1332,-0.1304,-0.1516,-0.189,-0.2142,-0.2405,-0.2836,-0.3195,-0.3275,-0.3233,-0.3191,-0.3371,-0.3703,-0.3837,-0.4037,-0.4305,-0.4375,-0.4507,-0.4699,-0.4763,-0.4936,-0.5274,-0.546,-0.5559,-0.563,-0.6141,-0.671,-0.7299,-0.7607,-0.7987,-0.853,-0.8815,-0.927,-0.9975,-1.0193,-1.0326,-1.0525,-1.0392,-1.0193,-1.0079,-0.9642,-0.9426,-0.9313,-0.9416,-0.9537,-0.9561,-0.9649,-0.9537,-0.9003,-0.8547,-0.8248,-0.7975,-0.7812,-0.7741,-0.7574,-0.7689,-0.7947,-0.839,-0.8189,-0.765,-0.7116,-0.6973,-0.681,-0.6407,-0.6292,-0.6239,-0.617,-0.6145,-0.6041,-0.5749,-0.5182,-0.4237,-0.3548,-0.3546,-0.3865,-0.4147,-0.4364,-0.4288,-0.4153,-0.415,-0.4147,-0.4056,-0.3875,-0.3873,-0.3852,-0.3643,-0.3711,-0.3584,-0.3541,-0.3426,-0.3337,-0.3215,-0.3215,-0.3271,-0.3205,-0.2978,0.0163,-0.0242,-0.0649,-0.1058,-0.1302,-0.1709,-0.1783,-0.1528,-0.1601,-0.1353,-0.0869,-0.0551,-0.0236,0.0,0.0,-0.0236,-0.0628,-0.0628,-0.1021,-0.1645,-0.1931,-0.206,-0.2192,-0.2307,-0.2415,-0.2448,-0.2547,-0.2577,-0.2611,-0.2779,-0.3028,-0.3362,-0.3698,-0.3969,-0.4305,-0.4305,-0.4356,-0.4314,-0.4176,-0.4213,-0.4418,-0.4347,-0.44,-0.4582,-0.4985,-0.5407,-0.5985,-0.7003,-0.7675,-0.8146,-0.8508,-0.895,-0.9377,-0.9721,-0.9927,-0.9994,-0.9927,-0.9643,-0.9244,-0.9222,-0.9018,-0.8798,-0.8905,-0.9104,-0.9203,-0.9374,-0.9352,-0.9111,-0.8768,-0.8434,-0.8424,-0.8288,-0.8228,-0.8084,-0.7761,-0.7825,-0.8293,-0.7665,-0.6987,-0.6719,-0.6652,-0.6544,-0.6345,-0.6325,-0.6304,-0.6223,-0.6009,-0.5906,-0.5878,-0.5131,-0.4364,-0.3963,-0.3947,-0.3796,-0.4005,-0.4289,-0.4298,-0.4155,-0.4018,-0.3942,-0.3914,-0.3692,-0.369,-0.3633,-0.342,-0.3304,-0.3234,-0.3143,-0.3035,-0.3041,-0.3039,-0.3101,-0.3101,-0.2927,-0.2693,0.0813,0.0242,0.0,-0.0412,-0.0906,-0.1401,-0.1556,-0.1378,-0.1774,-0.152,-0.095,-0.0629,-0.0393,0.0,0.0,0.0,-0.0393,-0.055,-0.0862,-0.1403,-0.185,-0.2059,-0.2115,-0.2008,-0.1906,-0.1946,-0.1981,-0.2026,-0.2008,-0.238,-0.2759,-0.3161,-0.343,-0.3835,-0.4238,-0.4305,-0.4219,-0.4052,-0.3831,-0.3672,-0.3709,-0.3555,-0.361,-0.3871,-0.4147,-0.4506,-0.5142,-0.6203,-0.7022,-0.7705,-0.8281,-0.8717,-0.9117,-0.9322,-0.9455,-0.9467,-0.9375,-0.9103,-0.8627,-0.8512,-0.8441,-0.8093,-0.8137,-0.8333,-0.8688,-0.9059,-0.9302,-0.9219,-0.9021,-0.8831,-0.882,-0.8773,-0.8656,-0.851,-0.8045,-0.7878,-0.799,-0.7233,-0.6673,-0.6601,-0.6537,-0.6504,-0.6447,-0.6585,-0.656,-0.6423,-0.6267,-0.5915,-0.5904,-0.524,-0.4778,-0.4414,-0.4134,-0.4054,-0.3988,-0.4139,-0.43,-0.416,-0.4019,-0.3937,-0.3782,-0.3441,-0.3273,-0.3145,-0.2985,-0.2848,-0.2758,-0.2721,-0.2609,-0.2735,-0.28,-0.2695,-0.2641,-0.2578,-0.2397,0.1394,0.0653,0.0666,0.0336,-0.0252,-0.1007,-0.1333,-0.1402,-0.188,-0.1775,-0.1276,-0.0868,-0.0393,0.0,0.0,0.0,0.0,-0.0391,-0.0544,-0.077,-0.1066,-0.136,-0.1656,-0.1478,-0.1387,-0.1376,-0.1561,-0.1682,-0.1741,-0.2044,-0.249,-0.3094,-0.3228,-0.3497,-0.4037,-0.4238,-0.4031,-0.3744,-0.3642,-0.3424,-0.315,-0.3118,-0.3293,-0.3618,-0.3726,-0.4084,-0.4766,-0.5348,-0.6183,-0.7312,-0.8046,-0.8518,-0.8851,-0.8984,-0.8917,-0.894,-0.8777,-0.8502,-0.8153,-0.7869,-0.7553,-0.7433,-0.728,-0.7353,-0.8136,-0.8863,-0.9302,-0.9302,-0.9291,-0.9291,-0.9291,-0.9131,-0.8987,-0.8693,-0.8333,-0.8019,-0.7371,-0.6947,-0.6766,-0.6635,-0.6668,-0.6692,-0.6594,-0.6923,-0.6979,-0.6719,-0.6749,-0.6429,-0.5904,-0.5475,-0.5235,-0.4903,-0.4629,-0.4292,-0.4281,-0.415,-0.4305,-0.4171,-0.3969,-0.3694,-0.3553,-0.3147,-0.2855,-0.2676,-0.2595,-0.2459,-0.2323,-0.2274,-0.2161,-0.2164,-0.218,-0.2144,-0.2153,-0.2146,-0.2211,0.137,0.1047,0.0412,-0.0083,-0.0583,-0.109,-0.1498,-0.1801,-0.2199,-0.201,-0.1424,-0.118,-0.0707,0.0,0.0,0.0,0.0,0.0,-0.0382,-0.0532,-0.0376,-0.0747,-0.1266,-0.125,-0.1162,-0.1151,-0.1205,-0.1396,-0.1658,-0.1768,-0.2155,-0.2827,-0.3096,-0.3295,-0.3497,-0.3768,-0.368,-0.332,-0.3041,-0.3015,-0.3057,-0.2849,-0.3049,-0.3602,-0.3682,-0.3909,-0.4411,-0.5034,-0.5915,-0.6982,-0.725,-0.7588,-0.7922,-0.7994,-0.803,-0.8095,-0.8005,-0.7893,-0.7678,-0.7469,-0.7317,-0.7166,-0.7042,-0.7353,-0.8082,-0.8874,-0.923,-0.9302,-0.9302,-0.9302,-0.9235,-0.9018,-0.8584,-0.8145,-0.8083,-0.7835,-0.7267,-0.6984,-0.6864,-0.6729,-0.6717,-0.6717,-0.6709,-0.6991,-0.7122,-0.6769,-0.6663,-0.6689,-0.6151,-0.5647,-0.5379,-0.5513,-0.5309,-0.4839,-0.4504,-0.437,-0.4305,-0.4171,-0.3835,-0.3362,-0.3092,-0.2821,-0.2517,-0.2277,-0.2175,-0.2113,-0.2017,-0.1941,-0.1826,-0.1718,-0.1656,-0.167,-0.1814,-0.1882,-0.195,0.1446,0.1282,0.0574,-0.0083,-0.0746,-0.1083,-0.1489,-0.1956,-0.2346,-0.2239,-0.1654,-0.1335,-0.0942,-0.0235,0.0,0.0,0.0,0.0,0.0,-0.0225,-0.0148,-0.0295,-0.0589,-0.0658,-0.0727,-0.0721,-0.0783,-0.1054,-0.1387,-0.1573,-0.2033,-0.2628,-0.2894,-0.3026,-0.3228,-0.3362,-0.3354,-0.2996,-0.2714,-0.2697,-0.2695,-0.2482,-0.2691,-0.3181,-0.3391,-0.3739,-0.4305,-0.4711,-0.5379,-0.6183,-0.6719,-0.7121,-0.7259,-0.7502,-0.7549,-0.7474,-0.7548,-0.7454,-0.7261,-0.7246,-0.7225,-0.7191,-0.7135,-0.7498,-0.8222,-0.8946,-0.9302,-0.9302,-0.9302,-0.923,-0.9013,-0.8579,-0.815,-0.7856,-0.7715,-0.7498,-0.699,-0.6982,-0.6925,-0.6835,-0.6811,-0.6748,-0.6579,-0.7018,-0.6993,-0.6733,-0.6839,-0.6739,-0.6492,-0.5998,-0.5647,-0.5714,-0.558,-0.5111,-0.4641,-0.444,-0.4104,-0.4037,-0.3499,-0.3028,-0.2759,-0.2423,-0.2336,-0.2052,-0.1874,-0.1744,-0.1717,-0.1637,-0.1454,-0.1332,-0.1263,-0.1199,-0.1275,-0.1346,-0.1481,0.1695,0.128,0.0819,0.0083,-0.0744,-0.1158,-0.1482,-0.1952,-0.2414,-0.2307,-0.1889,-0.1492,-0.102,-0.0548,0.0,0.0,0.0,0.0,0.0,0.0074,0.0,0.0,0.0,0.0,0.0,0.0,-0.0359,-0.0639,-0.105,-0.1384,-0.1918,-0.2381,-0.2641,-0.2836,-0.2971,-0.31,-0.2961,-0.2685,-0.2528,-0.2462,-0.2338,-0.2258,-0.2392,-0.2812,-0.3222,-0.3691,-0.4171,-0.4375,-0.4647,-0.5258,-0.6254,-0.6728,-0.687,-0.7292,-0.742,-0.7195,-0.7248,-0.7198,-0.7023,-0.7017,-0.72,-0.7421,-0.7353,-0.757,-0.8512,-0.909,-0.9302,-0.9302,-0.923,-0.8941,-0.8579,-0.8,-0.7711,-0.7566,-0.728,-0.7063,-0.699,-0.7063,-0.703,-0.6956,-0.7013,-0.6793,-0.6705,-0.6925,-0.7306,-0.6591,-0.6828,-0.6996,-0.6736,-0.6329,-0.6049,-0.5982,-0.5647,-0.5245,-0.4842,-0.4507,-0.4104,-0.3768,-0.3096,-0.2627,-0.2356,-0.2154,-0.2154,-0.1953,-0.1616,-0.1481,-0.1476,-0.134,-0.1074,-0.0872,-0.0736,-0.0537,-0.0404,-0.0539,-0.0606,0.1435,0.1264,0.0485,-0.0163,-0.0736,-0.1154,-0.1562,-0.1951,-0.241,-0.2382,-0.1889,-0.1492,-0.1016,-0.062,0.0,0.0,0.0,0.0297,0.0441,0.044,0.0146,0.0,0.0,0.0,0.0,0.0,0.0,-0.0284,-0.0632,-0.105,-0.1465,-0.1875,-0.2402,-0.26,-0.2458,-0.2704,-0.2627,-0.2356,-0.2281,-0.228,-0.2218,-0.2216,-0.2348,-0.2763,-0.3304,-0.3837,-0.4174,-0.4305,-0.4397,-0.4762,-0.5356,-0.6024,-0.6345,-0.6723,-0.6932,-0.6972,-0.696,-0.7031,-0.7017,-0.7046,-0.7204,-0.7715,-0.7933,-0.8295,-0.8584,-0.909,-0.9302,-0.923,-0.9018,-0.8579,-0.8,-0.7711,-0.7494,-0.728,-0.7135,-0.699,-0.7063,-0.7425,-0.7553,-0.7472,-0.7404,-0.7195,-0.6532,-0.7034,-0.709,-0.6587,-0.6724,-0.7113,-0.6864,-0.6551,-0.6254,-0.5982,-0.5446,-0.5044,-0.4842,-0.4372,-0.3768,-0.3297,-0.2625,-0.2088,-0.1818,-0.1818,-0.1818,-0.1616,-0.1279,-0.1212,-0.1144,-0.0808,-0.0538,-0.0336,-0.0135,0.0067,0.0269,0.0202,0.0269,0.1436,0.1496,0.0641,0.0,-0.0404,-0.1056,-0.1542,-0.1935,-0.2393,-0.2451,-0.2123,-0.157,-0.1173,-0.0854,0.0,0.0,0.0,0.0442,0.073,0.0803,0.0657,0.0584,0.0584,0.0511,0.0,0.0,0.0,0.0,-0.0497,-0.0778,-0.1129,-0.1682,-0.2078,-0.2199,-0.2195,-0.2375,-0.2359,-0.229,-0.2223,-0.2223,-0.2223,-0.2223,-0.2503,-0.2925,-0.3416,-0.3832,-0.4286,-0.4382,-0.439,-0.4601,-0.5081,-0.557,-0.5961,-0.641,-0.6762,-0.6831,-0.69,-0.6929,-0.6978,-0.7208,-0.7421,-0.7783,-0.8222,-0.8652,-0.8868,-0.9157,-0.9302,-0.923,-0.8946,-0.844,-0.7711,-0.7425,-0.7208,-0.7063,-0.699,-0.7063,-0.7353,-0.7788,-0.8145,-0.7928,-0.7566,-0.7059,-0.6841,-0.6986,-0.6761,-0.6206,-0.6705,-0.704,-0.6863,-0.6485,-0.6069,-0.5714,-0.5178,-0.4775,-0.4641,-0.4168,-0.3362,-0.2759,-0.2019,-0.1548,-0.1212,-0.1346,-0.1481,-0.1144,-0.0808,-0.0741,-0.0606,-0.0337,0.0,0.0202,0.0404,0.0741,0.0943,0.1077,0.1212,0.137,0.166,0.0878,0.0321,-0.008,-0.0801,-0.1361,-0.1837,-0.2291,-0.2517,-0.2357,-0.1728,-0.1411,-0.1091,-0.0459,0.0,0.03,0.0517,0.0949,0.124,0.1168,0.1095,0.1095,0.1022,0.0729,0.0146,0.0,-0.0072,-0.0288,-0.0574,-0.0929,-0.1553,-0.1673,-0.1877,-0.2142,-0.2187,-0.2245,-0.2178,-0.217,-0.2166,-0.2166,-0.2234,-0.2587,-0.3168,-0.3402,-0.3753,-0.4287,-0.4444,-0.4463,-0.45,-0.5172,-0.5554,-0.5866,-0.6383,-0.6939,-0.6947,-0.6945,-0.6974,-0.7059,-0.728,-0.7566,-0.7928,-0.8218,-0.8724,-0.9085,-0.9157,-0.9157,-0.9013,-0.8724,-0.8145,-0.7566,-0.728,-0.7063,-0.699,-0.699,-0.7208,-0.7643,-0.8222,-0.8579,-0.8507,-0.7856,-0.7131,-0.6696,-0.6555,-0.6192,-0.6043,-0.6624,-0.6933,-0.6758,-0.6461,-0.6028,-0.5379,-0.4775,-0.444,-0.4305,-0.3633,-0.2894,-0.2289,-0.1548,-0.1077,-0.0673,-0.0471,-0.0539,-0.0539,-0.0337,-0.0202,0.0,0.0269,0.0539,0.0741,0.0943,0.1212,0.1548,0.1953,0.1953,0.0819,0.0809,0.0649,0.0406,0.0,-0.0482,-0.1039,-0.1516,-0.221,-0.2514,-0.2435,-0.2043,-0.1563,-0.1237,-0.0763,0.0,0.0741,0.1027,0.1242,0.1534,0.1387,0.1241,0.1168,0.1168,0.0949,0.0657,0.0438,0.0218,-0.0145,-0.0436,-0.0796,-0.1228,-0.15,-0.1844,-0.2119,-0.2247,-0.2222,-0.2215,-0.2203,-0.2193,-0.2192,-0.2266,-0.2622,-0.3281,-0.3443,-0.3858,-0.4337,-0.448,-0.4499,-0.461,-0.5334,-0.5655,-0.5897,-0.6527,-0.69,-0.6945,-0.6974,-0.699,-0.699,-0.7135,-0.7856,-0.8512,-0.8584,-0.8584,-0.9018,-0.9018,-0.8874,-0.8584,-0.8218,-0.7638,-0.7135,-0.7063,-0.699,-0.699,-0.699,-0.7063,-0.7425,-0.8218,-0.8941,-0.8796,-0.8,-0.7204,-0.6696,-0.6333,-0.6119,-0.6119,-0.6551,-0.6865,-0.6811,-0.6425,-0.5938,-0.5178,-0.444,-0.4171,-0.3969,-0.3096,-0.2289,-0.1818,-0.1212,-0.0606,-0.0135,0.0404,0.0606,0.0539,0.0539,0.0741,0.0875,0.0875,0.101,0.1144,0.1414,0.175,0.1885,0.2088,0.2155,0.0808,0.0959,0.0959,0.0719,0.0239,-0.0318,-0.0872,-0.1425,-0.2127,-0.2514,-0.2357,-0.2042,-0.1645,-0.1243,-0.0846,0.0076,0.0969,0.1181,0.14,0.1692,0.161,0.1386,0.1241,0.1168,0.0949,0.073,0.0584,0.0365,0.0,-0.0219,-0.0657,-0.1091,-0.1369,-0.1718,-0.2141,-0.2259,-0.2179,-0.2173,-0.2162,-0.2223,-0.2226,-0.2374,-0.2887,-0.3325,-0.3703,-0.4061,-0.4398,-0.4567,-0.4715,-0.4938,-0.5463,-0.586,-0.6166,-0.66,-0.6941,-0.6978,-0.699,-0.699,-0.7063,-0.7208,-0.7856,-0.8652,-0.8512,-0.8729,-0.9018,-0.8946,-0.8512,-0.8145,-0.7928,-0.7421,-0.7063,-0.699,-0.699,-0.699,-0.699,-0.7208,-0.7643,-0.8435,-0.8652,-0.8729,-0.7788,-0.7059,-0.6547,-0.6261,-0.6043,-0.6192,-0.6627,-0.6713,-0.6851,-0.6492,-0.6054,-0.491,-0.4171,-0.3835,-0.3497,-0.2692,-0.1818,-0.1279,-0.0741,-0.0135,0.0471,0.101,0.1346,0.1481,0.1548,0.1481,0.1279,0.1144,0.1414,0.1616,0.1818,0.1953,0.2088,0.2223,0.2223,0.0718,0.1029,0.1105,0.0867,0.0394,-0.0314,-0.0864,-0.1413,-0.2121,-0.2514,-0.2435,-0.22,-0.1728,-0.1252,-0.0543,0.023,0.106,0.1123,0.1418,0.1562,0.1622,0.1465,0.1245,0.1168,0.1022,0.0657,0.0584,0.0365,0.0073,-0.0146,-0.0584,-0.1092,-0.1227,-0.158,-0.2151,-0.2283,-0.2195,-0.2191,-0.2186,-0.2255,-0.2401,-0.2702,-0.315,-0.359,-0.3914,-0.4271,-0.4602,-0.4771,-0.493,-0.5285,-0.566,-0.605,-0.6428,-0.6781,-0.699,-0.699,-0.699,-0.699,-0.7063,-0.7208,-0.7711,-0.8507,-0.8507,-0.8729,-0.8874,-0.8652,-0.8145,-0.7638,-0.7421,-0.7349,-0.7063,-0.699,-0.699,-0.699,-0.7063,-0.728,-0.8005,-0.844,-0.8295,-0.8078,-0.7353,-0.699,-0.6624,-0.6333,-0.6192,-0.6264,-0.6627,-0.6845,-0.6905,-0.6794,-0.6226,-0.4815,-0.3969,-0.3497,-0.3026,-0.2356,-0.1481,-0.0673,-0.0067,0.0539,0.1077,0.1616,0.1818,0.1953,0.2021,0.1885,0.1616,0.1481,0.1683,0.1885,0.2088,0.2155,0.2155,0.2223,0.2223,0.0081,0.0162,0.0561,0.0399,0.0,-0.0394,-0.0864,-0.1335,-0.2121,-0.2514,-0.2435,-0.2435,-0.1964,-0.1175,-0.0078,0.046,0.076,0.0984,0.1209,0.1282,0.1268,0.1186,0.1184,0.1173,0.0878,0.0585,0.0584,0.0365,0.0,-0.0292,-0.073,-0.1166,-0.1528,-0.189,-0.2248,-0.2312,-0.2323,-0.2316,-0.2298,-0.2502,-0.2715,-0.2864,-0.3387,-0.3842,-0.4146,-0.4293,-0.4646,-0.4959,-0.5192,-0.5452,-0.5998,-0.6308,-0.6488,-0.6808,-0.6926,-0.699,-0.699,-0.699,-0.699,-0.7148,-0.7511,-0.8169,-0.8242,-0.83,-0.8377,-0.8222,-0.7638,-0.7135,-0.7063,-0.7063,-0.699,-0.699,-0.699,-0.699,-0.699,-0.7711,-0.8507,-0.8367,-0.8222,-0.7933,-0.7498,-0.7208,-0.6918,-0.6555,-0.6337,-0.6482,-0.67,-0.6845,-0.6894,-0.6721,-0.6174,-0.4806,-0.3929,-0.3519,-0.2834,-0.2159,-0.1212,-0.0269,0.0404,0.101,0.1481,0.1885,0.2021,0.2155,0.2223,0.2223,0.1953,0.1952,0.2088,0.2155,0.2155,0.2155,0.2223,0.2223,0.2228,-0.016,-0.0319,0.0317,0.0238,-0.0317,-0.0315,-0.0471,-0.0942,-0.157,-0.1964,-0.2121,-0.2121,-0.1807,-0.1098,-0.0156,0.0389,0.0618,0.0767,0.0842,0.0839,0.0831,0.0751,0.0524,0.052,0.0369,0.0,0.0,0.0219,-0.0073,-0.0438,-0.0803,-0.1168,-0.1604,-0.1967,-0.2261,-0.226,-0.226,-0.2333,-0.2554,-0.2779,-0.2997,-0.336,-0.3796,-0.408,-0.4301,-0.4522,-0.4746,-0.507,-0.5459,-0.5793,-0.6304,-0.6712,-0.6872,-0.7047,-0.7068,-0.7064,-0.7015,-0.6994,-0.6994,-0.7254,-0.7641,-0.7961,-0.8131,-0.8233,-0.8103,-0.782,-0.7425,-0.7063,-0.699,-0.699,-0.699,-0.699,-0.699,-0.699,-0.699,-0.757,-0.8222,-0.8222,-0.8078,-0.7788,-0.7566,-0.7276,-0.699,-0.67,-0.6482,-0.6555,-0.67,-0.6918,-0.6773,-0.6376,-0.5679,-0.4652,-0.3984,-0.3477,-0.2853,-0.2101,-0.1012,-0.0067,0.0606,0.1212,0.175,0.2088,0.2155,0.2223,0.2223,0.2223,0.2223,0.2155,0.2155,0.2155,0.2223,0.2223,0.2224,0.2245,0.2254,-0.0236,-0.055,0.0079,-0.0079,-0.0707,-0.0471,-0.055,-0.0785,-0.1178,-0.1492,-0.1649,-0.1649,-0.1413,-0.1021,-0.0314,0.0157,0.047,0.0467,0.0465,0.0463,0.046,0.0304,0.0,0.0,0.0,0.0,0.0,0.0,0.0,-0.0439,-0.0807,-0.1168,-0.1605,-0.1968,-0.2262,-0.2343,-0.2352,-0.2587,-0.2825,-0.3131,-0.3429,-0.3862,-0.4135,-0.4334,-0.4541,-0.476,-0.4841,-0.5336,-0.5745,-0.6016,-0.6548,-0.7022,-0.7348,-0.7435,-0.7385,-0.7372,-0.733,-0.7219,-0.7219,-0.7309,-0.7647,-0.7914,-0.8024,-0.8038,-0.7708,-0.7534,-0.7387,-0.7035,-0.6998,-0.6994,-0.699,-0.699,-0.699,-0.699,-0.699,-0.7353,-0.7715,-0.786,-0.7788,-0.7498,-0.7276,-0.7276,-0.699,-0.6773,-0.6627,-0.6627,-0.6773,-0.6918,-0.67,-0.6261,-0.548,-0.4659,-0.4108,-0.3523,-0.2683,-0.1847,-0.0816,0.0,0.0675,0.1213,0.1685,0.2021,0.2155,0.2223,0.2155,0.2223,0.2223,0.2223,0.2223,0.2223,0.2223,0.229,0.2297,0.2323,0.2346,-0.0236,-0.0628,-0.055,-0.0785,-0.1256,-0.1256,-0.1178,-0.1099,-0.1256,-0.1256,-0.1256,-0.0942,-0.0785,-0.055,0.0,0.0,0.0,0.0,0.0,0.0,0.0,0.0,0.0,0.0,0.0,0.0,0.0,0.0,0.0,-0.0295,-0.0735,-0.117,-0.1614,-0.1973,-0.2273,-0.2441,-0.2614,-0.2855,-0.3176,-0.3555,-0.392,-0.4274,-0.4391,-0.4681,-0.4749,-0.4824,-0.4826,-0.5556,-0.6063,-0.627,-0.6865,-0.7401,-0.7744,-0.7675,-0.7632,-0.7694,-0.7593,-0.748,-0.7397,-0.7385,-0.7625,-0.8047,-0.8093,-0.7893,-0.7595,-0.7261,-0.7129,-0.7174,-0.7194,-0.7075,-0.7067,-0.699,-0.699,-0.7135,-0.728,-0.757,-0.7788,-0.7788,-0.7643,-0.7208,-0.7063,-0.7063,-0.7059,-0.6845,-0.6773,-0.6773,-0.6773,-0.699,-0.6773,-0.6333,-0.5535,-0.482,-0.4317,-0.3507,-0.2515,-0.1666,-0.1101,-0.0205,0.0615,0.1087,0.1486,0.1822,0.2155,0.2088,0.2088,0.2155,0.2223,0.2223,0.2223,0.2223,0.2224,0.2296,0.252,0.269,0.2647,-0.0236,-0.055,-0.0628,-0.0864,-0.1335,-0.1335,-0.1099,-0.0864,-0.0864,-0.0864,-0.0864,-0.0707,-0.0628,-0.0471,0.0,0.0,0.0,0.0,0.0,0.0,0.0,0.0,0.0,0.0,0.0,0.0,0.0,0.0,0.0,0.0,0.0,-0.111,-0.1561,-0.179,-0.2096,-0.2549,-0.2876,-0.3208,-0.3601,-0.4135,-0.4209,-0.4576,-0.4696,-0.4737,-0.4812,-0.4959,-0.5268,-0.586,-0.6208,-0.6623,-0.7099,-0.759,-0.7993,-0.7842,-0.7807,-0.787,-0.7759,-0.7658,-0.7742,-0.7666,-0.7866,-0.808,-0.8071,-0.7888,-0.7757,-0.78,-0.7853,-0.7799,-0.7538,-0.743,-0.7362,-0.7208,-0.7135,-0.7353,-0.7575,-0.7801,-0.7801,-0.7738,-0.7652,-0.7221,-0.7067,-0.699,-0.699,-0.699,-0.699,-0.699,-0.699,-0.6918,-0.6696,-0.6333,-0.5535,-0.4947,-0.444,-0.3769,-0.2764,-0.2108,-0.1461,-0.0486,0.0484,0.0891,0.1223,0.1888,0.2155,0.2088,0.2021,0.2155,0.2223,0.2223,0.2223,0.2223,0.223,0.2377,0.2608,0.2993,0.3028,-0.0157,-0.0471,-0.055,-0.0942,-0.1413,-0.1335,-0.1178,-0.0942,-0.0707,-0.0471,-0.0393,-0.0393,-0.0393,-0.0314,0.0,0.0,0.0,0.0,0.0,0.0,0.0,0.0,0.0,0.0,0.0,0.0,0.0,0.0,0.0,0.0,0.0,-0.0907,-0.1443,-0.1677,-0.2194,-0.2664,-0.3218,-0.3635,-0.3955,-0.4495,-0.4572,-0.4706,-0.4842,-0.4799,-0.4872,-0.51,-0.5419,-0.5848,-0.627,-0.6682,-0.717,-0.7595,-0.7816,-0.7942,-0.7825,-0.7877,-0.7851,-0.7744,-0.7932,-0.8275,-0.8238,-0.827,-0.8325,-0.8288,-0.8333,-0.8421,-0.8332,-0.8351,-0.8085,-0.7947,-0.787,-0.775,-0.737,-0.7603,-0.7732,-0.7879,-0.7719,-0.7572,-0.7469,-0.7302,-0.716,-0.7031,-0.699,-0.699,-0.6918,-0.699,-0.699,-0.6918,-0.6841,-0.6261,-0.5462,-0.5017,-0.4627,-0.3889,-0.309,-0.256,-0.1901,-0.0702,0.014,0.0483,0.0959,0.1562,0.1887,0.175,0.1818,0.2088,0.2223,0.2223,0.2223,0.2223,0.2372,0.2735,0.298,0.3303,0.3426,0.0,-0.0079,-0.0471,-0.1099,-0.1728,-0.1492,-0.1492,-0.157,-0.0942,-0.0393,-0.0157,-0.0079,0.0,0.0,0.0,0.0,0.0,0.0,0.0,0.0,0.0,0.0,0.0,0.0,0.0,0.0,0.0,0.0,0.0,0.0,0.0,-0.0847,-0.1469,-0.1859,-0.2357,-0.2839,-0.357,-0.4229,-0.4388,-0.462,-0.4844,-0.489,-0.4946,-0.4937,-0.4935,-0.5086,-0.5563,-0.5674,-0.6091,-0.6807,-0.6967,-0.7451,-0.8072,-0.8145,-0.8132,-0.821,-0.821,-0.7976,-0.7673,-0.8608,-0.8769,-0.8466,-0.8517,-0.875,-0.874,-0.8756,-0.8745,-0.8839,-0.8578,-0.8459,-0.844,-0.8356,-0.7936,-0.7765,-0.7974,-0.7891,-0.7734,-0.7451,-0.736,-0.7309,-0.7166,-0.7092,-0.7027,-0.6918,-0.6918,-0.6918,-0.699,-0.6918,-0.6769,-0.6116,-0.5174,-0.495,-0.4649,-0.4064,-0.3397,-0.3014,-0.2281,-0.1065,-0.0211,0.0209,0.0483,0.0889,0.1155,0.1282,0.175,0.2155,0.2223,0.2223,0.2227,0.2234,0.2871,0.3245,0.3429,0.3616,0.381,0.0,0.0,-0.0393,-0.0942,-0.1492,-0.165,-0.1807,-0.1728,-0.1021,-0.055,-0.0393,-0.0157,0.0,0.0,0.0,0.0,0.0,0.0,0.0,0.0,0.0,0.0,0.0,0.0,0.0,0.0,0.0,-0.023,0.0,-0.0384,-0.0848,-0.1393,-0.1949,-0.2577,-0.3034,-0.3509,-0.4151,-0.4393,-0.463,-0.4863,-0.5016,-0.5,-0.4989,-0.4989,-0.4989,-0.522,-0.5609,-0.5642,-0.5962,-0.6747,-0.6826,-0.7295,-0.792,-0.8159,-0.8315,-0.8471,-0.8549,-0.8544,-0.8622,-0.9163,-0.9319,-0.9012,-0.8934,-0.9168,-0.9158,-0.9449,-0.9464,-0.9326,-0.9132,-0.8995,-0.8925,-0.861,-0.8281,-0.8065,-0.8136,-0.799,-0.777,-0.7503,-0.728,-0.7277,-0.7174,-0.6872,-0.6731,-0.6631,-0.6627,-0.6555,-0.6555,-0.6482,-0.641,-0.561,-0.481,-0.481,-0.4587,-0.4153,-0.3633,-0.3095,-0.2362,-0.1212,-0.0494,0.0,0.0277,0.0412,0.0545,0.0879,0.1551,0.2223,0.2223,0.2227,0.217,0.2387,0.2967,0.3351,0.3462,0.3856,0.4256,0.0157,0.0,-0.0314,-0.0785,-0.1335,-0.1728,-0.1886,-0.1728,-0.1178,-0.0785,-0.055,-0.0157,0.0,0.0,0.0236,0.0393,0.0393,0.0,0.0,0.0157,0.0,0.0,0.0,0.0,0.0,0.0,-0.0155,-0.0386,-0.0538,-0.0773,-0.1164,-0.1869,-0.2658,-0.2899,-0.3292,-0.3842,-0.4473,-0.463,-0.4865,-0.4944,-0.5022,-0.5016,-0.5019,-0.5016,-0.5019,-0.5254,-0.5492,-0.5651,-0.5805,-0.6431,-0.6826,-0.706,-0.7607,-0.792,-0.8154,-0.8466,-0.8856,-0.8934,-0.9168,-0.9558,-0.9636,-0.9319,-0.9475,-0.9558,-0.9636,-0.9781,-0.9826,-0.9778,-0.9669,-0.9555,-0.934,-0.8935,-0.8707,-0.8493,-0.8264,-0.8121,-0.7748,-0.7399,-0.7399,-0.7325,-0.7215,-0.6825,-0.6363,-0.6352,-0.6341,-0.6192,-0.6047,-0.6047,-0.5974,-0.532,-0.4738,-0.4665,-0.4592,-0.4228,-0.3631,-0.3097,-0.2294,-0.136,-0.0707,-0.007,0.0138,0.0342,0.034,0.0542,0.1419,0.2091,0.2158,0.2232,0.2254,0.2487,0.2939,0.3252,0.35,0.3951,0.4482,0.0393,0.0,0.0,-0.055,-0.1256,-0.165,-0.1886,-0.1886,-0.1492,-0.1021,-0.0628,-0.0157,0.0236,0.055,0.0628,0.0785,0.1021,0.0785,0.0628,0.0471,0.0236,0.0,0.0,0.0,0.0,0.0,-0.0392,-0.0703,-0.0706,-0.1174,-0.1645,-0.2039,-0.2745,-0.3062,-0.3376,-0.3846,-0.4397,-0.4709,-0.4944,-0.5022,-0.5022,-0.5022,-0.5022,-0.5022,-0.5022,-0.5179,-0.5335,-0.5335,-0.557,-0.5962,-0.6353,-0.6587,-0.69,-0.7291,-0.7764,-0.831,-0.8929,-0.9241,-0.9475,-0.9864,-0.9942,-0.9786,-0.9864,-1.0019,-0.9942,-0.9942,-1.0003,-0.9992,-0.9904,-0.9837,-0.9754,-0.9439,-0.9118,-0.8813,-0.8503,-0.8114,-0.7652,-0.7505,-0.7501,-0.7427,-0.7297,-0.6951,-0.6228,-0.5974,-0.5974,-0.561,-0.5465,-0.5462,-0.5389,-0.5392,-0.4883,-0.4665,-0.4519,-0.4301,-0.3699,-0.3025,-0.2223,-0.1359,-0.0633,0.0,0.0137,0.0341,0.0474,0.0878,0.1554,0.2028,0.217,0.2258,0.2351,0.266,0.3113,0.3351,0.3595,0.4095,0.461,0.0393,0.0,-0.0314,-0.055,-0.0864,-0.1256,-0.1807,-0.22,-0.1649,-0.1178,-0.1021,0.0,0.0471,0.0628,0.0942,0.1178,0.1256,0.1099,0.0864,0.0707,0.0471,0.0236,0.0,-0.0236,-0.0393,-0.055,-0.0864,-0.1178,-0.157,-0.1886,-0.2122,-0.2434,-0.2831,-0.2987,-0.3297,-0.3689,-0.4081,-0.4473,-0.4709,-0.4865,-0.4944,-0.4944,-0.4944,-0.4944,-0.4944,-0.51,-0.51,-0.51,-0.5335,-0.5648,-0.6118,-0.6509,-0.6904,-0.7607,-0.8237,-0.9012,-0.9475,-0.9786,-0.9864,-0.9942,-1.0019,-1.0019,-1.0019,-1.0019,-1.0019,-1.0019,-1.0019,-1.0019,-0.9942,-0.9864,-0.9636,-0.9324,-0.9012,-0.8622,-0.831,-0.7994,-0.7603,-0.7525,-0.7521,-0.7456,-0.7325,-0.6809,-0.6092,-0.5756,-0.5683,-0.5174,-0.4883,-0.4953,-0.4953,-0.4956,-0.4883,-0.4738,-0.4592,-0.4301,-0.3629,-0.2885,-0.2082,-0.1356,-0.0562,0.0139,0.0482,0.0683,0.0744,0.115,0.1776,0.2053,0.2189,0.2282,0.252,0.2896,0.3353,0.3449,0.3684,0.4253,0.4586,0.055,0.0,-0.0236,-0.0471,-0.0707,-0.1099,-0.1575,-0.1817,-0.1339,-0.1099,-0.1178,0.0,0.0707,0.1021,0.1492,0.1885,0.2042,0.1885,0.157,0.1178,0.0785,0.0393,0.0,-0.0393,-0.055,-0.0785,-0.1178,-0.165,-0.1965,-0.2289,-0.2532,-0.2515,-0.2836,-0.2836,-0.2988,-0.3297,-0.3611,-0.3925,-0.4238,-0.4552,-0.4709,-0.4787,-0.4787,-0.4787,-0.4787,-0.4787,-0.4787,-0.4787,-0.5022,-0.5414,-0.5883,-0.6353,-0.6822,-0.7607,-0.8393,-0.9012,-0.948,-0.9708,-0.9942,-0.9942,-1.0019,-1.0019,-1.0019,-1.0019,-1.0019,-1.0019,-1.0019,-1.0019,-0.9864,-0.963,-0.9402,-0.909,-0.87,-0.8237,-0.8076,-0.7916,-0.7681,-0.7525,-0.7488,-0.7444,-0.7097,-0.6586,-0.6198,-0.5783,-0.5465,-0.5029,-0.4738,-0.481,-0.481,-0.481,-0.481,-0.4738,-0.4592,-0.4371,-0.3554,-0.2673,-0.1869,-0.1,-0.0141,0.0419,0.0761,0.1028,0.1088,0.1439,0.1874,0.2151,0.2427,0.2663,0.2834,0.3212,0.3592,0.3758,0.3979,0.4251,0.4498,0.0864,0.0157,0.0079,-0.0157,-0.0551,-0.0943,-0.1185,-0.1196,-0.0711,-0.0787,-0.0946,0.0079,0.0866,0.1261,0.1889,0.2512,0.2591,0.2435,0.2121,0.1886,0.1099,0.055,0.0079,-0.0393,-0.0785,-0.1021,-0.1413,-0.1964,-0.2048,-0.237,-0.2529,-0.2517,-0.2534,-0.2613,-0.2674,-0.2905,-0.314,-0.3219,-0.3532,-0.3927,-0.4319,-0.4397,-0.4397,-0.4397,-0.4397,-0.4319,-0.4397,-0.4476,-0.4554,-0.51,-0.5724,-0.6271,-0.69,-0.7529,-0.831,-0.8856,-0.9246,-0.9636,-0.9942,-1.0019,-1.0019,-1.0019,-1.0019,-1.0019,-1.0019,-1.0019,-1.0019,-0.9942,-0.9786,-0.9475,-0.9168,-0.8778,-0.8315,-0.7998,-0.7842,-0.7681,-0.7603,-0.7431,-0.7391,-0.7257,-0.6937,-0.6504,-0.5893,-0.5481,-0.5247,-0.4883,-0.4592,-0.4592,-0.4592,-0.4592,-0.4519,-0.4519,-0.4447,-0.4153,-0.3419,-0.2535,-0.1584,-0.0715,0.0142,0.0847,0.1194,0.1388,0.1505,0.2018,0.255,0.2607,0.282,0.3059,0.3292,0.3519,0.383,0.4071,0.4283,0.4408,0.4496,0.1492,0.0942,0.0628,0.0395,0.0238,-0.0158,-0.0315,-0.0316,-0.0238,-0.032,-0.0563,0.016,0.0796,0.1273,0.1894,0.2438,0.2829,0.2751,0.2514,0.2121,0.1492,0.0785,0.0314,-0.055,-0.0942,-0.1413,-0.1886,-0.2278,-0.2282,-0.2443,-0.2525,-0.2515,-0.253,-0.2526,-0.2515,-0.2669,-0.2748,-0.2748,-0.2906,-0.3456,-0.4162,-0.4084,-0.4005,-0.4162,-0.4162,-0.3925,-0.4005,-0.4241,-0.4397,-0.4711,-0.5727,-0.6509,-0.7213,-0.7842,-0.8388,-0.8778,-0.909,-0.948,-0.9786,-0.9864,-0.9864,-0.9942,-0.9942,-1.0019,-1.0019,-1.0019,-0.9942,-0.9864,-0.963,-0.9324,-0.8934,-0.8466,-0.8076,-0.7842,-0.7603,-0.7525,-0.7447,-0.7333,-0.7297,-0.7068,-0.6759,-0.6216,-0.5606,-0.5268,-0.5035,-0.4738,-0.4374,-0.4226,-0.4228,-0.4228,-0.4155,-0.4155,-0.4226,-0.386,-0.3203,-0.2472,-0.1519,-0.0578,0.036,0.1004,0.164,0.1765,0.196,0.2711,0.3253,0.3299,0.3361,0.3673,0.3837,0.3982,0.4131,0.4369,0.4374,0.4501,0.4506,0.1655,0.1267,0.0871,0.0556,0.0319,0.0237,0.0236,0.0317,0.0481,0.0487,0.0245,0.0487,0.0725,0.1207,0.1751,0.2294,0.2843,0.2833,0.2672,0.2278,0.1728,0.1099,0.0314,-0.0471,-0.0707,-0.1178,-0.1807,-0.22,-0.2279,-0.2451,-0.2534,-0.2519,-0.2522,-0.2526,-0.2518,-0.2514,-0.2514,-0.2514,-0.2514,-0.2985,-0.3848,-0.3689,-0.3532,-0.3689,-0.3611,-0.3454,-0.3611,-0.3925,-0.4162,-0.4633,-0.5648,-0.6666,-0.7291,-0.7686,-0.8076,-0.8466,-0.8778,-0.909,-0.9475,-0.9553,-0.9553,-0.9553,-0.9942,-0.9942,-0.9402,-0.9324,-0.9558,-0.9402,-0.9246,-0.8934,-0.8544,-0.8076,-0.7842,-0.7603,-0.7525,-0.7447,-0.7135,-0.6885,-0.6759,-0.6619,-0.6315,-0.5934,-0.5333,-0.5049,-0.4892,-0.4738,-0.4371,-0.3935,-0.3937,-0.3791,-0.3716,-0.3644,-0.3644,-0.3425,-0.2841,-0.2186,-0.1528,-0.051,0.0437,0.1161,0.1801,0.2082,0.2441,0.3333,0.3857,0.3921,0.4064,0.4071,0.4218,0.4361,0.4439,0.4592,0.4592,0.4439,0.4376,0.1819,0.1438,0.1037,0.0639,0.0239,0.0473,0.0632,0.0718,0.113,0.1305,0.115,0.0817,0.0734,0.1137,0.1691,0.2164,0.2471,0.2534,0.2525,0.2435,0.1807,0.1256,0.0628,-0.0079,-0.055,-0.1021,-0.1649,-0.1886,-0.1964,-0.2292,-0.2533,-0.2445,-0.245,-0.246,-0.2443,-0.2435,-0.2357,-0.2435,-0.2514,-0.2671,-0.2905,-0.306,-0.314,-0.3062,-0.306,-0.306,-0.3219,-0.3532,-0.4003,-0.4709,-0.557,-0.6509,-0.7135,-0.7525,-0.7842,-0.8154,-0.8315,-0.87,-0.9012,-0.9012,-0.8929,-0.9007,-0.9553,-0.9558,-0.8934,-0.8778,-0.8934,-0.8934,-0.8778,-0.8622,-0.8154,-0.7842,-0.7603,-0.7525,-0.7447,-0.7291,-0.69,-0.6427,-0.6223,-0.6015,-0.579,-0.5416,-0.5126,-0.4771,-0.4603,-0.4522,-0.4228,-0.3864,-0.3573,-0.3209,-0.2988,-0.2842,-0.277,-0.2551,-0.2405,-0.1968,-0.1458,-0.0583,0.0365,0.1239,0.2039,0.2462,0.318,0.4066,0.4517,0.4293,0.4293,0.4296,0.4444,0.4519,0.4447,0.4447,0.4371,0.4213,0.4095,0.2608,0.2236,0.182,0.1427,0.1037,0.0711,0.0787,0.1105,0.1278,0.1286,0.1377,0.1232,0.1155,0.1154,0.0897,0.1294,0.2168,0.2314,0.269,0.2751,0.2048,0.1573,0.0943,0.0157,-0.0471,-0.1021,-0.1492,-0.1807,-0.1807,-0.2206,-0.2364,-0.2123,-0.2044,-0.2048,-0.2046,-0.2043,-0.2121,-0.2278,-0.2435,-0.2514,-0.2592,-0.2748,-0.2826,-0.2826,-0.2748,-0.2905,-0.314,-0.3532,-0.3925,-0.463,-0.557,-0.6353,-0.69,-0.7291,-0.7607,-0.7842,-0.8002,-0.831,-0.8544,-0.8622,-0.854,-0.815,-0.8618,-0.8934,-0.8388,-0.7916,-0.8076,-0.8232,-0.8154,-0.8232,-0.792,-0.7681,-0.7525,-0.7447,-0.7447,-0.7135,-0.6822,-0.603,-0.5456,-0.5396,-0.5334,-0.4887,-0.4453,-0.4189,-0.3942,-0.3791,-0.3573,-0.3281,-0.35,-0.2917,-0.2333,-0.2188,-0.2042,-0.2407,-0.2625,-0.2041,-0.1385,-0.0583,0.0291,0.1239,0.2187,0.3063,0.3791,0.4155,0.4519,0.4444,0.4447,0.4228,0.4374,0.4374,0.4226,0.4153,0.408,0.4066,0.4025]}]]